<?xml version="1.0" encoding="UTF-8" standalone="no" ?>
<gpx xmlns="http://www.topografix.com/GPX/1/1" xmlns:xsi="http://www.w3.org/2001/XMLSchema-instance" xsi:schemaLocation="http://www.topografix.com/GPX/1/1 http://www.topografix.com/GPX/1/1/gpx.xsd" version="1.1" creator="VisuGPX - https://www.visugpx.com">
  <metadata>
    <name>HRE J3</name>
    <desc><![CDATA[21 déc. 2021

comment ...]]></desc>
  </metadata>
  <trk>
    <name><![CDATA[HRE J3]]></name>
    <cmt><![CDATA[21 déc. 2021]]></cmt>
    <desc><![CDATA[comment ...]]></desc>
    <trkseg>
      <trkpt lat="44.79323" lon="6.7301">
        <ele>1737</ele>
        <time>2021-12-21T08:34:25Z</time>
      </trkpt>
      <trkpt lat="44.79323" lon="6.73009">
        <ele>1736</ele>
        <time>2021-12-21T08:34:26Z</time>
      </trkpt>
      <trkpt lat="44.79327" lon="6.73009">
        <ele>1730</ele>
        <time>2021-12-21T08:34:29Z</time>
      </trkpt>
      <trkpt lat="44.79324" lon="6.7301">
        <ele>1722</ele>
        <time>2021-12-21T08:34:46Z</time>
      </trkpt>
      <trkpt lat="44.79322" lon="6.73009">
        <ele>1719</ele>
        <time>2021-12-21T08:34:58Z</time>
      </trkpt>
      <trkpt lat="44.7932" lon="6.73007">
        <ele>1719</ele>
        <time>2021-12-21T08:35:01Z</time>
      </trkpt>
      <trkpt lat="44.79321" lon="6.73004">
        <ele>1715</ele>
        <time>2021-12-21T08:35:06Z</time>
      </trkpt>
      <trkpt lat="44.79329" lon="6.73002">
        <ele>1716</ele>
        <time>2021-12-21T08:35:14Z</time>
      </trkpt>
      <trkpt lat="44.79332" lon="6.73001">
        <ele>1716</ele>
        <time>2021-12-21T08:35:17Z</time>
      </trkpt>
      <trkpt lat="44.79334" lon="6.73001">
        <ele>1717</ele>
        <time>2021-12-21T08:35:20Z</time>
      </trkpt>
      <trkpt lat="44.79336" lon="6.73001">
        <ele>1717</ele>
        <time>2021-12-21T08:35:23Z</time>
      </trkpt>
      <trkpt lat="44.79339" lon="6.73003">
        <ele>1718</ele>
        <time>2021-12-21T08:35:27Z</time>
      </trkpt>
      <trkpt lat="44.79342" lon="6.73003">
        <ele>1719</ele>
        <time>2021-12-21T08:35:31Z</time>
      </trkpt>
      <trkpt lat="44.79346" lon="6.73001">
        <ele>1722</ele>
        <time>2021-12-21T08:35:42Z</time>
      </trkpt>
      <trkpt lat="44.79351" lon="6.72998">
        <ele>1724</ele>
        <time>2021-12-21T08:35:58Z</time>
      </trkpt>
      <trkpt lat="44.79353" lon="6.72997">
        <ele>1724</ele>
        <time>2021-12-21T08:36:03Z</time>
      </trkpt>
      <trkpt lat="44.79354" lon="6.72994">
        <ele>1726</ele>
        <time>2021-12-21T08:36:08Z</time>
      </trkpt>
      <trkpt lat="44.79353" lon="6.72991">
        <ele>1726</ele>
        <time>2021-12-21T08:36:11Z</time>
      </trkpt>
      <trkpt lat="44.79351" lon="6.7299">
        <ele>1727</ele>
        <time>2021-12-21T08:36:13Z</time>
      </trkpt>
      <trkpt lat="44.7935" lon="6.72987">
        <ele>1729</ele>
        <time>2021-12-21T08:36:18Z</time>
      </trkpt>
      <trkpt lat="44.79351" lon="6.72985">
        <ele>1729</ele>
        <time>2021-12-21T08:36:23Z</time>
      </trkpt>
      <trkpt lat="44.79353" lon="6.72982">
        <ele>1730</ele>
        <time>2021-12-21T08:36:26Z</time>
      </trkpt>
      <trkpt lat="44.79353" lon="6.72979">
        <ele>1730</ele>
        <time>2021-12-21T08:36:29Z</time>
      </trkpt>
      <trkpt lat="44.79352" lon="6.72975">
        <ele>1731</ele>
        <time>2021-12-21T08:36:31Z</time>
      </trkpt>
      <trkpt lat="44.79351" lon="6.72973">
        <ele>1731</ele>
        <time>2021-12-21T08:36:33Z</time>
      </trkpt>
      <trkpt lat="44.7935" lon="6.7297">
        <ele>1732</ele>
        <time>2021-12-21T08:36:36Z</time>
      </trkpt>
      <trkpt lat="44.79351" lon="6.72967">
        <ele>1733</ele>
        <time>2021-12-21T08:36:40Z</time>
      </trkpt>
      <trkpt lat="44.79352" lon="6.72965">
        <ele>1733</ele>
        <time>2021-12-21T08:36:43Z</time>
      </trkpt>
      <trkpt lat="44.79352" lon="6.72962">
        <ele>1734</ele>
        <time>2021-12-21T08:36:46Z</time>
      </trkpt>
      <trkpt lat="44.79356" lon="6.72955">
        <ele>1735</ele>
        <time>2021-12-21T08:36:55Z</time>
      </trkpt>
      <trkpt lat="44.7936" lon="6.72952">
        <ele>1735</ele>
        <time>2021-12-21T08:37:00Z</time>
      </trkpt>
      <trkpt lat="44.79363" lon="6.72951">
        <ele>1736</ele>
        <time>2021-12-21T08:37:02Z</time>
      </trkpt>
      <trkpt lat="44.79363" lon="6.72948">
        <ele>1736</ele>
        <time>2021-12-21T08:37:05Z</time>
      </trkpt>
      <trkpt lat="44.79364" lon="6.72945">
        <ele>1737</ele>
        <time>2021-12-21T08:37:10Z</time>
      </trkpt>
      <trkpt lat="44.79366" lon="6.72944">
        <ele>1738</ele>
        <time>2021-12-21T08:37:17Z</time>
      </trkpt>
      <trkpt lat="44.79364" lon="6.72941">
        <ele>1738</ele>
        <time>2021-12-21T08:37:21Z</time>
      </trkpt>
      <trkpt lat="44.79363" lon="6.7294">
        <ele>1740</ele>
        <time>2021-12-21T08:37:28Z</time>
      </trkpt>
      <trkpt lat="44.79365" lon="6.72942">
        <ele>1739</ele>
        <time>2021-12-21T08:37:47Z</time>
      </trkpt>
      <trkpt lat="44.79367" lon="6.7294">
        <ele>1739</ele>
        <time>2021-12-21T08:37:57Z</time>
      </trkpt>
      <trkpt lat="44.79366" lon="6.72937">
        <ele>1739</ele>
        <time>2021-12-21T08:38:01Z</time>
      </trkpt>
      <trkpt lat="44.79368" lon="6.72936">
        <ele>1738</ele>
        <time>2021-12-21T08:38:08Z</time>
      </trkpt>
      <trkpt lat="44.79361" lon="6.72928">
        <ele>1738</ele>
        <time>2021-12-21T08:39:38Z</time>
      </trkpt>
      <trkpt lat="44.79362" lon="6.72926">
        <ele>1738</ele>
        <time>2021-12-21T08:39:43Z</time>
      </trkpt>
      <trkpt lat="44.79385" lon="6.72915">
        <ele>1740</ele>
        <time>2021-12-21T08:40:14Z</time>
      </trkpt>
      <trkpt lat="44.79392" lon="6.72911">
        <ele>1742</ele>
        <time>2021-12-21T08:40:22Z</time>
      </trkpt>
      <trkpt lat="44.79396" lon="6.7291">
        <ele>1742</ele>
        <time>2021-12-21T08:40:27Z</time>
      </trkpt>
      <trkpt lat="44.79398" lon="6.72908">
        <ele>1742</ele>
        <time>2021-12-21T08:40:29Z</time>
      </trkpt>
      <trkpt lat="44.79401" lon="6.72908">
        <ele>1743</ele>
        <time>2021-12-21T08:40:34Z</time>
      </trkpt>
      <trkpt lat="44.79407" lon="6.72897">
        <ele>1744</ele>
        <time>2021-12-21T08:40:42Z</time>
      </trkpt>
      <trkpt lat="44.79415" lon="6.72894">
        <ele>1746</ele>
        <time>2021-12-21T08:40:53Z</time>
      </trkpt>
      <trkpt lat="44.7942" lon="6.72888">
        <ele>1749</ele>
        <time>2021-12-21T08:41:00Z</time>
      </trkpt>
      <trkpt lat="44.79423" lon="6.72887">
        <ele>1750</ele>
        <time>2021-12-21T08:41:04Z</time>
      </trkpt>
      <trkpt lat="44.79428" lon="6.72882">
        <ele>1752</ele>
        <time>2021-12-21T08:41:11Z</time>
      </trkpt>
      <trkpt lat="44.79446" lon="6.72875">
        <ele>1755</ele>
        <time>2021-12-21T08:41:34Z</time>
      </trkpt>
      <trkpt lat="44.79456" lon="6.72869">
        <ele>1756</ele>
        <time>2021-12-21T08:41:46Z</time>
      </trkpt>
      <trkpt lat="44.79465" lon="6.72865">
        <ele>1756</ele>
        <time>2021-12-21T08:41:58Z</time>
      </trkpt>
      <trkpt lat="44.79474" lon="6.72859">
        <ele>1757</ele>
        <time>2021-12-21T08:42:10Z</time>
      </trkpt>
      <trkpt lat="44.79476" lon="6.72858">
        <ele>1757</ele>
        <time>2021-12-21T08:42:13Z</time>
      </trkpt>
      <trkpt lat="44.79478" lon="6.72857">
        <ele>1757</ele>
        <time>2021-12-21T08:42:16Z</time>
      </trkpt>
      <trkpt lat="44.7948" lon="6.72857">
        <ele>1757</ele>
        <time>2021-12-21T08:42:18Z</time>
      </trkpt>
      <trkpt lat="44.79482" lon="6.72856">
        <ele>1758</ele>
        <time>2021-12-21T08:42:20Z</time>
      </trkpt>
      <trkpt lat="44.79493" lon="6.72851">
        <ele>1759</ele>
        <time>2021-12-21T08:42:33Z</time>
      </trkpt>
      <trkpt lat="44.79495" lon="6.72847">
        <ele>1760</ele>
        <time>2021-12-21T08:42:39Z</time>
      </trkpt>
      <trkpt lat="44.79498" lon="6.72847">
        <ele>1760</ele>
        <time>2021-12-21T08:42:42Z</time>
      </trkpt>
      <trkpt lat="44.795" lon="6.72847">
        <ele>1760</ele>
        <time>2021-12-21T08:42:44Z</time>
      </trkpt>
      <trkpt lat="44.79503" lon="6.72844">
        <ele>1761</ele>
        <time>2021-12-21T08:42:49Z</time>
      </trkpt>
      <trkpt lat="44.79507" lon="6.72841">
        <ele>1762</ele>
        <time>2021-12-21T08:42:55Z</time>
      </trkpt>
      <trkpt lat="44.79508" lon="6.72839">
        <ele>1763</ele>
        <time>2021-12-21T08:42:57Z</time>
      </trkpt>
      <trkpt lat="44.7951" lon="6.72838">
        <ele>1763</ele>
        <time>2021-12-21T08:43:00Z</time>
      </trkpt>
      <trkpt lat="44.79533" lon="6.72827">
        <ele>1769</ele>
        <time>2021-12-21T08:43:32Z</time>
      </trkpt>
      <trkpt lat="44.79536" lon="6.72826">
        <ele>1770</ele>
        <time>2021-12-21T08:43:35Z</time>
      </trkpt>
      <trkpt lat="44.79541" lon="6.72822">
        <ele>1771</ele>
        <time>2021-12-21T08:43:43Z</time>
      </trkpt>
      <trkpt lat="44.79545" lon="6.7282">
        <ele>1772</ele>
        <time>2021-12-21T08:43:48Z</time>
      </trkpt>
      <trkpt lat="44.79546" lon="6.72818">
        <ele>1772</ele>
        <time>2021-12-21T08:43:51Z</time>
      </trkpt>
      <trkpt lat="44.79549" lon="6.72816">
        <ele>1773</ele>
        <time>2021-12-21T08:43:57Z</time>
      </trkpt>
      <trkpt lat="44.79552" lon="6.72813">
        <ele>1773</ele>
        <time>2021-12-21T08:44:01Z</time>
      </trkpt>
      <trkpt lat="44.79559" lon="6.72812">
        <ele>1774</ele>
        <time>2021-12-21T08:44:10Z</time>
      </trkpt>
      <trkpt lat="44.79565" lon="6.72806">
        <ele>1775</ele>
        <time>2021-12-21T08:44:17Z</time>
      </trkpt>
      <trkpt lat="44.7957" lon="6.72803">
        <ele>1776</ele>
        <time>2021-12-21T08:44:24Z</time>
      </trkpt>
      <trkpt lat="44.79576" lon="6.728">
        <ele>1776</ele>
        <time>2021-12-21T08:44:31Z</time>
      </trkpt>
      <trkpt lat="44.79579" lon="6.72797">
        <ele>1777</ele>
        <time>2021-12-21T08:44:35Z</time>
      </trkpt>
      <trkpt lat="44.79582" lon="6.72794">
        <ele>1777</ele>
        <time>2021-12-21T08:44:39Z</time>
      </trkpt>
      <trkpt lat="44.79589" lon="6.72791">
        <ele>1779</ele>
        <time>2021-12-21T08:44:48Z</time>
      </trkpt>
      <trkpt lat="44.79591" lon="6.72791">
        <ele>1779</ele>
        <time>2021-12-21T08:44:50Z</time>
      </trkpt>
      <trkpt lat="44.79596" lon="6.72795">
        <ele>1780</ele>
        <time>2021-12-21T08:44:59Z</time>
      </trkpt>
      <trkpt lat="44.79596" lon="6.72798">
        <ele>1780</ele>
        <time>2021-12-21T08:45:02Z</time>
      </trkpt>
      <trkpt lat="44.79597" lon="6.728">
        <ele>1780</ele>
        <time>2021-12-21T08:45:04Z</time>
      </trkpt>
      <trkpt lat="44.79598" lon="6.72803">
        <ele>1780</ele>
        <time>2021-12-21T08:45:07Z</time>
      </trkpt>
      <trkpt lat="44.79603" lon="6.72813">
        <ele>1780</ele>
        <time>2021-12-21T08:45:16Z</time>
      </trkpt>
      <trkpt lat="44.79611" lon="6.72831">
        <ele>1780</ele>
        <time>2021-12-21T08:45:30Z</time>
      </trkpt>
      <trkpt lat="44.79614" lon="6.72834">
        <ele>1780</ele>
        <time>2021-12-21T08:45:34Z</time>
      </trkpt>
      <trkpt lat="44.79616" lon="6.72835">
        <ele>1780</ele>
        <time>2021-12-21T08:45:36Z</time>
      </trkpt>
      <trkpt lat="44.79619" lon="6.72834">
        <ele>1780</ele>
        <time>2021-12-21T08:45:38Z</time>
      </trkpt>
      <trkpt lat="44.79619" lon="6.72831">
        <ele>1780</ele>
        <time>2021-12-21T08:45:40Z</time>
      </trkpt>
      <trkpt lat="44.79618" lon="6.72828">
        <ele>1780</ele>
        <time>2021-12-21T08:45:43Z</time>
      </trkpt>
      <trkpt lat="44.79621" lon="6.72824">
        <ele>1780</ele>
        <time>2021-12-21T08:45:50Z</time>
      </trkpt>
      <trkpt lat="44.79637" lon="6.72801">
        <ele>1783</ele>
        <time>2021-12-21T08:46:18Z</time>
      </trkpt>
      <trkpt lat="44.79638" lon="6.72799">
        <ele>1783</ele>
        <time>2021-12-21T08:46:21Z</time>
      </trkpt>
      <trkpt lat="44.79649" lon="6.72781">
        <ele>1785</ele>
        <time>2021-12-21T08:46:40Z</time>
      </trkpt>
      <trkpt lat="44.79664" lon="6.7276">
        <ele>1789</ele>
        <time>2021-12-21T08:47:07Z</time>
      </trkpt>
      <trkpt lat="44.79665" lon="6.72753">
        <ele>1790</ele>
        <time>2021-12-21T08:47:13Z</time>
      </trkpt>
      <trkpt lat="44.79668" lon="6.72752">
        <ele>1790</ele>
        <time>2021-12-21T08:47:15Z</time>
      </trkpt>
      <trkpt lat="44.79671" lon="6.72748">
        <ele>1791</ele>
        <time>2021-12-21T08:47:23Z</time>
      </trkpt>
      <trkpt lat="44.79678" lon="6.72745">
        <ele>1791</ele>
        <time>2021-12-21T08:47:29Z</time>
      </trkpt>
      <trkpt lat="44.79679" lon="6.72743">
        <ele>1791</ele>
        <time>2021-12-21T08:47:31Z</time>
      </trkpt>
      <trkpt lat="44.79684" lon="6.72739">
        <ele>1792</ele>
        <time>2021-12-21T08:47:38Z</time>
      </trkpt>
      <trkpt lat="44.79687" lon="6.72737">
        <ele>1792</ele>
        <time>2021-12-21T08:47:42Z</time>
      </trkpt>
      <trkpt lat="44.79697" lon="6.72736">
        <ele>1794</ele>
        <time>2021-12-21T08:47:54Z</time>
      </trkpt>
      <trkpt lat="44.79698" lon="6.72735">
        <ele>1794</ele>
        <time>2021-12-21T08:47:59Z</time>
      </trkpt>
      <trkpt lat="44.79701" lon="6.72735">
        <ele>1794</ele>
        <time>2021-12-21T08:48:01Z</time>
      </trkpt>
      <trkpt lat="44.79702" lon="6.72734">
        <ele>1795</ele>
        <time>2021-12-21T08:48:04Z</time>
      </trkpt>
      <trkpt lat="44.79713" lon="6.72733">
        <ele>1797</ele>
        <time>2021-12-21T08:48:16Z</time>
      </trkpt>
      <trkpt lat="44.79715" lon="6.72732">
        <ele>1798</ele>
        <time>2021-12-21T08:48:19Z</time>
      </trkpt>
      <trkpt lat="44.79726" lon="6.72731">
        <ele>1801</ele>
        <time>2021-12-21T08:48:33Z</time>
      </trkpt>
      <trkpt lat="44.7973" lon="6.72729">
        <ele>1802</ele>
        <time>2021-12-21T08:48:37Z</time>
      </trkpt>
      <trkpt lat="44.79746" lon="6.72731">
        <ele>1804</ele>
        <time>2021-12-21T08:48:56Z</time>
      </trkpt>
      <trkpt lat="44.7975" lon="6.7273">
        <ele>1805</ele>
        <time>2021-12-21T08:49:02Z</time>
      </trkpt>
      <trkpt lat="44.79753" lon="6.7273">
        <ele>1805</ele>
        <time>2021-12-21T08:49:04Z</time>
      </trkpt>
      <trkpt lat="44.79757" lon="6.72727">
        <ele>1806</ele>
        <time>2021-12-21T08:49:11Z</time>
      </trkpt>
      <trkpt lat="44.79759" lon="6.72725">
        <ele>1806</ele>
        <time>2021-12-21T08:49:14Z</time>
      </trkpt>
      <trkpt lat="44.79766" lon="6.72723">
        <ele>1806</ele>
        <time>2021-12-21T08:49:23Z</time>
      </trkpt>
      <trkpt lat="44.79771" lon="6.72724">
        <ele>1807</ele>
        <time>2021-12-21T08:49:28Z</time>
      </trkpt>
      <trkpt lat="44.79773" lon="6.72721">
        <ele>1807</ele>
        <time>2021-12-21T08:49:32Z</time>
      </trkpt>
      <trkpt lat="44.79778" lon="6.72719">
        <ele>1807</ele>
        <time>2021-12-21T08:49:37Z</time>
      </trkpt>
      <trkpt lat="44.7978" lon="6.72721">
        <ele>1808</ele>
        <time>2021-12-21T08:49:41Z</time>
      </trkpt>
      <trkpt lat="44.79785" lon="6.72721">
        <ele>1808</ele>
        <time>2021-12-21T08:49:50Z</time>
      </trkpt>
      <trkpt lat="44.79787" lon="6.72721">
        <ele>1809</ele>
        <time>2021-12-21T08:49:55Z</time>
      </trkpt>
      <trkpt lat="44.79789" lon="6.72721">
        <ele>1810</ele>
        <time>2021-12-21T08:49:58Z</time>
      </trkpt>
      <trkpt lat="44.79796" lon="6.72718">
        <ele>1811</ele>
        <time>2021-12-21T08:50:07Z</time>
      </trkpt>
      <trkpt lat="44.79799" lon="6.72717">
        <ele>1811</ele>
        <time>2021-12-21T08:50:10Z</time>
      </trkpt>
      <trkpt lat="44.79803" lon="6.72716">
        <ele>1812</ele>
        <time>2021-12-21T08:50:16Z</time>
      </trkpt>
      <trkpt lat="44.79806" lon="6.72715">
        <ele>1812</ele>
        <time>2021-12-21T08:50:20Z</time>
      </trkpt>
      <trkpt lat="44.79854" lon="6.72728">
        <ele>1813</ele>
        <time>2021-12-21T09:16:52Z</time>
      </trkpt>
      <trkpt lat="44.79856" lon="6.72727">
        <ele>1813</ele>
        <time>2021-12-21T09:16:56Z</time>
      </trkpt>
      <trkpt lat="44.79858" lon="6.72725">
        <ele>1814</ele>
        <time>2021-12-21T09:16:59Z</time>
      </trkpt>
      <trkpt lat="44.79861" lon="6.72725">
        <ele>1815</ele>
        <time>2021-12-21T09:17:03Z</time>
      </trkpt>
      <trkpt lat="44.79863" lon="6.72724">
        <ele>1816</ele>
        <time>2021-12-21T09:17:07Z</time>
      </trkpt>
      <trkpt lat="44.79865" lon="6.72726">
        <ele>1819</ele>
        <time>2021-12-21T09:17:19Z</time>
      </trkpt>
      <trkpt lat="44.79867" lon="6.72726">
        <ele>1822</ele>
        <time>2021-12-21T09:17:24Z</time>
      </trkpt>
      <trkpt lat="44.79869" lon="6.72728">
        <ele>1822</ele>
        <time>2021-12-21T09:17:27Z</time>
      </trkpt>
      <trkpt lat="44.79871" lon="6.72728">
        <ele>1824</ele>
        <time>2021-12-21T09:17:30Z</time>
      </trkpt>
      <trkpt lat="44.79874" lon="6.7273">
        <ele>1824</ele>
        <time>2021-12-21T09:17:33Z</time>
      </trkpt>
      <trkpt lat="44.79881" lon="6.72733">
        <ele>1826</ele>
        <time>2021-12-21T09:17:40Z</time>
      </trkpt>
      <trkpt lat="44.79883" lon="6.72734">
        <ele>1827</ele>
        <time>2021-12-21T09:17:43Z</time>
      </trkpt>
      <trkpt lat="44.79885" lon="6.72736">
        <ele>1828</ele>
        <time>2021-12-21T09:17:50Z</time>
      </trkpt>
      <trkpt lat="44.79887" lon="6.72737">
        <ele>1828</ele>
        <time>2021-12-21T09:17:53Z</time>
      </trkpt>
      <trkpt lat="44.79886" lon="6.72743">
        <ele>1828</ele>
        <time>2021-12-21T09:18:17Z</time>
      </trkpt>
      <trkpt lat="44.79888" lon="6.72741">
        <ele>1828</ele>
        <time>2021-12-21T09:18:20Z</time>
      </trkpt>
      <trkpt lat="44.79891" lon="6.72741">
        <ele>1829</ele>
        <time>2021-12-21T09:18:22Z</time>
      </trkpt>
      <trkpt lat="44.79893" lon="6.72742">
        <ele>1829</ele>
        <time>2021-12-21T09:18:28Z</time>
      </trkpt>
      <trkpt lat="44.79895" lon="6.72743">
        <ele>1829</ele>
        <time>2021-12-21T09:18:33Z</time>
      </trkpt>
      <trkpt lat="44.79898" lon="6.72741">
        <ele>1829</ele>
        <time>2021-12-21T09:18:37Z</time>
      </trkpt>
      <trkpt lat="44.79905" lon="6.72741">
        <ele>1833</ele>
        <time>2021-12-21T09:18:49Z</time>
      </trkpt>
      <trkpt lat="44.79909" lon="6.72739">
        <ele>1836</ele>
        <time>2021-12-21T09:18:57Z</time>
      </trkpt>
      <trkpt lat="44.79911" lon="6.72739">
        <ele>1836</ele>
        <time>2021-12-21T09:19:00Z</time>
      </trkpt>
      <trkpt lat="44.79913" lon="6.72738">
        <ele>1836</ele>
        <time>2021-12-21T09:19:04Z</time>
      </trkpt>
      <trkpt lat="44.79916" lon="6.72737">
        <ele>1837</ele>
        <time>2021-12-21T09:19:13Z</time>
      </trkpt>
      <trkpt lat="44.79918" lon="6.72737">
        <ele>1838</ele>
        <time>2021-12-21T09:19:19Z</time>
      </trkpt>
      <trkpt lat="44.7992" lon="6.72737">
        <ele>1838</ele>
        <time>2021-12-21T09:19:23Z</time>
      </trkpt>
      <trkpt lat="44.79925" lon="6.72739">
        <ele>1838</ele>
        <time>2021-12-21T09:19:34Z</time>
      </trkpt>
      <trkpt lat="44.79928" lon="6.72739">
        <ele>1838</ele>
        <time>2021-12-21T09:19:36Z</time>
      </trkpt>
      <trkpt lat="44.79931" lon="6.7274">
        <ele>1837</ele>
        <time>2021-12-21T09:19:46Z</time>
      </trkpt>
      <trkpt lat="44.79933" lon="6.72739">
        <ele>1837</ele>
        <time>2021-12-21T09:19:49Z</time>
      </trkpt>
      <trkpt lat="44.79934" lon="6.72742">
        <ele>1836</ele>
        <time>2021-12-21T09:19:52Z</time>
      </trkpt>
      <trkpt lat="44.79936" lon="6.72744">
        <ele>1835</ele>
        <time>2021-12-21T09:19:55Z</time>
      </trkpt>
      <trkpt lat="44.79938" lon="6.72743">
        <ele>1833</ele>
        <time>2021-12-21T09:20:01Z</time>
      </trkpt>
      <trkpt lat="44.7994" lon="6.72743">
        <ele>1833</ele>
        <time>2021-12-21T09:20:04Z</time>
      </trkpt>
      <trkpt lat="44.79942" lon="6.72742">
        <ele>1834</ele>
        <time>2021-12-21T09:20:08Z</time>
      </trkpt>
      <trkpt lat="44.79944" lon="6.72745">
        <ele>1834</ele>
        <time>2021-12-21T09:20:11Z</time>
      </trkpt>
      <trkpt lat="44.79943" lon="6.72746">
        <ele>1835</ele>
        <time>2021-12-21T09:20:21Z</time>
      </trkpt>
      <trkpt lat="44.79946" lon="6.72745">
        <ele>1835</ele>
        <time>2021-12-21T09:20:27Z</time>
      </trkpt>
      <trkpt lat="44.7995" lon="6.72748">
        <ele>1836</ele>
        <time>2021-12-21T09:20:30Z</time>
      </trkpt>
      <trkpt lat="44.79955" lon="6.72749">
        <ele>1836</ele>
        <time>2021-12-21T09:20:34Z</time>
      </trkpt>
      <trkpt lat="44.79958" lon="6.7275">
        <ele>1836</ele>
        <time>2021-12-21T09:20:37Z</time>
      </trkpt>
      <trkpt lat="44.7996" lon="6.7275">
        <ele>1836</ele>
        <time>2021-12-21T09:20:40Z</time>
      </trkpt>
      <trkpt lat="44.79967" lon="6.72751">
        <ele>1838</ele>
        <time>2021-12-21T09:20:53Z</time>
      </trkpt>
      <trkpt lat="44.79969" lon="6.7275">
        <ele>1838</ele>
        <time>2021-12-21T09:20:57Z</time>
      </trkpt>
      <trkpt lat="44.79972" lon="6.72751">
        <ele>1838</ele>
        <time>2021-12-21T09:21:01Z</time>
      </trkpt>
      <trkpt lat="44.79974" lon="6.72754">
        <ele>1839</ele>
        <time>2021-12-21T09:21:04Z</time>
      </trkpt>
      <trkpt lat="44.79978" lon="6.72754">
        <ele>1841</ele>
        <time>2021-12-21T09:21:16Z</time>
      </trkpt>
      <trkpt lat="44.79979" lon="6.72751">
        <ele>1841</ele>
        <time>2021-12-21T09:21:21Z</time>
      </trkpt>
      <trkpt lat="44.79982" lon="6.72751">
        <ele>1843</ele>
        <time>2021-12-21T09:21:23Z</time>
      </trkpt>
      <trkpt lat="44.79984" lon="6.72752">
        <ele>1843</ele>
        <time>2021-12-21T09:21:27Z</time>
      </trkpt>
      <trkpt lat="44.79987" lon="6.72754">
        <ele>1843</ele>
        <time>2021-12-21T09:21:35Z</time>
      </trkpt>
      <trkpt lat="44.79989" lon="6.72756">
        <ele>1842</ele>
        <time>2021-12-21T09:21:38Z</time>
      </trkpt>
      <trkpt lat="44.79992" lon="6.72756">
        <ele>1842</ele>
        <time>2021-12-21T09:21:42Z</time>
      </trkpt>
      <trkpt lat="44.79994" lon="6.72759">
        <ele>1843</ele>
        <time>2021-12-21T09:21:49Z</time>
      </trkpt>
      <trkpt lat="44.79997" lon="6.7276">
        <ele>1844</ele>
        <time>2021-12-21T09:21:54Z</time>
      </trkpt>
      <trkpt lat="44.8" lon="6.72761">
        <ele>1845</ele>
        <time>2021-12-21T09:21:59Z</time>
      </trkpt>
      <trkpt lat="44.80002" lon="6.72764">
        <ele>1844</ele>
        <time>2021-12-21T09:22:03Z</time>
      </trkpt>
      <trkpt lat="44.80004" lon="6.72762">
        <ele>1844</ele>
        <time>2021-12-21T09:22:05Z</time>
      </trkpt>
      <trkpt lat="44.80006" lon="6.72763">
        <ele>1844</ele>
        <time>2021-12-21T09:22:07Z</time>
      </trkpt>
      <trkpt lat="44.80009" lon="6.72762">
        <ele>1843</ele>
        <time>2021-12-21T09:22:11Z</time>
      </trkpt>
      <trkpt lat="44.80008" lon="6.72759">
        <ele>1842</ele>
        <time>2021-12-21T09:22:13Z</time>
      </trkpt>
      <trkpt lat="44.80008" lon="6.72754">
        <ele>1842</ele>
        <time>2021-12-21T09:22:15Z</time>
      </trkpt>
      <trkpt lat="44.80012" lon="6.72741">
        <ele>1841</ele>
        <time>2021-12-21T09:22:34Z</time>
      </trkpt>
      <trkpt lat="44.80015" lon="6.7274">
        <ele>1841</ele>
        <time>2021-12-21T09:22:46Z</time>
      </trkpt>
      <trkpt lat="44.80017" lon="6.7274">
        <ele>1843</ele>
        <time>2021-12-21T09:22:55Z</time>
      </trkpt>
      <trkpt lat="44.80026" lon="6.72745">
        <ele>1845</ele>
        <time>2021-12-21T09:23:08Z</time>
      </trkpt>
      <trkpt lat="44.80028" lon="6.72747">
        <ele>1845</ele>
        <time>2021-12-21T09:23:11Z</time>
      </trkpt>
      <trkpt lat="44.8003" lon="6.72746">
        <ele>1845</ele>
        <time>2021-12-21T09:23:16Z</time>
      </trkpt>
      <trkpt lat="44.80033" lon="6.72745">
        <ele>1845</ele>
        <time>2021-12-21T09:23:20Z</time>
      </trkpt>
      <trkpt lat="44.80035" lon="6.72746">
        <ele>1845</ele>
        <time>2021-12-21T09:23:24Z</time>
      </trkpt>
      <trkpt lat="44.80036" lon="6.72749">
        <ele>1845</ele>
        <time>2021-12-21T09:23:28Z</time>
      </trkpt>
      <trkpt lat="44.80038" lon="6.72752">
        <ele>1845</ele>
        <time>2021-12-21T09:23:36Z</time>
      </trkpt>
      <trkpt lat="44.80043" lon="6.72754">
        <ele>1846</ele>
        <time>2021-12-21T09:23:42Z</time>
      </trkpt>
      <trkpt lat="44.80045" lon="6.72755">
        <ele>1846</ele>
        <time>2021-12-21T09:23:48Z</time>
      </trkpt>
      <trkpt lat="44.80043" lon="6.72754">
        <ele>1846</ele>
        <time>2021-12-21T09:23:55Z</time>
      </trkpt>
      <trkpt lat="44.80044" lon="6.72752">
        <ele>1846</ele>
        <time>2021-12-21T09:23:59Z</time>
      </trkpt>
      <trkpt lat="44.80046" lon="6.72751">
        <ele>1847</ele>
        <time>2021-12-21T09:24:07Z</time>
      </trkpt>
      <trkpt lat="44.80048" lon="6.72755">
        <ele>1848</ele>
        <time>2021-12-21T09:24:12Z</time>
      </trkpt>
      <trkpt lat="44.80051" lon="6.72756">
        <ele>1849</ele>
        <time>2021-12-21T09:24:16Z</time>
      </trkpt>
      <trkpt lat="44.80053" lon="6.72755">
        <ele>1850</ele>
        <time>2021-12-21T09:24:21Z</time>
      </trkpt>
      <trkpt lat="44.80055" lon="6.72758">
        <ele>1851</ele>
        <time>2021-12-21T09:24:30Z</time>
      </trkpt>
      <trkpt lat="44.80055" lon="6.72762">
        <ele>1852</ele>
        <time>2021-12-21T09:24:33Z</time>
      </trkpt>
      <trkpt lat="44.80057" lon="6.72763">
        <ele>1853</ele>
        <time>2021-12-21T09:24:35Z</time>
      </trkpt>
      <trkpt lat="44.8006" lon="6.72762">
        <ele>1854</ele>
        <time>2021-12-21T09:24:37Z</time>
      </trkpt>
      <trkpt lat="44.80062" lon="6.72762">
        <ele>1855</ele>
        <time>2021-12-21T09:24:43Z</time>
      </trkpt>
      <trkpt lat="44.80066" lon="6.72765">
        <ele>1859</ele>
        <time>2021-12-21T09:24:58Z</time>
      </trkpt>
      <trkpt lat="44.80069" lon="6.72766">
        <ele>1860</ele>
        <time>2021-12-21T09:25:02Z</time>
      </trkpt>
      <trkpt lat="44.80071" lon="6.72766">
        <ele>1860</ele>
        <time>2021-12-21T09:25:09Z</time>
      </trkpt>
      <trkpt lat="44.80072" lon="6.72765">
        <ele>1857</ele>
        <time>2021-12-21T09:25:31Z</time>
      </trkpt>
      <trkpt lat="44.80072" lon="6.72766">
        <ele>1856</ele>
        <time>2021-12-21T09:25:52Z</time>
      </trkpt>
      <trkpt lat="44.80074" lon="6.72767">
        <ele>1856</ele>
        <time>2021-12-21T09:25:56Z</time>
      </trkpt>
      <trkpt lat="44.80077" lon="6.72768">
        <ele>1854</ele>
        <time>2021-12-21T09:26:00Z</time>
      </trkpt>
      <trkpt lat="44.80078" lon="6.7277">
        <ele>1854</ele>
        <time>2021-12-21T09:26:04Z</time>
      </trkpt>
      <trkpt lat="44.80081" lon="6.72771">
        <ele>1853</ele>
        <time>2021-12-21T09:26:08Z</time>
      </trkpt>
      <trkpt lat="44.80083" lon="6.72773">
        <ele>1853</ele>
        <time>2021-12-21T09:26:11Z</time>
      </trkpt>
      <trkpt lat="44.80086" lon="6.72772">
        <ele>1852</ele>
        <time>2021-12-21T09:26:24Z</time>
      </trkpt>
      <trkpt lat="44.80087" lon="6.72774">
        <ele>1850</ele>
        <time>2021-12-21T09:26:29Z</time>
      </trkpt>
      <trkpt lat="44.8009" lon="6.72774">
        <ele>1848</ele>
        <time>2021-12-21T09:26:46Z</time>
      </trkpt>
      <trkpt lat="44.80092" lon="6.72773">
        <ele>1844</ele>
        <time>2021-12-21T09:26:50Z</time>
      </trkpt>
      <trkpt lat="44.80095" lon="6.72773">
        <ele>1841</ele>
        <time>2021-12-21T09:26:59Z</time>
      </trkpt>
      <trkpt lat="44.80098" lon="6.72772">
        <ele>1837</ele>
        <time>2021-12-21T09:27:04Z</time>
      </trkpt>
      <trkpt lat="44.80116" lon="6.7277">
        <ele>1842</ele>
        <time>2021-12-21T09:30:34Z</time>
      </trkpt>
      <trkpt lat="44.80118" lon="6.72773">
        <ele>1843</ele>
        <time>2021-12-21T09:30:38Z</time>
      </trkpt>
      <trkpt lat="44.8012" lon="6.72776">
        <ele>1844</ele>
        <time>2021-12-21T09:30:43Z</time>
      </trkpt>
      <trkpt lat="44.8012" lon="6.7278">
        <ele>1845</ele>
        <time>2021-12-21T09:30:46Z</time>
      </trkpt>
      <trkpt lat="44.80117" lon="6.72782">
        <ele>1845</ele>
        <time>2021-12-21T09:30:51Z</time>
      </trkpt>
      <trkpt lat="44.8012" lon="6.72785">
        <ele>1845</ele>
        <time>2021-12-21T09:30:56Z</time>
      </trkpt>
      <trkpt lat="44.8012" lon="6.72789">
        <ele>1846</ele>
        <time>2021-12-21T09:31:07Z</time>
      </trkpt>
      <trkpt lat="44.80123" lon="6.7279">
        <ele>1848</ele>
        <time>2021-12-21T09:31:12Z</time>
      </trkpt>
      <trkpt lat="44.80125" lon="6.72792">
        <ele>1850</ele>
        <time>2021-12-21T09:31:20Z</time>
      </trkpt>
      <trkpt lat="44.80126" lon="6.72797">
        <ele>1852</ele>
        <time>2021-12-21T09:31:27Z</time>
      </trkpt>
      <trkpt lat="44.80141" lon="6.72816">
        <ele>1881</ele>
        <time>2021-12-21T09:33:15Z</time>
      </trkpt>
      <trkpt lat="44.80145" lon="6.72818">
        <ele>1881</ele>
        <time>2021-12-21T09:33:18Z</time>
      </trkpt>
      <trkpt lat="44.80148" lon="6.72821">
        <ele>1881</ele>
        <time>2021-12-21T09:33:21Z</time>
      </trkpt>
      <trkpt lat="44.80149" lon="6.72824">
        <ele>1880</ele>
        <time>2021-12-21T09:33:25Z</time>
      </trkpt>
      <trkpt lat="44.80151" lon="6.72827">
        <ele>1880</ele>
        <time>2021-12-21T09:33:30Z</time>
      </trkpt>
      <trkpt lat="44.80152" lon="6.7283">
        <ele>1878</ele>
        <time>2021-12-21T09:33:38Z</time>
      </trkpt>
      <trkpt lat="44.80157" lon="6.72833">
        <ele>1874</ele>
        <time>2021-12-21T09:33:45Z</time>
      </trkpt>
      <trkpt lat="44.80159" lon="6.72835">
        <ele>1873</ele>
        <time>2021-12-21T09:33:50Z</time>
      </trkpt>
      <trkpt lat="44.80162" lon="6.72838">
        <ele>1869</ele>
        <time>2021-12-21T09:33:55Z</time>
      </trkpt>
      <trkpt lat="44.80166" lon="6.72839">
        <ele>1868</ele>
        <time>2021-12-21T09:33:58Z</time>
      </trkpt>
      <trkpt lat="44.80167" lon="6.72842">
        <ele>1864</ele>
        <time>2021-12-21T09:34:05Z</time>
      </trkpt>
      <trkpt lat="44.8017" lon="6.72844">
        <ele>1863</ele>
        <time>2021-12-21T09:34:12Z</time>
      </trkpt>
      <trkpt lat="44.80176" lon="6.72846">
        <ele>1859</ele>
        <time>2021-12-21T09:34:20Z</time>
      </trkpt>
      <trkpt lat="44.80177" lon="6.72849">
        <ele>1858</ele>
        <time>2021-12-21T09:34:27Z</time>
      </trkpt>
      <trkpt lat="44.80179" lon="6.7285">
        <ele>1858</ele>
        <time>2021-12-21T09:34:31Z</time>
      </trkpt>
      <trkpt lat="44.80182" lon="6.72851">
        <ele>1858</ele>
        <time>2021-12-21T09:34:34Z</time>
      </trkpt>
      <trkpt lat="44.80185" lon="6.72851">
        <ele>1858</ele>
        <time>2021-12-21T09:34:38Z</time>
      </trkpt>
      <trkpt lat="44.80187" lon="6.7285">
        <ele>1860</ele>
        <time>2021-12-21T09:34:47Z</time>
      </trkpt>
      <trkpt lat="44.80189" lon="6.72851">
        <ele>1862</ele>
        <time>2021-12-21T09:34:57Z</time>
      </trkpt>
      <trkpt lat="44.80191" lon="6.72852">
        <ele>1863</ele>
        <time>2021-12-21T09:35:02Z</time>
      </trkpt>
      <trkpt lat="44.80193" lon="6.72854">
        <ele>1864</ele>
        <time>2021-12-21T09:35:10Z</time>
      </trkpt>
      <trkpt lat="44.80198" lon="6.72854">
        <ele>1867</ele>
        <time>2021-12-21T09:35:20Z</time>
      </trkpt>
      <trkpt lat="44.802" lon="6.72856">
        <ele>1870</ele>
        <time>2021-12-21T09:35:30Z</time>
      </trkpt>
      <trkpt lat="44.80203" lon="6.72854">
        <ele>1870</ele>
        <time>2021-12-21T09:35:33Z</time>
      </trkpt>
      <trkpt lat="44.80204" lon="6.72853">
        <ele>1872</ele>
        <time>2021-12-21T09:35:36Z</time>
      </trkpt>
      <trkpt lat="44.80207" lon="6.72853">
        <ele>1874</ele>
        <time>2021-12-21T09:35:42Z</time>
      </trkpt>
      <trkpt lat="44.80209" lon="6.72853">
        <ele>1877</ele>
        <time>2021-12-21T09:36:03Z</time>
      </trkpt>
      <trkpt lat="44.80206" lon="6.72852">
        <ele>1878</ele>
        <time>2021-12-21T09:36:12Z</time>
      </trkpt>
      <trkpt lat="44.80221" lon="6.72846">
        <ele>1882</ele>
        <time>2021-12-21T09:36:59Z</time>
      </trkpt>
      <trkpt lat="44.80224" lon="6.72844">
        <ele>1883</ele>
        <time>2021-12-21T09:37:21Z</time>
      </trkpt>
      <trkpt lat="44.80229" lon="6.72845">
        <ele>1884</ele>
        <time>2021-12-21T09:37:30Z</time>
      </trkpt>
      <trkpt lat="44.80236" lon="6.72837">
        <ele>1886</ele>
        <time>2021-12-21T09:38:00Z</time>
      </trkpt>
      <trkpt lat="44.80242" lon="6.72832">
        <ele>1877</ele>
        <time>2021-12-21T09:38:47Z</time>
      </trkpt>
      <trkpt lat="44.80245" lon="6.72834">
        <ele>1877</ele>
        <time>2021-12-21T09:38:53Z</time>
      </trkpt>
      <trkpt lat="44.80251" lon="6.72835">
        <ele>1876</ele>
        <time>2021-12-21T09:39:10Z</time>
      </trkpt>
      <trkpt lat="44.80256" lon="6.72839">
        <ele>1876</ele>
        <time>2021-12-21T09:39:35Z</time>
      </trkpt>
      <trkpt lat="44.8026" lon="6.72845">
        <ele>1876</ele>
        <time>2021-12-21T09:39:45Z</time>
      </trkpt>
      <trkpt lat="44.80265" lon="6.72846">
        <ele>1876</ele>
        <time>2021-12-21T09:39:49Z</time>
      </trkpt>
      <trkpt lat="44.80278" lon="6.72855">
        <ele>1877</ele>
        <time>2021-12-21T09:40:05Z</time>
      </trkpt>
      <trkpt lat="44.80289" lon="6.72851">
        <ele>1878</ele>
        <time>2021-12-21T09:40:37Z</time>
      </trkpt>
      <trkpt lat="44.80294" lon="6.7285">
        <ele>1879</ele>
        <time>2021-12-21T09:40:53Z</time>
      </trkpt>
      <trkpt lat="44.80304" lon="6.72851">
        <ele>1878</ele>
        <time>2021-12-21T09:41:10Z</time>
      </trkpt>
      <trkpt lat="44.80315" lon="6.72856">
        <ele>1879</ele>
        <time>2021-12-21T09:41:29Z</time>
      </trkpt>
      <trkpt lat="44.80321" lon="6.7285">
        <ele>1880</ele>
        <time>2021-12-21T09:42:02Z</time>
      </trkpt>
      <trkpt lat="44.80319" lon="6.72848">
        <ele>1881</ele>
        <time>2021-12-21T09:42:12Z</time>
      </trkpt>
      <trkpt lat="44.80324" lon="6.72845">
        <ele>1882</ele>
        <time>2021-12-21T09:42:47Z</time>
      </trkpt>
      <trkpt lat="44.80337" lon="6.72846">
        <ele>1883</ele>
        <time>2021-12-21T09:43:24Z</time>
      </trkpt>
      <trkpt lat="44.80341" lon="6.72847">
        <ele>1883</ele>
        <time>2021-12-21T09:43:27Z</time>
      </trkpt>
      <trkpt lat="44.80345" lon="6.72847">
        <ele>1884</ele>
        <time>2021-12-21T09:43:31Z</time>
      </trkpt>
      <trkpt lat="44.80357" lon="6.72852">
        <ele>1886</ele>
        <time>2021-12-21T09:43:44Z</time>
      </trkpt>
      <trkpt lat="44.80361" lon="6.72853">
        <ele>1887</ele>
        <time>2021-12-21T09:43:45Z</time>
      </trkpt>
      <trkpt lat="44.80363" lon="6.72854">
        <ele>1889</ele>
        <time>2021-12-21T09:43:50Z</time>
      </trkpt>
      <trkpt lat="44.80367" lon="6.72854">
        <ele>1890</ele>
        <time>2021-12-21T09:43:59Z</time>
      </trkpt>
      <trkpt lat="44.80373" lon="6.7286">
        <ele>1892</ele>
        <time>2021-12-21T09:44:44Z</time>
      </trkpt>
      <trkpt lat="44.80375" lon="6.72861">
        <ele>1893</ele>
        <time>2021-12-21T09:45:05Z</time>
      </trkpt>
      <trkpt lat="44.80379" lon="6.72873">
        <ele>1894</ele>
        <time>2021-12-21T09:45:36Z</time>
      </trkpt>
      <trkpt lat="44.80382" lon="6.72879">
        <ele>1894</ele>
        <time>2021-12-21T09:45:46Z</time>
      </trkpt>
      <trkpt lat="44.80383" lon="6.72883">
        <ele>1895</ele>
        <time>2021-12-21T09:45:55Z</time>
      </trkpt>
      <trkpt lat="44.80387" lon="6.72885">
        <ele>1895</ele>
        <time>2021-12-21T09:46:07Z</time>
      </trkpt>
      <trkpt lat="44.80391" lon="6.72899">
        <ele>1895</ele>
        <time>2021-12-21T09:46:31Z</time>
      </trkpt>
      <trkpt lat="44.80393" lon="6.72902">
        <ele>1895</ele>
        <time>2021-12-21T09:46:34Z</time>
      </trkpt>
      <trkpt lat="44.80398" lon="6.72912">
        <ele>1895</ele>
        <time>2021-12-21T09:46:44Z</time>
      </trkpt>
      <trkpt lat="44.804" lon="6.72914">
        <ele>1896</ele>
        <time>2021-12-21T09:46:54Z</time>
      </trkpt>
      <trkpt lat="44.80408" lon="6.72922">
        <ele>1896</ele>
        <time>2021-12-21T09:47:51Z</time>
      </trkpt>
      <trkpt lat="44.80414" lon="6.72925">
        <ele>1897</ele>
        <time>2021-12-21T09:48:12Z</time>
      </trkpt>
      <trkpt lat="44.80417" lon="6.72925">
        <ele>1897</ele>
        <time>2021-12-21T09:48:14Z</time>
      </trkpt>
      <trkpt lat="44.80418" lon="6.7292">
        <ele>1898</ele>
        <time>2021-12-21T09:48:19Z</time>
      </trkpt>
      <trkpt lat="44.80419" lon="6.72919">
        <ele>1901</ele>
        <time>2021-12-21T09:48:51Z</time>
      </trkpt>
      <trkpt lat="44.8042" lon="6.72931">
        <ele>1904</ele>
        <time>2021-12-21T09:49:30Z</time>
      </trkpt>
      <trkpt lat="44.80423" lon="6.72936">
        <ele>1905</ele>
        <time>2021-12-21T09:49:55Z</time>
      </trkpt>
      <trkpt lat="44.80428" lon="6.72945">
        <ele>1906</ele>
        <time>2021-12-21T09:50:51Z</time>
      </trkpt>
      <trkpt lat="44.80434" lon="6.72952">
        <ele>1906</ele>
        <time>2021-12-21T09:51:12Z</time>
      </trkpt>
      <trkpt lat="44.8044" lon="6.72963">
        <ele>1906</ele>
        <time>2021-12-21T09:51:34Z</time>
      </trkpt>
      <trkpt lat="44.80441" lon="6.72967">
        <ele>1906</ele>
        <time>2021-12-21T09:51:48Z</time>
      </trkpt>
      <trkpt lat="44.80441" lon="6.72973">
        <ele>1906</ele>
        <time>2021-12-21T09:52:00Z</time>
      </trkpt>
      <trkpt lat="44.80444" lon="6.72977">
        <ele>1906</ele>
        <time>2021-12-21T09:52:06Z</time>
      </trkpt>
      <trkpt lat="44.80449" lon="6.72981">
        <ele>1906</ele>
        <time>2021-12-21T09:52:15Z</time>
      </trkpt>
      <trkpt lat="44.80452" lon="6.72992">
        <ele>1906</ele>
        <time>2021-12-21T09:52:28Z</time>
      </trkpt>
      <trkpt lat="44.80461" lon="6.73004">
        <ele>1906</ele>
        <time>2021-12-21T09:52:42Z</time>
      </trkpt>
      <trkpt lat="44.80466" lon="6.73014">
        <ele>1906</ele>
        <time>2021-12-21T09:52:55Z</time>
      </trkpt>
      <trkpt lat="44.80476" lon="6.73026">
        <ele>1907</ele>
        <time>2021-12-21T09:53:05Z</time>
      </trkpt>
      <trkpt lat="44.80489" lon="6.73037">
        <ele>1907</ele>
        <time>2021-12-21T09:53:38Z</time>
      </trkpt>
      <trkpt lat="44.80493" lon="6.7304">
        <ele>1907</ele>
        <time>2021-12-21T09:53:41Z</time>
      </trkpt>
      <trkpt lat="44.80497" lon="6.73041">
        <ele>1907</ele>
        <time>2021-12-21T09:53:44Z</time>
      </trkpt>
      <trkpt lat="44.80504" lon="6.73048">
        <ele>1907</ele>
        <time>2021-12-21T09:53:51Z</time>
      </trkpt>
      <trkpt lat="44.80511" lon="6.73056">
        <ele>1907</ele>
        <time>2021-12-21T09:54:00Z</time>
      </trkpt>
      <trkpt lat="44.80514" lon="6.73061">
        <ele>1907</ele>
        <time>2021-12-21T09:54:05Z</time>
      </trkpt>
      <trkpt lat="44.8052" lon="6.73071">
        <ele>1906</ele>
        <time>2021-12-21T09:54:31Z</time>
      </trkpt>
      <trkpt lat="44.80519" lon="6.73087">
        <ele>1905</ele>
        <time>2021-12-21T09:54:45Z</time>
      </trkpt>
      <trkpt lat="44.80526" lon="6.73095">
        <ele>1905</ele>
        <time>2021-12-21T09:54:52Z</time>
      </trkpt>
      <trkpt lat="44.80529" lon="6.73099">
        <ele>1905</ele>
        <time>2021-12-21T09:54:56Z</time>
      </trkpt>
      <trkpt lat="44.80544" lon="6.7311">
        <ele>1905</ele>
        <time>2021-12-21T09:55:09Z</time>
      </trkpt>
      <trkpt lat="44.80553" lon="6.73117">
        <ele>1905</ele>
        <time>2021-12-21T09:55:17Z</time>
      </trkpt>
      <trkpt lat="44.80564" lon="6.73122">
        <ele>1906</ele>
        <time>2021-12-21T09:55:34Z</time>
      </trkpt>
      <trkpt lat="44.80567" lon="6.73126">
        <ele>1906</ele>
        <time>2021-12-21T09:55:40Z</time>
      </trkpt>
      <trkpt lat="44.80565" lon="6.73131">
        <ele>1907</ele>
        <time>2021-12-21T09:55:46Z</time>
      </trkpt>
      <trkpt lat="44.80568" lon="6.73139">
        <ele>1908</ele>
        <time>2021-12-21T09:55:56Z</time>
      </trkpt>
      <trkpt lat="44.80568" lon="6.73148">
        <ele>1908</ele>
        <time>2021-12-21T09:56:04Z</time>
      </trkpt>
      <trkpt lat="44.80564" lon="6.73154">
        <ele>1908</ele>
        <time>2021-12-21T09:56:22Z</time>
      </trkpt>
      <trkpt lat="44.80564" lon="6.7316">
        <ele>1906</ele>
        <time>2021-12-21T09:56:32Z</time>
      </trkpt>
      <trkpt lat="44.80568" lon="6.73164">
        <ele>1905</ele>
        <time>2021-12-21T09:56:38Z</time>
      </trkpt>
      <trkpt lat="44.80568" lon="6.7317">
        <ele>1904</ele>
        <time>2021-12-21T09:56:50Z</time>
      </trkpt>
      <trkpt lat="44.80568" lon="6.73173">
        <ele>1904</ele>
        <time>2021-12-21T09:56:57Z</time>
      </trkpt>
      <trkpt lat="44.80565" lon="6.73175">
        <ele>1904</ele>
        <time>2021-12-21T09:57:02Z</time>
      </trkpt>
      <trkpt lat="44.80568" lon="6.7318">
        <ele>1903</ele>
        <time>2021-12-21T09:57:10Z</time>
      </trkpt>
      <trkpt lat="44.80575" lon="6.73185">
        <ele>1899</ele>
        <time>2021-12-21T09:57:18Z</time>
      </trkpt>
      <trkpt lat="44.80577" lon="6.7319">
        <ele>1895</ele>
        <time>2021-12-21T09:57:27Z</time>
      </trkpt>
      <trkpt lat="44.80578" lon="6.7319">
        <ele>1895</ele>
        <time>2021-12-21T09:57:30Z</time>
      </trkpt>
      <trkpt lat="44.80581" lon="6.73191">
        <ele>1894</ele>
        <time>2021-12-21T09:57:38Z</time>
      </trkpt>
      <trkpt lat="44.80585" lon="6.73191">
        <ele>1894</ele>
        <time>2021-12-21T09:57:50Z</time>
      </trkpt>
      <trkpt lat="44.80583" lon="6.73193">
        <ele>1894</ele>
        <time>2021-12-21T09:58:00Z</time>
      </trkpt>
      <trkpt lat="44.80582" lon="6.73192">
        <ele>1894</ele>
        <time>2021-12-21T09:58:24Z</time>
      </trkpt>
      <trkpt lat="44.8058" lon="6.73192">
        <ele>1894</ele>
        <time>2021-12-21T09:58:41Z</time>
      </trkpt>
      <trkpt lat="44.80588" lon="6.73198">
        <ele>1894</ele>
        <time>2021-12-21T09:58:59Z</time>
      </trkpt>
      <trkpt lat="44.8059" lon="6.73195">
        <ele>1895</ele>
        <time>2021-12-21T09:59:34Z</time>
      </trkpt>
      <trkpt lat="44.80607" lon="6.73199">
        <ele>1896</ele>
        <time>2021-12-21T10:00:04Z</time>
      </trkpt>
      <trkpt lat="44.80597" lon="6.73195">
        <ele>1896</ele>
        <time>2021-12-21T10:00:37Z</time>
      </trkpt>
      <trkpt lat="44.80709" lon="6.73214">
        <ele>1929</ele>
        <time>2021-12-21T10:14:14Z</time>
      </trkpt>
      <trkpt lat="44.80713" lon="6.73213">
        <ele>1929</ele>
        <time>2021-12-21T10:14:24Z</time>
      </trkpt>
      <trkpt lat="44.80726" lon="6.73218">
        <ele>1930</ele>
        <time>2021-12-21T10:14:36Z</time>
      </trkpt>
      <trkpt lat="44.80735" lon="6.73225">
        <ele>1931</ele>
        <time>2021-12-21T10:14:49Z</time>
      </trkpt>
      <trkpt lat="44.80743" lon="6.73232">
        <ele>1932</ele>
        <time>2021-12-21T10:15:01Z</time>
      </trkpt>
      <trkpt lat="44.80748" lon="6.73234">
        <ele>1932</ele>
        <time>2021-12-21T10:15:07Z</time>
      </trkpt>
      <trkpt lat="44.80751" lon="6.73239">
        <ele>1933</ele>
        <time>2021-12-21T10:15:15Z</time>
      </trkpt>
      <trkpt lat="44.80754" lon="6.73243">
        <ele>1933</ele>
        <time>2021-12-21T10:15:24Z</time>
      </trkpt>
      <trkpt lat="44.80759" lon="6.73245">
        <ele>1935</ele>
        <time>2021-12-21T10:15:32Z</time>
      </trkpt>
      <trkpt lat="44.80755" lon="6.73249">
        <ele>1936</ele>
        <time>2021-12-21T10:15:48Z</time>
      </trkpt>
      <trkpt lat="44.80765" lon="6.73251">
        <ele>1937</ele>
        <time>2021-12-21T10:16:21Z</time>
      </trkpt>
      <trkpt lat="44.80782" lon="6.73253">
        <ele>1937</ele>
        <time>2021-12-21T10:16:40Z</time>
      </trkpt>
      <trkpt lat="44.80791" lon="6.73249">
        <ele>1937</ele>
        <time>2021-12-21T10:16:51Z</time>
      </trkpt>
      <trkpt lat="44.80805" lon="6.73255">
        <ele>1937</ele>
        <time>2021-12-21T10:16:56Z</time>
      </trkpt>
      <trkpt lat="44.80819" lon="6.73263">
        <ele>1938</ele>
        <time>2021-12-21T10:17:15Z</time>
      </trkpt>
      <trkpt lat="44.80824" lon="6.73253">
        <ele>1938</ele>
        <time>2021-12-21T10:17:32Z</time>
      </trkpt>
      <trkpt lat="44.80851" lon="6.73237">
        <ele>2004</ele>
        <time>2021-12-21T10:33:19Z</time>
      </trkpt>
      <trkpt lat="44.80854" lon="6.73239">
        <ele>2005</ele>
        <time>2021-12-21T10:33:23Z</time>
      </trkpt>
      <trkpt lat="44.80857" lon="6.73238">
        <ele>2005</ele>
        <time>2021-12-21T10:33:26Z</time>
      </trkpt>
      <trkpt lat="44.80858" lon="6.73236">
        <ele>2005</ele>
        <time>2021-12-21T10:33:33Z</time>
      </trkpt>
      <trkpt lat="44.80862" lon="6.73238">
        <ele>2005</ele>
        <time>2021-12-21T10:33:46Z</time>
      </trkpt>
      <trkpt lat="44.80866" lon="6.7324">
        <ele>2005</ele>
        <time>2021-12-21T10:33:53Z</time>
      </trkpt>
      <trkpt lat="44.80869" lon="6.73241">
        <ele>2005</ele>
        <time>2021-12-21T10:33:58Z</time>
      </trkpt>
      <trkpt lat="44.80875" lon="6.73248">
        <ele>2006</ele>
        <time>2021-12-21T10:34:12Z</time>
      </trkpt>
      <trkpt lat="44.80875" lon="6.73249">
        <ele>2007</ele>
        <time>2021-12-21T10:34:28Z</time>
      </trkpt>
      <trkpt lat="44.80878" lon="6.73248">
        <ele>2007</ele>
        <time>2021-12-21T10:34:35Z</time>
      </trkpt>
      <trkpt lat="44.80881" lon="6.73249">
        <ele>2007</ele>
        <time>2021-12-21T10:34:42Z</time>
      </trkpt>
      <trkpt lat="44.8089" lon="6.73256">
        <ele>2008</ele>
        <time>2021-12-21T10:35:00Z</time>
      </trkpt>
      <trkpt lat="44.809" lon="6.73259">
        <ele>2009</ele>
        <time>2021-12-21T10:35:15Z</time>
      </trkpt>
      <trkpt lat="44.80903" lon="6.73257">
        <ele>2004</ele>
        <time>2021-12-21T10:35:31Z</time>
      </trkpt>
      <trkpt lat="44.80908" lon="6.73259">
        <ele>1996</ele>
        <time>2021-12-21T10:35:42Z</time>
      </trkpt>
      <trkpt lat="44.80908" lon="6.73262">
        <ele>1995</ele>
        <time>2021-12-21T10:36:04Z</time>
      </trkpt>
      <trkpt lat="44.80911" lon="6.73263">
        <ele>1993</ele>
        <time>2021-12-21T10:36:20Z</time>
      </trkpt>
      <trkpt lat="44.80911" lon="6.73266">
        <ele>1992</ele>
        <time>2021-12-21T10:36:23Z</time>
      </trkpt>
      <trkpt lat="44.80916" lon="6.73265">
        <ele>1985</ele>
        <time>2021-12-21T10:36:59Z</time>
      </trkpt>
      <trkpt lat="44.80921" lon="6.73271">
        <ele>1985</ele>
        <time>2021-12-21T10:37:18Z</time>
      </trkpt>
      <trkpt lat="44.8093" lon="6.73274">
        <ele>1986</ele>
        <time>2021-12-21T10:37:47Z</time>
      </trkpt>
      <trkpt lat="44.80936" lon="6.73276">
        <ele>1986</ele>
        <time>2021-12-21T10:37:53Z</time>
      </trkpt>
      <trkpt lat="44.80941" lon="6.73278">
        <ele>1986</ele>
        <time>2021-12-21T10:37:59Z</time>
      </trkpt>
      <trkpt lat="44.80945" lon="6.73279">
        <ele>1985</ele>
        <time>2021-12-21T10:38:03Z</time>
      </trkpt>
      <trkpt lat="44.80948" lon="6.7328">
        <ele>1985</ele>
        <time>2021-12-21T10:38:06Z</time>
      </trkpt>
      <trkpt lat="44.80951" lon="6.73283">
        <ele>1985</ele>
        <time>2021-12-21T10:38:14Z</time>
      </trkpt>
      <trkpt lat="44.80953" lon="6.73289">
        <ele>1985</ele>
        <time>2021-12-21T10:38:19Z</time>
      </trkpt>
      <trkpt lat="44.80954" lon="6.73294">
        <ele>1985</ele>
        <time>2021-12-21T10:38:23Z</time>
      </trkpt>
      <trkpt lat="44.8096" lon="6.73304">
        <ele>1986</ele>
        <time>2021-12-21T10:38:41Z</time>
      </trkpt>
      <trkpt lat="44.80963" lon="6.73305">
        <ele>1987</ele>
        <time>2021-12-21T10:38:47Z</time>
      </trkpt>
      <trkpt lat="44.80964" lon="6.73305">
        <ele>1989</ele>
        <time>2021-12-21T10:38:57Z</time>
      </trkpt>
      <trkpt lat="44.80966" lon="6.73309">
        <ele>1989</ele>
        <time>2021-12-21T10:39:02Z</time>
      </trkpt>
      <trkpt lat="44.80968" lon="6.73313">
        <ele>1989</ele>
        <time>2021-12-21T10:39:06Z</time>
      </trkpt>
      <trkpt lat="44.80968" lon="6.73318">
        <ele>1991</ele>
        <time>2021-12-21T10:39:19Z</time>
      </trkpt>
      <trkpt lat="44.80967" lon="6.73323">
        <ele>1991</ele>
        <time>2021-12-21T10:39:22Z</time>
      </trkpt>
      <trkpt lat="44.80968" lon="6.73327">
        <ele>1992</ele>
        <time>2021-12-21T10:39:26Z</time>
      </trkpt>
      <trkpt lat="44.80967" lon="6.73332">
        <ele>1992</ele>
        <time>2021-12-21T10:39:40Z</time>
      </trkpt>
      <trkpt lat="44.80967" lon="6.73339">
        <ele>1992</ele>
        <time>2021-12-21T10:39:47Z</time>
      </trkpt>
      <trkpt lat="44.80968" lon="6.73341">
        <ele>1992</ele>
        <time>2021-12-21T10:40:00Z</time>
      </trkpt>
      <trkpt lat="44.80971" lon="6.73347">
        <ele>1992</ele>
        <time>2021-12-21T10:40:09Z</time>
      </trkpt>
      <trkpt lat="44.8097" lon="6.73351">
        <ele>1992</ele>
        <time>2021-12-21T10:40:25Z</time>
      </trkpt>
      <trkpt lat="44.80973" lon="6.73349">
        <ele>1992</ele>
        <time>2021-12-21T10:40:36Z</time>
      </trkpt>
      <trkpt lat="44.80978" lon="6.73348">
        <ele>1991</ele>
        <time>2021-12-21T10:40:46Z</time>
      </trkpt>
      <trkpt lat="44.80983" lon="6.73347">
        <ele>1991</ele>
        <time>2021-12-21T10:40:51Z</time>
      </trkpt>
      <trkpt lat="44.80987" lon="6.73346">
        <ele>1991</ele>
        <time>2021-12-21T10:40:55Z</time>
      </trkpt>
      <trkpt lat="44.80995" lon="6.73349">
        <ele>1991</ele>
        <time>2021-12-21T10:41:12Z</time>
      </trkpt>
      <trkpt lat="44.80996" lon="6.7335">
        <ele>1992</ele>
        <time>2021-12-21T10:41:17Z</time>
      </trkpt>
      <trkpt lat="44.81006" lon="6.73354">
        <ele>1991</ele>
        <time>2021-12-21T10:41:59Z</time>
      </trkpt>
      <trkpt lat="44.81015" lon="6.73356">
        <ele>1991</ele>
        <time>2021-12-21T10:42:42Z</time>
      </trkpt>
      <trkpt lat="44.8102" lon="6.73357">
        <ele>1991</ele>
        <time>2021-12-21T10:42:54Z</time>
      </trkpt>
      <trkpt lat="44.81021" lon="6.73355">
        <ele>1992</ele>
        <time>2021-12-21T10:43:11Z</time>
      </trkpt>
      <trkpt lat="44.81023" lon="6.73359">
        <ele>1992</ele>
        <time>2021-12-21T10:43:14Z</time>
      </trkpt>
      <trkpt lat="44.81026" lon="6.73358">
        <ele>1991</ele>
        <time>2021-12-21T10:43:39Z</time>
      </trkpt>
      <trkpt lat="44.81032" lon="6.73354">
        <ele>1992</ele>
        <time>2021-12-21T10:44:08Z</time>
      </trkpt>
      <trkpt lat="44.81035" lon="6.73356">
        <ele>1993</ele>
        <time>2021-12-21T10:44:14Z</time>
      </trkpt>
      <trkpt lat="44.81038" lon="6.73357">
        <ele>1993</ele>
        <time>2021-12-21T10:44:31Z</time>
      </trkpt>
      <trkpt lat="44.81047" lon="6.73362">
        <ele>1993</ele>
        <time>2021-12-21T10:45:00Z</time>
      </trkpt>
      <trkpt lat="44.8105" lon="6.73363">
        <ele>1992</ele>
        <time>2021-12-21T10:45:08Z</time>
      </trkpt>
      <trkpt lat="44.8106" lon="6.73358">
        <ele>1992</ele>
        <time>2021-12-21T10:45:22Z</time>
      </trkpt>
      <trkpt lat="44.81063" lon="6.73359">
        <ele>1993</ele>
        <time>2021-12-21T10:45:28Z</time>
      </trkpt>
      <trkpt lat="44.81062" lon="6.73358">
        <ele>1993</ele>
        <time>2021-12-21T10:45:46Z</time>
      </trkpt>
      <trkpt lat="44.81071" lon="6.73365">
        <ele>1993</ele>
        <time>2021-12-21T10:46:06Z</time>
      </trkpt>
      <trkpt lat="44.81068" lon="6.73363">
        <ele>1993</ele>
        <time>2021-12-21T10:46:19Z</time>
      </trkpt>
      <trkpt lat="44.81064" lon="6.73364">
        <ele>1993</ele>
        <time>2021-12-21T10:46:20Z</time>
      </trkpt>
      <trkpt lat="44.81062" lon="6.73361">
        <ele>1992</ele>
        <time>2021-12-21T10:46:25Z</time>
      </trkpt>
      <trkpt lat="44.81058" lon="6.73362">
        <ele>1988</ele>
        <time>2021-12-21T10:46:27Z</time>
      </trkpt>
      <trkpt lat="44.81055" lon="6.73364">
        <ele>1987</ele>
        <time>2021-12-21T10:46:29Z</time>
      </trkpt>
      <trkpt lat="44.8105" lon="6.73365">
        <ele>1985</ele>
        <time>2021-12-21T10:46:32Z</time>
      </trkpt>
      <trkpt lat="44.81048" lon="6.73366">
        <ele>1984</ele>
        <time>2021-12-21T10:46:36Z</time>
      </trkpt>
      <trkpt lat="44.81051" lon="6.73367">
        <ele>1985</ele>
        <time>2021-12-21T10:46:41Z</time>
      </trkpt>
      <trkpt lat="44.81055" lon="6.73368">
        <ele>1990</ele>
        <time>2021-12-21T10:46:50Z</time>
      </trkpt>
      <trkpt lat="44.81057" lon="6.73373">
        <ele>1996</ele>
        <time>2021-12-21T10:47:13Z</time>
      </trkpt>
      <trkpt lat="44.81071" lon="6.73372">
        <ele>1998</ele>
        <time>2021-12-21T10:47:18Z</time>
      </trkpt>
      <trkpt lat="44.81072" lon="6.73372">
        <ele>1999</ele>
        <time>2021-12-21T10:47:24Z</time>
      </trkpt>
      <trkpt lat="44.81071" lon="6.73376">
        <ele>1999</ele>
        <time>2021-12-21T10:48:16Z</time>
      </trkpt>
      <trkpt lat="44.81088" lon="6.73367">
        <ele>1999</ele>
        <time>2021-12-21T10:48:37Z</time>
      </trkpt>
      <trkpt lat="44.81091" lon="6.73366">
        <ele>1999</ele>
        <time>2021-12-21T10:48:46Z</time>
      </trkpt>
      <trkpt lat="44.81096" lon="6.73365">
        <ele>1999</ele>
        <time>2021-12-21T10:49:35Z</time>
      </trkpt>
      <trkpt lat="44.811" lon="6.73365">
        <ele>1999</ele>
        <time>2021-12-21T10:49:43Z</time>
      </trkpt>
      <trkpt lat="44.81098" lon="6.7337">
        <ele>1999</ele>
        <time>2021-12-21T10:50:24Z</time>
      </trkpt>
      <trkpt lat="44.81097" lon="6.73372">
        <ele>2000</ele>
        <time>2021-12-21T10:50:32Z</time>
      </trkpt>
      <trkpt lat="44.81094" lon="6.73372">
        <ele>2001</ele>
        <time>2021-12-21T10:52:24Z</time>
      </trkpt>
      <trkpt lat="44.81094" lon="6.73372">
        <ele>2001</ele>
        <time>2021-12-21T10:52:33Z</time>
      </trkpt>
      <trkpt lat="44.81104" lon="6.73365">
        <ele>2003</ele>
        <time>2021-12-21T10:52:38Z</time>
      </trkpt>
      <trkpt lat="44.81109" lon="6.7336">
        <ele>2005</ele>
        <time>2021-12-21T10:52:42Z</time>
      </trkpt>
      <trkpt lat="44.81113" lon="6.73359">
        <ele>2009</ele>
        <time>2021-12-21T10:52:44Z</time>
      </trkpt>
      <trkpt lat="44.81117" lon="6.73358">
        <ele>2010</ele>
        <time>2021-12-21T10:52:47Z</time>
      </trkpt>
      <trkpt lat="44.81121" lon="6.73356">
        <ele>2013</ele>
        <time>2021-12-21T10:52:50Z</time>
      </trkpt>
      <trkpt lat="44.81125" lon="6.73354">
        <ele>2016</ele>
        <time>2021-12-21T10:52:54Z</time>
      </trkpt>
      <trkpt lat="44.8113" lon="6.73354">
        <ele>2017</ele>
        <time>2021-12-21T10:52:56Z</time>
      </trkpt>
      <trkpt lat="44.81133" lon="6.73354">
        <ele>2020</ele>
        <time>2021-12-21T10:53:00Z</time>
      </trkpt>
      <trkpt lat="44.81137" lon="6.73354">
        <ele>2021</ele>
        <time>2021-12-21T10:53:03Z</time>
      </trkpt>
      <trkpt lat="44.81141" lon="6.73355">
        <ele>2023</ele>
        <time>2021-12-21T10:53:06Z</time>
      </trkpt>
      <trkpt lat="44.81142" lon="6.73352">
        <ele>2024</ele>
        <time>2021-12-21T10:53:14Z</time>
      </trkpt>
      <trkpt lat="44.81146" lon="6.73352">
        <ele>2025</ele>
        <time>2021-12-21T10:53:23Z</time>
      </trkpt>
      <trkpt lat="44.81149" lon="6.73352">
        <ele>2025</ele>
        <time>2021-12-21T10:53:28Z</time>
      </trkpt>
      <trkpt lat="44.81153" lon="6.73354">
        <ele>2026</ele>
        <time>2021-12-21T10:53:42Z</time>
      </trkpt>
      <trkpt lat="44.81154" lon="6.73352">
        <ele>2025</ele>
        <time>2021-12-21T10:53:58Z</time>
      </trkpt>
      <trkpt lat="44.81157" lon="6.73352">
        <ele>2025</ele>
        <time>2021-12-21T10:54:03Z</time>
      </trkpt>
      <trkpt lat="44.8116" lon="6.73351">
        <ele>2025</ele>
        <time>2021-12-21T10:54:16Z</time>
      </trkpt>
      <trkpt lat="44.81163" lon="6.73349">
        <ele>2025</ele>
        <time>2021-12-21T10:54:19Z</time>
      </trkpt>
      <trkpt lat="44.81172" lon="6.73343">
        <ele>2026</ele>
        <time>2021-12-21T10:54:45Z</time>
      </trkpt>
      <trkpt lat="44.81175" lon="6.73343">
        <ele>2026</ele>
        <time>2021-12-21T10:54:49Z</time>
      </trkpt>
      <trkpt lat="44.81188" lon="6.73346">
        <ele>2027</ele>
        <time>2021-12-21T10:54:56Z</time>
      </trkpt>
      <trkpt lat="44.81189" lon="6.73348">
        <ele>2028</ele>
        <time>2021-12-21T10:55:28Z</time>
      </trkpt>
      <trkpt lat="44.8119" lon="6.73343">
        <ele>2028</ele>
        <time>2021-12-21T10:55:39Z</time>
      </trkpt>
      <trkpt lat="44.81192" lon="6.7334">
        <ele>2029</ele>
        <time>2021-12-21T10:55:44Z</time>
      </trkpt>
      <trkpt lat="44.81196" lon="6.73338">
        <ele>2030</ele>
        <time>2021-12-21T10:55:50Z</time>
      </trkpt>
      <trkpt lat="44.81207" lon="6.73339">
        <ele>2031</ele>
        <time>2021-12-21T10:56:01Z</time>
      </trkpt>
      <trkpt lat="44.81211" lon="6.7334">
        <ele>2031</ele>
        <time>2021-12-21T10:56:09Z</time>
      </trkpt>
      <trkpt lat="44.81215" lon="6.7334">
        <ele>2031</ele>
        <time>2021-12-21T10:56:14Z</time>
      </trkpt>
      <trkpt lat="44.81219" lon="6.73339">
        <ele>2031</ele>
        <time>2021-12-21T10:56:18Z</time>
      </trkpt>
      <trkpt lat="44.81223" lon="6.7334">
        <ele>2031</ele>
        <time>2021-12-21T10:56:20Z</time>
      </trkpt>
      <trkpt lat="44.81226" lon="6.7334">
        <ele>2031</ele>
        <time>2021-12-21T10:56:27Z</time>
      </trkpt>
      <trkpt lat="44.81234" lon="6.73343">
        <ele>2031</ele>
        <time>2021-12-21T10:56:35Z</time>
      </trkpt>
      <trkpt lat="44.81238" lon="6.73342">
        <ele>2032</ele>
        <time>2021-12-21T10:56:41Z</time>
      </trkpt>
      <trkpt lat="44.81241" lon="6.7334">
        <ele>2032</ele>
        <time>2021-12-21T10:56:47Z</time>
      </trkpt>
      <trkpt lat="44.81247" lon="6.73329">
        <ele>2032</ele>
        <time>2021-12-21T10:57:19Z</time>
      </trkpt>
      <trkpt lat="44.81247" lon="6.73324">
        <ele>2033</ele>
        <time>2021-12-21T10:57:22Z</time>
      </trkpt>
      <trkpt lat="44.81247" lon="6.73318">
        <ele>2033</ele>
        <time>2021-12-21T10:57:35Z</time>
      </trkpt>
      <trkpt lat="44.8125" lon="6.73314">
        <ele>2033</ele>
        <time>2021-12-21T10:57:46Z</time>
      </trkpt>
      <trkpt lat="44.81252" lon="6.73311">
        <ele>2033</ele>
        <time>2021-12-21T10:57:55Z</time>
      </trkpt>
      <trkpt lat="44.8125" lon="6.73307">
        <ele>2034</ele>
        <time>2021-12-21T10:58:03Z</time>
      </trkpt>
      <trkpt lat="44.81255" lon="6.73299">
        <ele>2034</ele>
        <time>2021-12-21T10:58:27Z</time>
      </trkpt>
      <trkpt lat="44.81259" lon="6.73298">
        <ele>2035</ele>
        <time>2021-12-21T10:58:33Z</time>
      </trkpt>
      <trkpt lat="44.8126" lon="6.73298">
        <ele>2035</ele>
        <time>2021-12-21T10:58:36Z</time>
      </trkpt>
      <trkpt lat="44.81268" lon="6.73293">
        <ele>2035</ele>
        <time>2021-12-21T10:59:23Z</time>
      </trkpt>
      <trkpt lat="44.81271" lon="6.73293">
        <ele>2036</ele>
        <time>2021-12-21T10:59:47Z</time>
      </trkpt>
      <trkpt lat="44.81285" lon="6.73308">
        <ele>2038</ele>
        <time>2021-12-21T11:01:22Z</time>
      </trkpt>
      <trkpt lat="44.81286" lon="6.73309">
        <ele>2038</ele>
        <time>2021-12-21T11:01:31Z</time>
      </trkpt>
      <trkpt lat="44.81291" lon="6.73309">
        <ele>2038</ele>
        <time>2021-12-21T11:01:52Z</time>
      </trkpt>
      <trkpt lat="44.81292" lon="6.73308">
        <ele>2038</ele>
        <time>2021-12-21T11:02:54Z</time>
      </trkpt>
      <trkpt lat="44.81294" lon="6.7331">
        <ele>2038</ele>
        <time>2021-12-21T11:03:03Z</time>
      </trkpt>
      <trkpt lat="44.81295" lon="6.73315">
        <ele>2038</ele>
        <time>2021-12-21T11:03:10Z</time>
      </trkpt>
      <trkpt lat="44.81296" lon="6.73316">
        <ele>2038</ele>
        <time>2021-12-21T11:03:18Z</time>
      </trkpt>
      <trkpt lat="44.81299" lon="6.73317">
        <ele>2038</ele>
        <time>2021-12-21T11:03:41Z</time>
      </trkpt>
      <trkpt lat="44.81318" lon="6.73322">
        <ele>2038</ele>
        <time>2021-12-21T11:04:18Z</time>
      </trkpt>
      <trkpt lat="44.81326" lon="6.7332">
        <ele>2038</ele>
        <time>2021-12-21T11:04:26Z</time>
      </trkpt>
      <trkpt lat="44.81335" lon="6.73319">
        <ele>2038</ele>
        <time>2021-12-21T11:05:04Z</time>
      </trkpt>
      <trkpt lat="44.81344" lon="6.73312">
        <ele>2038</ele>
        <time>2021-12-21T11:05:27Z</time>
      </trkpt>
      <trkpt lat="44.81354" lon="6.73309">
        <ele>2038</ele>
        <time>2021-12-21T11:06:02Z</time>
      </trkpt>
      <trkpt lat="44.81362" lon="6.73309">
        <ele>2037</ele>
        <time>2021-12-21T11:06:38Z</time>
      </trkpt>
      <trkpt lat="44.81364" lon="6.7331">
        <ele>2037</ele>
        <time>2021-12-21T11:06:44Z</time>
      </trkpt>
      <trkpt lat="44.8137" lon="6.73312">
        <ele>2037</ele>
        <time>2021-12-21T11:06:56Z</time>
      </trkpt>
      <trkpt lat="44.81376" lon="6.73312">
        <ele>2036</ele>
        <time>2021-12-21T11:07:07Z</time>
      </trkpt>
      <trkpt lat="44.81379" lon="6.7331">
        <ele>2036</ele>
        <time>2021-12-21T11:07:11Z</time>
      </trkpt>
      <trkpt lat="44.81382" lon="6.73309">
        <ele>2036</ele>
        <time>2021-12-21T11:07:19Z</time>
      </trkpt>
      <trkpt lat="44.81384" lon="6.73307">
        <ele>2036</ele>
        <time>2021-12-21T11:07:24Z</time>
      </trkpt>
      <trkpt lat="44.81387" lon="6.73307">
        <ele>2036</ele>
        <time>2021-12-21T11:07:30Z</time>
      </trkpt>
      <trkpt lat="44.81391" lon="6.73308">
        <ele>2035</ele>
        <time>2021-12-21T11:07:40Z</time>
      </trkpt>
      <trkpt lat="44.81394" lon="6.73307">
        <ele>2035</ele>
        <time>2021-12-21T11:07:43Z</time>
      </trkpt>
      <trkpt lat="44.81397" lon="6.73307">
        <ele>2034</ele>
        <time>2021-12-21T11:07:50Z</time>
      </trkpt>
      <trkpt lat="44.81402" lon="6.73307">
        <ele>2034</ele>
        <time>2021-12-21T11:08:01Z</time>
      </trkpt>
      <trkpt lat="44.81406" lon="6.73307">
        <ele>2034</ele>
        <time>2021-12-21T11:08:04Z</time>
      </trkpt>
      <trkpt lat="44.8142" lon="6.73301">
        <ele>2034</ele>
        <time>2021-12-21T11:08:13Z</time>
      </trkpt>
      <trkpt lat="44.81443" lon="6.73293">
        <ele>2035</ele>
        <time>2021-12-21T11:08:23Z</time>
      </trkpt>
      <trkpt lat="44.81447" lon="6.73292">
        <ele>2035</ele>
        <time>2021-12-21T11:08:25Z</time>
      </trkpt>
      <trkpt lat="44.8145" lon="6.73295">
        <ele>2036</ele>
        <time>2021-12-21T11:08:33Z</time>
      </trkpt>
      <trkpt lat="44.81453" lon="6.73305">
        <ele>2037</ele>
        <time>2021-12-21T11:08:41Z</time>
      </trkpt>
      <trkpt lat="44.81456" lon="6.73312">
        <ele>2038</ele>
        <time>2021-12-21T11:08:43Z</time>
      </trkpt>
      <trkpt lat="44.81461" lon="6.73317">
        <ele>2038</ele>
        <time>2021-12-21T11:08:45Z</time>
      </trkpt>
      <trkpt lat="44.8147" lon="6.73323">
        <ele>2040</ele>
        <time>2021-12-21T11:08:50Z</time>
      </trkpt>
      <trkpt lat="44.81472" lon="6.73328">
        <ele>2041</ele>
        <time>2021-12-21T11:08:53Z</time>
      </trkpt>
      <trkpt lat="44.81483" lon="6.73332">
        <ele>2042</ele>
        <time>2021-12-21T11:09:06Z</time>
      </trkpt>
      <trkpt lat="44.81487" lon="6.73331">
        <ele>2044</ele>
        <time>2021-12-21T11:09:17Z</time>
      </trkpt>
      <trkpt lat="44.81491" lon="6.73332">
        <ele>2045</ele>
        <time>2021-12-21T11:09:22Z</time>
      </trkpt>
      <trkpt lat="44.81494" lon="6.7333">
        <ele>2046</ele>
        <time>2021-12-21T11:09:25Z</time>
      </trkpt>
      <trkpt lat="44.81496" lon="6.73334">
        <ele>2047</ele>
        <time>2021-12-21T11:09:34Z</time>
      </trkpt>
      <trkpt lat="44.81502" lon="6.73328">
        <ele>2051</ele>
        <time>2021-12-21T11:09:45Z</time>
      </trkpt>
      <trkpt lat="44.81506" lon="6.73329">
        <ele>2054</ele>
        <time>2021-12-21T11:09:55Z</time>
      </trkpt>
      <trkpt lat="44.81509" lon="6.73331">
        <ele>2058</ele>
        <time>2021-12-21T11:10:00Z</time>
      </trkpt>
      <trkpt lat="44.81513" lon="6.73318">
        <ele>2066</ele>
        <time>2021-12-21T11:10:20Z</time>
      </trkpt>
      <trkpt lat="44.81511" lon="6.73315">
        <ele>2069</ele>
        <time>2021-12-21T11:10:22Z</time>
      </trkpt>
      <trkpt lat="44.81512" lon="6.73314">
        <ele>2078</ele>
        <time>2021-12-21T11:10:45Z</time>
      </trkpt>
      <trkpt lat="44.81515" lon="6.73314">
        <ele>2079</ele>
        <time>2021-12-21T11:10:57Z</time>
      </trkpt>
      <trkpt lat="44.81512" lon="6.73311">
        <ele>2080</ele>
        <time>2021-12-21T11:11:09Z</time>
      </trkpt>
      <trkpt lat="44.81511" lon="6.73317">
        <ele>2081</ele>
        <time>2021-12-21T11:11:19Z</time>
      </trkpt>
      <trkpt lat="44.81511" lon="6.73319">
        <ele>2082</ele>
        <time>2021-12-21T11:11:24Z</time>
      </trkpt>
      <trkpt lat="44.81512" lon="6.73321">
        <ele>2083</ele>
        <time>2021-12-21T11:11:35Z</time>
      </trkpt>
      <trkpt lat="44.81515" lon="6.7332">
        <ele>2084</ele>
        <time>2021-12-21T11:11:58Z</time>
      </trkpt>
      <trkpt lat="44.81517" lon="6.73321">
        <ele>2084</ele>
        <time>2021-12-21T11:12:03Z</time>
      </trkpt>
      <trkpt lat="44.81527" lon="6.7333">
        <ele>2084</ele>
        <time>2021-12-21T11:12:29Z</time>
      </trkpt>
      <trkpt lat="44.81531" lon="6.73332">
        <ele>2084</ele>
        <time>2021-12-21T11:12:32Z</time>
      </trkpt>
      <trkpt lat="44.81534" lon="6.73334">
        <ele>2085</ele>
        <time>2021-12-21T11:12:38Z</time>
      </trkpt>
      <trkpt lat="44.81544" lon="6.73331">
        <ele>2085</ele>
        <time>2021-12-21T11:13:42Z</time>
      </trkpt>
      <trkpt lat="44.81555" lon="6.73329">
        <ele>2086</ele>
        <time>2021-12-21T11:13:57Z</time>
      </trkpt>
      <trkpt lat="44.81558" lon="6.73329">
        <ele>2086</ele>
        <time>2021-12-21T11:13:59Z</time>
      </trkpt>
      <trkpt lat="44.81559" lon="6.73329">
        <ele>2087</ele>
        <time>2021-12-21T11:14:13Z</time>
      </trkpt>
      <trkpt lat="44.81568" lon="6.73332">
        <ele>2088</ele>
        <time>2021-12-21T11:14:32Z</time>
      </trkpt>
      <trkpt lat="44.8157" lon="6.73333">
        <ele>2089</ele>
        <time>2021-12-21T11:14:40Z</time>
      </trkpt>
      <trkpt lat="44.81572" lon="6.7333">
        <ele>2089</ele>
        <time>2021-12-21T11:14:49Z</time>
      </trkpt>
      <trkpt lat="44.81575" lon="6.73331">
        <ele>2090</ele>
        <time>2021-12-21T11:14:52Z</time>
      </trkpt>
      <trkpt lat="44.81589" lon="6.73328">
        <ele>2090</ele>
        <time>2021-12-21T11:15:03Z</time>
      </trkpt>
      <trkpt lat="44.81599" lon="6.73328">
        <ele>2091</ele>
        <time>2021-12-21T11:15:12Z</time>
      </trkpt>
      <trkpt lat="44.81602" lon="6.73328">
        <ele>2092</ele>
        <time>2021-12-21T11:15:14Z</time>
      </trkpt>
      <trkpt lat="44.81612" lon="6.73327">
        <ele>2092</ele>
        <time>2021-12-21T11:15:32Z</time>
      </trkpt>
      <trkpt lat="44.81614" lon="6.73325">
        <ele>2093</ele>
        <time>2021-12-21T11:15:36Z</time>
      </trkpt>
      <trkpt lat="44.81616" lon="6.73324">
        <ele>2093</ele>
        <time>2021-12-21T11:15:58Z</time>
      </trkpt>
      <trkpt lat="44.81612" lon="6.73312">
        <ele>2095</ele>
        <time>2021-12-21T11:16:29Z</time>
      </trkpt>
      <trkpt lat="44.81619" lon="6.73318">
        <ele>2105</ele>
        <time>2021-12-21T11:17:45Z</time>
      </trkpt>
      <trkpt lat="44.81626" lon="6.73328">
        <ele>2111</ele>
        <time>2021-12-21T11:18:02Z</time>
      </trkpt>
      <trkpt lat="44.81627" lon="6.7333">
        <ele>2111</ele>
        <time>2021-12-21T11:18:05Z</time>
      </trkpt>
      <trkpt lat="44.81628" lon="6.73327">
        <ele>2119</ele>
        <time>2021-12-21T11:20:23Z</time>
      </trkpt>
      <trkpt lat="44.81642" lon="6.73323">
        <ele>2123</ele>
        <time>2021-12-21T11:20:34Z</time>
      </trkpt>
      <trkpt lat="44.81651" lon="6.73321">
        <ele>2124</ele>
        <time>2021-12-21T11:20:40Z</time>
      </trkpt>
      <trkpt lat="44.81653" lon="6.73318">
        <ele>2125</ele>
        <time>2021-12-21T11:20:44Z</time>
      </trkpt>
      <trkpt lat="44.81656" lon="6.73316">
        <ele>2125</ele>
        <time>2021-12-21T11:20:48Z</time>
      </trkpt>
      <trkpt lat="44.81662" lon="6.73314">
        <ele>2126</ele>
        <time>2021-12-21T11:20:53Z</time>
      </trkpt>
      <trkpt lat="44.8166" lon="6.73315">
        <ele>2126</ele>
        <time>2021-12-21T11:20:54Z</time>
      </trkpt>
      <trkpt lat="44.81667" lon="6.73319">
        <ele>2127</ele>
        <time>2021-12-21T11:21:11Z</time>
      </trkpt>
      <trkpt lat="44.81669" lon="6.7332">
        <ele>2128</ele>
        <time>2021-12-21T11:21:20Z</time>
      </trkpt>
      <trkpt lat="44.81668" lon="6.73317">
        <ele>2128</ele>
        <time>2021-12-21T11:21:35Z</time>
      </trkpt>
      <trkpt lat="44.81666" lon="6.73314">
        <ele>2129</ele>
        <time>2021-12-21T11:22:08Z</time>
      </trkpt>
      <trkpt lat="44.81674" lon="6.7332">
        <ele>2132</ele>
        <time>2021-12-21T11:22:39Z</time>
      </trkpt>
      <trkpt lat="44.81675" lon="6.73322">
        <ele>2132</ele>
        <time>2021-12-21T11:22:59Z</time>
      </trkpt>
      <trkpt lat="44.81676" lon="6.7332">
        <ele>2134</ele>
        <time>2021-12-21T11:23:15Z</time>
      </trkpt>
      <trkpt lat="44.81678" lon="6.73306">
        <ele>2136</ele>
        <time>2021-12-21T11:24:24Z</time>
      </trkpt>
      <trkpt lat="44.81678" lon="6.73298">
        <ele>2137</ele>
        <time>2021-12-21T11:24:43Z</time>
      </trkpt>
      <trkpt lat="44.81681" lon="6.73296">
        <ele>2138</ele>
        <time>2021-12-21T11:24:49Z</time>
      </trkpt>
      <trkpt lat="44.81684" lon="6.73294">
        <ele>2138</ele>
        <time>2021-12-21T11:24:54Z</time>
      </trkpt>
      <trkpt lat="44.81688" lon="6.73295">
        <ele>2139</ele>
        <time>2021-12-21T11:24:56Z</time>
      </trkpt>
      <trkpt lat="44.8169" lon="6.73295">
        <ele>2139</ele>
        <time>2021-12-21T11:24:58Z</time>
      </trkpt>
      <trkpt lat="44.81693" lon="6.7329">
        <ele>2140</ele>
        <time>2021-12-21T11:25:35Z</time>
      </trkpt>
      <trkpt lat="44.81698" lon="6.73287">
        <ele>2141</ele>
        <time>2021-12-21T11:25:57Z</time>
      </trkpt>
      <trkpt lat="44.81702" lon="6.73283">
        <ele>2142</ele>
        <time>2021-12-21T11:26:08Z</time>
      </trkpt>
      <trkpt lat="44.81704" lon="6.73279">
        <ele>2142</ele>
        <time>2021-12-21T11:26:27Z</time>
      </trkpt>
      <trkpt lat="44.81712" lon="6.73277">
        <ele>2143</ele>
        <time>2021-12-21T11:26:35Z</time>
      </trkpt>
      <trkpt lat="44.81714" lon="6.73275">
        <ele>2144</ele>
        <time>2021-12-21T11:26:39Z</time>
      </trkpt>
      <trkpt lat="44.81717" lon="6.73272">
        <ele>2144</ele>
        <time>2021-12-21T11:26:42Z</time>
      </trkpt>
      <trkpt lat="44.81716" lon="6.73269">
        <ele>2144</ele>
        <time>2021-12-21T11:26:46Z</time>
      </trkpt>
      <trkpt lat="44.81716" lon="6.73265">
        <ele>2145</ele>
        <time>2021-12-21T11:26:53Z</time>
      </trkpt>
      <trkpt lat="44.81718" lon="6.73265">
        <ele>2145</ele>
        <time>2021-12-21T11:26:58Z</time>
      </trkpt>
      <trkpt lat="44.8172" lon="6.73265">
        <ele>2146</ele>
        <time>2021-12-21T11:27:03Z</time>
      </trkpt>
      <trkpt lat="44.81721" lon="6.73263">
        <ele>2146</ele>
        <time>2021-12-21T11:27:17Z</time>
      </trkpt>
      <trkpt lat="44.81722" lon="6.7326">
        <ele>2146</ele>
        <time>2021-12-21T11:27:34Z</time>
      </trkpt>
      <trkpt lat="44.81731" lon="6.7326">
        <ele>2147</ele>
        <time>2021-12-21T11:27:51Z</time>
      </trkpt>
      <trkpt lat="44.81734" lon="6.7326">
        <ele>2148</ele>
        <time>2021-12-21T11:27:55Z</time>
      </trkpt>
      <trkpt lat="44.81736" lon="6.73261">
        <ele>2148</ele>
        <time>2021-12-21T11:28:00Z</time>
      </trkpt>
      <trkpt lat="44.81743" lon="6.73261">
        <ele>2148</ele>
        <time>2021-12-21T11:28:17Z</time>
      </trkpt>
      <trkpt lat="44.81742" lon="6.73259">
        <ele>2148</ele>
        <time>2021-12-21T11:28:24Z</time>
      </trkpt>
      <trkpt lat="44.81746" lon="6.73256">
        <ele>2148</ele>
        <time>2021-12-21T11:28:47Z</time>
      </trkpt>
      <trkpt lat="44.81749" lon="6.73256">
        <ele>2149</ele>
        <time>2021-12-21T11:29:15Z</time>
      </trkpt>
      <trkpt lat="44.81752" lon="6.73253">
        <ele>2149</ele>
        <time>2021-12-21T11:29:36Z</time>
      </trkpt>
      <trkpt lat="44.81753" lon="6.73251">
        <ele>2150</ele>
        <time>2021-12-21T11:29:52Z</time>
      </trkpt>
      <trkpt lat="44.81828" lon="6.73228">
        <ele>2184</ele>
        <time>2021-12-21T11:39:28Z</time>
      </trkpt>
      <trkpt lat="44.81822" lon="6.73242">
        <ele>2185</ele>
        <time>2021-12-21T11:40:44Z</time>
      </trkpt>
      <trkpt lat="44.81816" lon="6.73282">
        <ele>2193</ele>
        <time>2021-12-21T11:43:15Z</time>
      </trkpt>
      <trkpt lat="44.81815" lon="6.73293">
        <ele>2194</ele>
        <time>2021-12-21T11:43:22Z</time>
      </trkpt>
      <trkpt lat="44.81814" lon="6.73305">
        <ele>2194</ele>
        <time>2021-12-21T11:43:26Z</time>
      </trkpt>
      <trkpt lat="44.81812" lon="6.7331">
        <ele>2195</ele>
        <time>2021-12-21T11:43:29Z</time>
      </trkpt>
      <trkpt lat="44.81811" lon="6.7332">
        <ele>2196</ele>
        <time>2021-12-21T11:43:36Z</time>
      </trkpt>
      <trkpt lat="44.81809" lon="6.73324">
        <ele>2196</ele>
        <time>2021-12-21T11:43:38Z</time>
      </trkpt>
      <trkpt lat="44.81794" lon="6.73367">
        <ele>2203</ele>
        <time>2021-12-21T11:44:00Z</time>
      </trkpt>
      <trkpt lat="44.81789" lon="6.73377">
        <ele>2205</ele>
        <time>2021-12-21T11:44:05Z</time>
      </trkpt>
      <trkpt lat="44.81787" lon="6.73382">
        <ele>2206</ele>
        <time>2021-12-21T11:44:08Z</time>
      </trkpt>
      <trkpt lat="44.81784" lon="6.73383">
        <ele>2207</ele>
        <time>2021-12-21T11:44:12Z</time>
      </trkpt>
      <trkpt lat="44.8178" lon="6.73391">
        <ele>2211</ele>
        <time>2021-12-21T11:44:19Z</time>
      </trkpt>
      <trkpt lat="44.81779" lon="6.73395">
        <ele>2212</ele>
        <time>2021-12-21T11:44:21Z</time>
      </trkpt>
      <trkpt lat="44.81775" lon="6.73403">
        <ele>2215</ele>
        <time>2021-12-21T11:44:28Z</time>
      </trkpt>
      <trkpt lat="44.8177" lon="6.73412">
        <ele>2217</ele>
        <time>2021-12-21T11:44:32Z</time>
      </trkpt>
      <trkpt lat="44.81765" lon="6.73418">
        <ele>2219</ele>
        <time>2021-12-21T11:44:35Z</time>
      </trkpt>
      <trkpt lat="44.81764" lon="6.73422">
        <ele>2221</ele>
        <time>2021-12-21T11:44:38Z</time>
      </trkpt>
      <trkpt lat="44.81765" lon="6.73429">
        <ele>2224</ele>
        <time>2021-12-21T11:44:42Z</time>
      </trkpt>
      <trkpt lat="44.81766" lon="6.73432">
        <ele>2225</ele>
        <time>2021-12-21T11:44:43Z</time>
      </trkpt>
      <trkpt lat="44.81768" lon="6.73434">
        <ele>2228</ele>
        <time>2021-12-21T11:44:45Z</time>
      </trkpt>
      <trkpt lat="44.81774" lon="6.73431">
        <ele>2240</ele>
        <time>2021-12-21T11:44:58Z</time>
      </trkpt>
      <trkpt lat="44.81775" lon="6.73427">
        <ele>2242</ele>
        <time>2021-12-21T11:45:01Z</time>
      </trkpt>
      <trkpt lat="44.81786" lon="6.73425">
        <ele>2253</ele>
        <time>2021-12-21T11:45:09Z</time>
      </trkpt>
      <trkpt lat="44.81793" lon="6.73412">
        <ele>2265</ele>
        <time>2021-12-21T11:45:21Z</time>
      </trkpt>
      <trkpt lat="44.81799" lon="6.73408">
        <ele>2268</ele>
        <time>2021-12-21T11:45:27Z</time>
      </trkpt>
      <trkpt lat="44.81801" lon="6.73406">
        <ele>2269</ele>
        <time>2021-12-21T11:45:29Z</time>
      </trkpt>
      <trkpt lat="44.81804" lon="6.73407">
        <ele>2271</ele>
        <time>2021-12-21T11:45:32Z</time>
      </trkpt>
      <trkpt lat="44.81808" lon="6.73404">
        <ele>2272</ele>
        <time>2021-12-21T11:45:35Z</time>
      </trkpt>
      <trkpt lat="44.8181" lon="6.73403">
        <ele>2273</ele>
        <time>2021-12-21T11:45:37Z</time>
      </trkpt>
      <trkpt lat="44.81812" lon="6.73399">
        <ele>2273</ele>
        <time>2021-12-21T11:45:41Z</time>
      </trkpt>
      <trkpt lat="44.81823" lon="6.734">
        <ele>2277</ele>
        <time>2021-12-21T11:45:47Z</time>
      </trkpt>
      <trkpt lat="44.81823" lon="6.73396">
        <ele>2279</ele>
        <time>2021-12-21T11:45:51Z</time>
      </trkpt>
      <trkpt lat="44.81822" lon="6.73392">
        <ele>2281</ele>
        <time>2021-12-21T11:45:57Z</time>
      </trkpt>
      <trkpt lat="44.81824" lon="6.73392">
        <ele>2284</ele>
        <time>2021-12-21T11:46:12Z</time>
      </trkpt>
      <trkpt lat="44.81823" lon="6.73391">
        <ele>2284</ele>
        <time>2021-12-21T11:46:26Z</time>
      </trkpt>
      <trkpt lat="44.81823" lon="6.73387">
        <ele>2284</ele>
        <time>2021-12-21T11:46:46Z</time>
      </trkpt>
      <trkpt lat="44.81822" lon="6.73383">
        <ele>2285</ele>
        <time>2021-12-21T11:46:49Z</time>
      </trkpt>
      <trkpt lat="44.81824" lon="6.73381">
        <ele>2285</ele>
        <time>2021-12-21T11:46:58Z</time>
      </trkpt>
      <trkpt lat="44.81828" lon="6.73382">
        <ele>2285</ele>
        <time>2021-12-21T11:47:19Z</time>
      </trkpt>
      <trkpt lat="44.81828" lon="6.73379">
        <ele>2285</ele>
        <time>2021-12-21T11:47:33Z</time>
      </trkpt>
      <trkpt lat="44.8183" lon="6.73376">
        <ele>2285</ele>
        <time>2021-12-21T11:47:36Z</time>
      </trkpt>
      <trkpt lat="44.81831" lon="6.73373">
        <ele>2287</ele>
        <time>2021-12-21T11:47:42Z</time>
      </trkpt>
      <trkpt lat="44.81833" lon="6.73371">
        <ele>2287</ele>
        <time>2021-12-21T11:47:45Z</time>
      </trkpt>
      <trkpt lat="44.81836" lon="6.73372">
        <ele>2287</ele>
        <time>2021-12-21T11:47:47Z</time>
      </trkpt>
      <trkpt lat="44.81846" lon="6.73368">
        <ele>2286</ele>
        <time>2021-12-21T11:47:58Z</time>
      </trkpt>
      <trkpt lat="44.81848" lon="6.73365">
        <ele>2286</ele>
        <time>2021-12-21T11:48:01Z</time>
      </trkpt>
      <trkpt lat="44.81851" lon="6.73365">
        <ele>2286</ele>
        <time>2021-12-21T11:48:06Z</time>
      </trkpt>
      <trkpt lat="44.81854" lon="6.73364">
        <ele>2285</ele>
        <time>2021-12-21T11:48:10Z</time>
      </trkpt>
      <trkpt lat="44.81857" lon="6.73363">
        <ele>2285</ele>
        <time>2021-12-21T11:48:13Z</time>
      </trkpt>
      <trkpt lat="44.81863" lon="6.73352">
        <ele>2284</ele>
        <time>2021-12-21T11:48:22Z</time>
      </trkpt>
      <trkpt lat="44.81866" lon="6.73352">
        <ele>2283</ele>
        <time>2021-12-21T11:48:24Z</time>
      </trkpt>
      <trkpt lat="44.81868" lon="6.7335">
        <ele>2283</ele>
        <time>2021-12-21T11:48:28Z</time>
      </trkpt>
      <trkpt lat="44.81871" lon="6.7335">
        <ele>2282</ele>
        <time>2021-12-21T11:48:31Z</time>
      </trkpt>
      <trkpt lat="44.81875" lon="6.73344">
        <ele>2282</ele>
        <time>2021-12-21T11:48:36Z</time>
      </trkpt>
      <trkpt lat="44.81876" lon="6.7334">
        <ele>2282</ele>
        <time>2021-12-21T11:48:39Z</time>
      </trkpt>
      <trkpt lat="44.81879" lon="6.73336">
        <ele>2283</ele>
        <time>2021-12-21T11:48:43Z</time>
      </trkpt>
      <trkpt lat="44.81882" lon="6.73334">
        <ele>2283</ele>
        <time>2021-12-21T11:48:45Z</time>
      </trkpt>
      <trkpt lat="44.8189" lon="6.7333">
        <ele>2285</ele>
        <time>2021-12-21T11:48:58Z</time>
      </trkpt>
      <trkpt lat="44.81895" lon="6.73321">
        <ele>2287</ele>
        <time>2021-12-21T11:49:11Z</time>
      </trkpt>
      <trkpt lat="44.81897" lon="6.7331">
        <ele>2287</ele>
        <time>2021-12-21T11:49:19Z</time>
      </trkpt>
      <trkpt lat="44.81899" lon="6.73311">
        <ele>2287</ele>
        <time>2021-12-21T11:49:21Z</time>
      </trkpt>
      <trkpt lat="44.81903" lon="6.73312">
        <ele>2287</ele>
        <time>2021-12-21T11:49:24Z</time>
      </trkpt>
      <trkpt lat="44.81906" lon="6.73312">
        <ele>2287</ele>
        <time>2021-12-21T11:49:28Z</time>
      </trkpt>
      <trkpt lat="44.81908" lon="6.73311">
        <ele>2287</ele>
        <time>2021-12-21T11:49:32Z</time>
      </trkpt>
      <trkpt lat="44.81913" lon="6.73312">
        <ele>2287</ele>
        <time>2021-12-21T11:49:35Z</time>
      </trkpt>
      <trkpt lat="44.81914" lon="6.73309">
        <ele>2287</ele>
        <time>2021-12-21T11:49:39Z</time>
      </trkpt>
      <trkpt lat="44.81915" lon="6.73305">
        <ele>2285</ele>
        <time>2021-12-21T11:49:41Z</time>
      </trkpt>
      <trkpt lat="44.81916" lon="6.73298">
        <ele>2284</ele>
        <time>2021-12-21T11:49:45Z</time>
      </trkpt>
      <trkpt lat="44.8192" lon="6.73291">
        <ele>2284</ele>
        <time>2021-12-21T11:49:52Z</time>
      </trkpt>
      <trkpt lat="44.81926" lon="6.73282">
        <ele>2284</ele>
        <time>2021-12-21T11:50:00Z</time>
      </trkpt>
      <trkpt lat="44.81928" lon="6.73279">
        <ele>2284</ele>
        <time>2021-12-21T11:50:02Z</time>
      </trkpt>
      <trkpt lat="44.81929" lon="6.73275">
        <ele>2284</ele>
        <time>2021-12-21T11:50:04Z</time>
      </trkpt>
      <trkpt lat="44.81931" lon="6.73268">
        <ele>2285</ele>
        <time>2021-12-21T11:50:10Z</time>
      </trkpt>
      <trkpt lat="44.81932" lon="6.73259">
        <ele>2287</ele>
        <time>2021-12-21T11:50:16Z</time>
      </trkpt>
      <trkpt lat="44.81932" lon="6.73255">
        <ele>2288</ele>
        <time>2021-12-21T11:50:18Z</time>
      </trkpt>
      <trkpt lat="44.81935" lon="6.73244">
        <ele>2290</ele>
        <time>2021-12-21T11:50:25Z</time>
      </trkpt>
      <trkpt lat="44.81937" lon="6.7324">
        <ele>2290</ele>
        <time>2021-12-21T11:50:29Z</time>
      </trkpt>
      <trkpt lat="44.81938" lon="6.73237">
        <ele>2291</ele>
        <time>2021-12-21T11:50:32Z</time>
      </trkpt>
      <trkpt lat="44.8194" lon="6.73231">
        <ele>2292</ele>
        <time>2021-12-21T11:50:40Z</time>
      </trkpt>
      <trkpt lat="44.81941" lon="6.73229">
        <ele>2293</ele>
        <time>2021-12-21T11:50:43Z</time>
      </trkpt>
      <trkpt lat="44.81942" lon="6.73225">
        <ele>2294</ele>
        <time>2021-12-21T11:50:47Z</time>
      </trkpt>
      <trkpt lat="44.81943" lon="6.73222">
        <ele>2295</ele>
        <time>2021-12-21T11:50:50Z</time>
      </trkpt>
      <trkpt lat="44.81946" lon="6.73221">
        <ele>2295</ele>
        <time>2021-12-21T11:50:53Z</time>
      </trkpt>
      <trkpt lat="44.81948" lon="6.7322">
        <ele>2296</ele>
        <time>2021-12-21T11:50:57Z</time>
      </trkpt>
      <trkpt lat="44.8195" lon="6.73222">
        <ele>2298</ele>
        <time>2021-12-21T11:51:02Z</time>
      </trkpt>
      <trkpt lat="44.81951" lon="6.73229">
        <ele>2301</ele>
        <time>2021-12-21T11:51:12Z</time>
      </trkpt>
      <trkpt lat="44.81951" lon="6.73232">
        <ele>2301</ele>
        <time>2021-12-21T11:51:15Z</time>
      </trkpt>
      <trkpt lat="44.81948" lon="6.73238">
        <ele>2302</ele>
        <time>2021-12-21T11:51:22Z</time>
      </trkpt>
      <trkpt lat="44.81948" lon="6.73242">
        <ele>2303</ele>
        <time>2021-12-21T11:51:25Z</time>
      </trkpt>
      <trkpt lat="44.81945" lon="6.73244">
        <ele>2303</ele>
        <time>2021-12-21T11:51:28Z</time>
      </trkpt>
      <trkpt lat="44.81943" lon="6.73248">
        <ele>2304</ele>
        <time>2021-12-21T11:51:31Z</time>
      </trkpt>
      <trkpt lat="44.8194" lon="6.73255">
        <ele>2304</ele>
        <time>2021-12-21T11:51:36Z</time>
      </trkpt>
      <trkpt lat="44.81936" lon="6.73262">
        <ele>2305</ele>
        <time>2021-12-21T11:51:41Z</time>
      </trkpt>
      <trkpt lat="44.81935" lon="6.73269">
        <ele>2304</ele>
        <time>2021-12-21T11:51:45Z</time>
      </trkpt>
      <trkpt lat="44.81934" lon="6.73272">
        <ele>2304</ele>
        <time>2021-12-21T11:51:49Z</time>
      </trkpt>
      <trkpt lat="44.81931" lon="6.73282">
        <ele>2305</ele>
        <time>2021-12-21T11:52:00Z</time>
      </trkpt>
      <trkpt lat="44.81931" lon="6.73286">
        <ele>2307</ele>
        <time>2021-12-21T11:52:04Z</time>
      </trkpt>
      <trkpt lat="44.81933" lon="6.73289">
        <ele>2308</ele>
        <time>2021-12-21T11:52:06Z</time>
      </trkpt>
      <trkpt lat="44.81932" lon="6.73293">
        <ele>2309</ele>
        <time>2021-12-21T11:52:09Z</time>
      </trkpt>
      <trkpt lat="44.81932" lon="6.73297">
        <ele>2312</ele>
        <time>2021-12-21T11:52:14Z</time>
      </trkpt>
      <trkpt lat="44.81934" lon="6.73301">
        <ele>2313</ele>
        <time>2021-12-21T11:52:17Z</time>
      </trkpt>
      <trkpt lat="44.81934" lon="6.73305">
        <ele>2314</ele>
        <time>2021-12-21T11:52:21Z</time>
      </trkpt>
      <trkpt lat="44.81935" lon="6.73308">
        <ele>2315</ele>
        <time>2021-12-21T11:52:24Z</time>
      </trkpt>
      <trkpt lat="44.81934" lon="6.73312">
        <ele>2315</ele>
        <time>2021-12-21T11:52:27Z</time>
      </trkpt>
      <trkpt lat="44.81933" lon="6.7332">
        <ele>2314</ele>
        <time>2021-12-21T11:52:33Z</time>
      </trkpt>
      <trkpt lat="44.81931" lon="6.73322">
        <ele>2313</ele>
        <time>2021-12-21T11:52:38Z</time>
      </trkpt>
      <trkpt lat="44.81933" lon="6.73325">
        <ele>2312</ele>
        <time>2021-12-21T11:52:43Z</time>
      </trkpt>
      <trkpt lat="44.81933" lon="6.73329">
        <ele>2310</ele>
        <time>2021-12-21T11:52:46Z</time>
      </trkpt>
      <trkpt lat="44.81929" lon="6.73337">
        <ele>2307</ele>
        <time>2021-12-21T11:52:55Z</time>
      </trkpt>
      <trkpt lat="44.81926" lon="6.7336">
        <ele>2306</ele>
        <time>2021-12-21T11:53:11Z</time>
      </trkpt>
      <trkpt lat="44.81928" lon="6.73382">
        <ele>2303</ele>
        <time>2021-12-21T11:53:32Z</time>
      </trkpt>
      <trkpt lat="44.81926" lon="6.73385">
        <ele>2303</ele>
        <time>2021-12-21T11:53:36Z</time>
      </trkpt>
      <trkpt lat="44.81926" lon="6.73388">
        <ele>2302</ele>
        <time>2021-12-21T11:53:40Z</time>
      </trkpt>
      <trkpt lat="44.81917" lon="6.73398">
        <ele>2300</ele>
        <time>2021-12-21T11:53:49Z</time>
      </trkpt>
      <trkpt lat="44.81915" lon="6.73398">
        <ele>2299</ele>
        <time>2021-12-21T11:53:52Z</time>
      </trkpt>
      <trkpt lat="44.81904" lon="6.73411">
        <ele>2298</ele>
        <time>2021-12-21T11:54:07Z</time>
      </trkpt>
      <trkpt lat="44.81901" lon="6.73417">
        <ele>2298</ele>
        <time>2021-12-21T11:54:12Z</time>
      </trkpt>
      <trkpt lat="44.81899" lon="6.73419">
        <ele>2298</ele>
        <time>2021-12-21T11:54:14Z</time>
      </trkpt>
      <trkpt lat="44.81895" lon="6.73429">
        <ele>2300</ele>
        <time>2021-12-21T11:54:27Z</time>
      </trkpt>
      <trkpt lat="44.81894" lon="6.73432">
        <ele>2301</ele>
        <time>2021-12-21T11:54:31Z</time>
      </trkpt>
      <trkpt lat="44.81886" lon="6.73454">
        <ele>2303</ele>
        <time>2021-12-21T11:54:58Z</time>
      </trkpt>
      <trkpt lat="44.81882" lon="6.73465">
        <ele>2304</ele>
        <time>2021-12-21T11:55:07Z</time>
      </trkpt>
      <trkpt lat="44.81883" lon="6.73475">
        <ele>2305</ele>
        <time>2021-12-21T11:55:20Z</time>
      </trkpt>
      <trkpt lat="44.81886" lon="6.73475">
        <ele>2306</ele>
        <time>2021-12-21T11:55:26Z</time>
      </trkpt>
      <trkpt lat="44.81905" lon="6.73484">
        <ele>2310</ele>
        <time>2021-12-21T11:55:56Z</time>
      </trkpt>
      <trkpt lat="44.8191" lon="6.73487">
        <ele>2311</ele>
        <time>2021-12-21T11:56:02Z</time>
      </trkpt>
      <trkpt lat="44.81916" lon="6.73487">
        <ele>2311</ele>
        <time>2021-12-21T11:56:07Z</time>
      </trkpt>
      <trkpt lat="44.8192" lon="6.73486">
        <ele>2312</ele>
        <time>2021-12-21T11:56:14Z</time>
      </trkpt>
      <trkpt lat="44.81921" lon="6.73489">
        <ele>2312</ele>
        <time>2021-12-21T11:56:21Z</time>
      </trkpt>
      <trkpt lat="44.81923" lon="6.7349">
        <ele>2312</ele>
        <time>2021-12-21T11:56:24Z</time>
      </trkpt>
      <trkpt lat="44.81929" lon="6.73489">
        <ele>2313</ele>
        <time>2021-12-21T11:56:32Z</time>
      </trkpt>
      <trkpt lat="44.8193" lon="6.73486">
        <ele>2313</ele>
        <time>2021-12-21T11:56:34Z</time>
      </trkpt>
      <trkpt lat="44.81932" lon="6.73489">
        <ele>2313</ele>
        <time>2021-12-21T11:56:38Z</time>
      </trkpt>
      <trkpt lat="44.81933" lon="6.73489">
        <ele>2313</ele>
        <time>2021-12-21T11:56:44Z</time>
      </trkpt>
      <trkpt lat="44.81935" lon="6.73489">
        <ele>2313</ele>
        <time>2021-12-21T11:56:50Z</time>
      </trkpt>
      <trkpt lat="44.81941" lon="6.7349">
        <ele>2312</ele>
        <time>2021-12-21T11:59:02Z</time>
      </trkpt>
      <trkpt lat="44.81939" lon="6.7349">
        <ele>2312</ele>
        <time>2021-12-21T11:59:14Z</time>
      </trkpt>
      <trkpt lat="44.81942" lon="6.73493">
        <ele>2313</ele>
        <time>2021-12-21T12:01:49Z</time>
      </trkpt>
      <trkpt lat="44.8194" lon="6.73499">
        <ele>2315</ele>
        <time>2021-12-21T12:04:13Z</time>
      </trkpt>
      <trkpt lat="44.8194" lon="6.73502">
        <ele>2315</ele>
        <time>2021-12-21T12:04:16Z</time>
      </trkpt>
      <trkpt lat="44.81941" lon="6.73505">
        <ele>2315</ele>
        <time>2021-12-21T12:04:24Z</time>
      </trkpt>
      <trkpt lat="44.81944" lon="6.73513">
        <ele>2315</ele>
        <time>2021-12-21T12:04:35Z</time>
      </trkpt>
      <trkpt lat="44.81949" lon="6.73516">
        <ele>2314</ele>
        <time>2021-12-21T12:04:43Z</time>
      </trkpt>
      <trkpt lat="44.8195" lon="6.73518">
        <ele>2314</ele>
        <time>2021-12-21T12:04:47Z</time>
      </trkpt>
      <trkpt lat="44.8195" lon="6.73521">
        <ele>2314</ele>
        <time>2021-12-21T12:04:50Z</time>
      </trkpt>
      <trkpt lat="44.81956" lon="6.73528">
        <ele>2313</ele>
        <time>2021-12-21T12:05:20Z</time>
      </trkpt>
      <trkpt lat="44.81957" lon="6.73533">
        <ele>2313</ele>
        <time>2021-12-21T12:05:27Z</time>
      </trkpt>
      <trkpt lat="44.81958" lon="6.73534">
        <ele>2314</ele>
        <time>2021-12-21T12:05:35Z</time>
      </trkpt>
      <trkpt lat="44.81963" lon="6.73531">
        <ele>2313</ele>
        <time>2021-12-21T12:05:47Z</time>
      </trkpt>
      <trkpt lat="44.81962" lon="6.73531">
        <ele>2312</ele>
        <time>2021-12-21T12:06:01Z</time>
      </trkpt>
      <trkpt lat="44.81963" lon="6.73521">
        <ele>2311</ele>
        <time>2021-12-21T12:06:09Z</time>
      </trkpt>
      <trkpt lat="44.8196" lon="6.73523">
        <ele>2309</ele>
        <time>2021-12-21T12:06:23Z</time>
      </trkpt>
      <trkpt lat="44.81958" lon="6.73529">
        <ele>2309</ele>
        <time>2021-12-21T12:06:29Z</time>
      </trkpt>
      <trkpt lat="44.81957" lon="6.73533">
        <ele>2308</ele>
        <time>2021-12-21T12:06:33Z</time>
      </trkpt>
      <trkpt lat="44.81958" lon="6.73538">
        <ele>2308</ele>
        <time>2021-12-21T12:06:35Z</time>
      </trkpt>
      <trkpt lat="44.81958" lon="6.73536">
        <ele>2308</ele>
        <time>2021-12-21T12:06:57Z</time>
      </trkpt>
      <trkpt lat="44.81961" lon="6.73537">
        <ele>2308</ele>
        <time>2021-12-21T12:07:04Z</time>
      </trkpt>
      <trkpt lat="44.81961" lon="6.73541">
        <ele>2308</ele>
        <time>2021-12-21T12:07:08Z</time>
      </trkpt>
      <trkpt lat="44.81963" lon="6.7354">
        <ele>2303</ele>
        <time>2021-12-21T12:07:32Z</time>
      </trkpt>
      <trkpt lat="44.8196" lon="6.73534">
        <ele>2302</ele>
        <time>2021-12-21T12:08:08Z</time>
      </trkpt>
      <trkpt lat="44.81961" lon="6.73528">
        <ele>2301</ele>
        <time>2021-12-21T12:09:05Z</time>
      </trkpt>
      <trkpt lat="44.8197" lon="6.73527">
        <ele>2298</ele>
        <time>2021-12-21T12:09:22Z</time>
      </trkpt>
      <trkpt lat="44.81971" lon="6.73525">
        <ele>2298</ele>
        <time>2021-12-21T12:09:35Z</time>
      </trkpt>
      <trkpt lat="44.81971" lon="6.73524">
        <ele>2298</ele>
        <time>2021-12-21T12:10:36Z</time>
      </trkpt>
      <trkpt lat="44.81967" lon="6.73529">
        <ele>2298</ele>
        <time>2021-12-21T12:10:45Z</time>
      </trkpt>
      <trkpt lat="44.81968" lon="6.73528">
        <ele>2298</ele>
        <time>2021-12-21T12:11:34Z</time>
      </trkpt>
      <trkpt lat="44.81965" lon="6.73532">
        <ele>2298</ele>
        <time>2021-12-21T12:12:53Z</time>
      </trkpt>
      <trkpt lat="44.81966" lon="6.73532">
        <ele>2299</ele>
        <time>2021-12-21T12:24:45Z</time>
      </trkpt>
      <trkpt lat="44.81966" lon="6.73536">
        <ele>2300</ele>
        <time>2021-12-21T12:26:57Z</time>
      </trkpt>
      <trkpt lat="44.81965" lon="6.73535">
        <ele>2300</ele>
        <time>2021-12-21T12:27:01Z</time>
      </trkpt>
      <trkpt lat="44.81968" lon="6.73535">
        <ele>2308</ele>
        <time>2021-12-21T12:31:34Z</time>
      </trkpt>
      <trkpt lat="44.81968" lon="6.73531">
        <ele>2308</ele>
        <time>2021-12-21T12:31:47Z</time>
      </trkpt>
      <trkpt lat="44.81965" lon="6.73531">
        <ele>2308</ele>
        <time>2021-12-21T12:31:52Z</time>
      </trkpt>
      <trkpt lat="44.81966" lon="6.73528">
        <ele>2312</ele>
        <time>2021-12-21T12:32:04Z</time>
      </trkpt>
      <trkpt lat="44.81971" lon="6.73521">
        <ele>2313</ele>
        <time>2021-12-21T12:32:31Z</time>
      </trkpt>
      <trkpt lat="44.81971" lon="6.73524">
        <ele>2310</ele>
        <time>2021-12-21T12:32:43Z</time>
      </trkpt>
      <trkpt lat="44.81968" lon="6.73532">
        <ele>2310</ele>
        <time>2021-12-21T12:33:28Z</time>
      </trkpt>
      <trkpt lat="44.81967" lon="6.73536">
        <ele>2310</ele>
        <time>2021-12-21T12:33:44Z</time>
      </trkpt>
      <trkpt lat="44.81965" lon="6.73535">
        <ele>2310</ele>
        <time>2021-12-21T12:33:49Z</time>
      </trkpt>
      <trkpt lat="44.81965" lon="6.7353">
        <ele>2311</ele>
        <time>2021-12-21T12:34:11Z</time>
      </trkpt>
      <trkpt lat="44.81967" lon="6.7353">
        <ele>2311</ele>
        <time>2021-12-21T12:34:48Z</time>
      </trkpt>
      <trkpt lat="44.81969" lon="6.7353">
        <ele>2308</ele>
        <time>2021-12-21T12:36:38Z</time>
      </trkpt>
      <trkpt lat="44.81969" lon="6.7353">
        <ele>2306</ele>
        <time>2021-12-21T12:37:21Z</time>
      </trkpt>
      <trkpt lat="44.81971" lon="6.73525">
        <ele>2307</ele>
        <time>2021-12-21T12:37:40Z</time>
      </trkpt>
      <trkpt lat="44.81968" lon="6.73522">
        <ele>2307</ele>
        <time>2021-12-21T12:37:42Z</time>
      </trkpt>
      <trkpt lat="44.81965" lon="6.73521">
        <ele>2307</ele>
        <time>2021-12-21T12:37:49Z</time>
      </trkpt>
      <trkpt lat="44.81971" lon="6.7353">
        <ele>2308</ele>
        <time>2021-12-21T12:39:12Z</time>
      </trkpt>
      <trkpt lat="44.81975" lon="6.73535">
        <ele>2309</ele>
        <time>2021-12-21T12:39:14Z</time>
      </trkpt>
      <trkpt lat="44.8197" lon="6.73538">
        <ele>2309</ele>
        <time>2021-12-21T12:39:18Z</time>
      </trkpt>
      <trkpt lat="44.81968" lon="6.73539">
        <ele>2309</ele>
        <time>2021-12-21T12:39:21Z</time>
      </trkpt>
      <trkpt lat="44.81965" lon="6.73538">
        <ele>2309</ele>
        <time>2021-12-21T12:39:26Z</time>
      </trkpt>
      <trkpt lat="44.81964" lon="6.73536">
        <ele>2310</ele>
        <time>2021-12-21T12:39:29Z</time>
      </trkpt>
      <trkpt lat="44.81961" lon="6.73537">
        <ele>2310</ele>
        <time>2021-12-21T12:39:44Z</time>
      </trkpt>
      <trkpt lat="44.8196" lon="6.73538">
        <ele>2310</ele>
        <time>2021-12-21T12:39:50Z</time>
      </trkpt>
      <trkpt lat="44.8196" lon="6.73535">
        <ele>2310</ele>
        <time>2021-12-21T12:40:05Z</time>
      </trkpt>
      <trkpt lat="44.8196" lon="6.73523">
        <ele>2311</ele>
        <time>2021-12-21T12:40:13Z</time>
      </trkpt>
      <trkpt lat="44.8196" lon="6.73523">
        <ele>2312</ele>
        <time>2021-12-21T12:40:39Z</time>
      </trkpt>
      <trkpt lat="44.81962" lon="6.73521">
        <ele>2312</ele>
        <time>2021-12-21T12:40:45Z</time>
      </trkpt>
      <trkpt lat="44.81968" lon="6.73521">
        <ele>2313</ele>
        <time>2021-12-21T12:41:05Z</time>
      </trkpt>
      <trkpt lat="44.8197" lon="6.73523">
        <ele>2314</ele>
        <time>2021-12-21T12:41:13Z</time>
      </trkpt>
      <trkpt lat="44.81969" lon="6.7353">
        <ele>2316</ele>
        <time>2021-12-21T12:42:06Z</time>
      </trkpt>
      <trkpt lat="44.81969" lon="6.7352">
        <ele>2318</ele>
        <time>2021-12-21T12:43:01Z</time>
      </trkpt>
      <trkpt lat="44.81965" lon="6.73525">
        <ele>2319</ele>
        <time>2021-12-21T12:43:22Z</time>
      </trkpt>
      <trkpt lat="44.81963" lon="6.73521">
        <ele>2319</ele>
        <time>2021-12-21T12:43:24Z</time>
      </trkpt>
      <trkpt lat="44.81962" lon="6.73521">
        <ele>2319</ele>
        <time>2021-12-21T12:43:29Z</time>
      </trkpt>
      <trkpt lat="44.81962" lon="6.73533">
        <ele>2320</ele>
        <time>2021-12-21T12:44:34Z</time>
      </trkpt>
      <trkpt lat="44.81962" lon="6.73541">
        <ele>2321</ele>
        <time>2021-12-21T12:44:38Z</time>
      </trkpt>
      <trkpt lat="44.81962" lon="6.73542">
        <ele>2320</ele>
        <time>2021-12-21T12:44:58Z</time>
      </trkpt>
      <trkpt lat="44.81962" lon="6.73546">
        <ele>2320</ele>
        <time>2021-12-21T12:46:33Z</time>
      </trkpt>
      <trkpt lat="44.81961" lon="6.73547">
        <ele>2320</ele>
        <time>2021-12-21T12:47:13Z</time>
      </trkpt>
      <trkpt lat="44.8196" lon="6.73546">
        <ele>2320</ele>
        <time>2021-12-21T12:47:46Z</time>
      </trkpt>
      <trkpt lat="44.8196" lon="6.7354">
        <ele>2320</ele>
        <time>2021-12-21T12:48:22Z</time>
      </trkpt>
      <trkpt lat="44.8196" lon="6.73537">
        <ele>2320</ele>
        <time>2021-12-21T12:48:25Z</time>
      </trkpt>
      <trkpt lat="44.81961" lon="6.73535">
        <ele>2319</ele>
        <time>2021-12-21T12:48:34Z</time>
      </trkpt>
      <trkpt lat="44.81962" lon="6.73536">
        <ele>2319</ele>
        <time>2021-12-21T12:49:50Z</time>
      </trkpt>
      <trkpt lat="44.81961" lon="6.73537">
        <ele>2318</ele>
        <time>2021-12-21T12:50:39Z</time>
      </trkpt>
      <trkpt lat="44.81961" lon="6.73535">
        <ele>2319</ele>
        <time>2021-12-21T12:51:40Z</time>
      </trkpt>
      <trkpt lat="44.81963" lon="6.73536">
        <ele>2318</ele>
        <time>2021-12-21T12:51:45Z</time>
      </trkpt>
      <trkpt lat="44.81963" lon="6.73536">
        <ele>2317</ele>
        <time>2021-12-21T12:52:07Z</time>
      </trkpt>
      <trkpt lat="44.81962" lon="6.73534">
        <ele>2317</ele>
        <time>2021-12-21T12:52:09Z</time>
      </trkpt>
      <trkpt lat="44.8196" lon="6.73533">
        <ele>2317</ele>
        <time>2021-12-21T12:52:16Z</time>
      </trkpt>
      <trkpt lat="44.8196" lon="6.73537">
        <ele>2317</ele>
        <time>2021-12-21T12:52:43Z</time>
      </trkpt>
      <trkpt lat="44.81962" lon="6.73549">
        <ele>2317</ele>
        <time>2021-12-21T12:53:42Z</time>
      </trkpt>
      <trkpt lat="44.8196" lon="6.73548">
        <ele>2316</ele>
        <time>2021-12-21T12:53:52Z</time>
      </trkpt>
      <trkpt lat="44.81958" lon="6.7354">
        <ele>2315</ele>
        <time>2021-12-21T12:53:57Z</time>
      </trkpt>
      <trkpt lat="44.81958" lon="6.73538">
        <ele>2315</ele>
        <time>2021-12-21T12:53:58Z</time>
      </trkpt>
      <trkpt lat="44.81956" lon="6.73537">
        <ele>2315</ele>
        <time>2021-12-21T12:54:00Z</time>
      </trkpt>
      <trkpt lat="44.81954" lon="6.73536">
        <ele>2315</ele>
        <time>2021-12-21T12:54:02Z</time>
      </trkpt>
      <trkpt lat="44.81961" lon="6.73532">
        <ele>2315</ele>
        <time>2021-12-21T12:54:32Z</time>
      </trkpt>
      <trkpt lat="44.81977" lon="6.73511">
        <ele>2315</ele>
        <time>2021-12-21T12:54:41Z</time>
      </trkpt>
      <trkpt lat="44.81977" lon="6.73508">
        <ele>2315</ele>
        <time>2021-12-21T12:54:42Z</time>
      </trkpt>
      <trkpt lat="44.81979" lon="6.73506">
        <ele>2315</ele>
        <time>2021-12-21T12:54:45Z</time>
      </trkpt>
      <trkpt lat="44.8198" lon="6.73504">
        <ele>2315</ele>
        <time>2021-12-21T12:54:47Z</time>
      </trkpt>
      <trkpt lat="44.81997" lon="6.73506">
        <ele>2317</ele>
        <time>2021-12-21T12:55:03Z</time>
      </trkpt>
      <trkpt lat="44.82002" lon="6.73507">
        <ele>2318</ele>
        <time>2021-12-21T12:55:07Z</time>
      </trkpt>
      <trkpt lat="44.82026" lon="6.7351">
        <ele>2320</ele>
        <time>2021-12-21T12:55:24Z</time>
      </trkpt>
      <trkpt lat="44.82044" lon="6.73507">
        <ele>2319</ele>
        <time>2021-12-21T12:55:34Z</time>
      </trkpt>
      <trkpt lat="44.82052" lon="6.73504">
        <ele>2319</ele>
        <time>2021-12-21T12:55:37Z</time>
      </trkpt>
      <trkpt lat="44.82058" lon="6.73499">
        <ele>2318</ele>
        <time>2021-12-21T12:55:39Z</time>
      </trkpt>
      <trkpt lat="44.82069" lon="6.73485">
        <ele>2316</ele>
        <time>2021-12-21T12:55:43Z</time>
      </trkpt>
      <trkpt lat="44.82094" lon="6.73434">
        <ele>2309</ele>
        <time>2021-12-21T12:55:53Z</time>
      </trkpt>
      <trkpt lat="44.82101" lon="6.7344">
        <ele>2307</ele>
        <time>2021-12-21T12:55:55Z</time>
      </trkpt>
      <trkpt lat="44.82103" lon="6.73441">
        <ele>2307</ele>
        <time>2021-12-21T12:55:57Z</time>
      </trkpt>
      <trkpt lat="44.82105" lon="6.73445">
        <ele>2305</ele>
        <time>2021-12-21T12:56:01Z</time>
      </trkpt>
      <trkpt lat="44.82095" lon="6.73463">
        <ele>2300</ele>
        <time>2021-12-21T12:56:15Z</time>
      </trkpt>
      <trkpt lat="44.82093" lon="6.7348">
        <ele>2298</ele>
        <time>2021-12-21T12:56:21Z</time>
      </trkpt>
      <trkpt lat="44.82092" lon="6.73502">
        <ele>2298</ele>
        <time>2021-12-21T12:56:25Z</time>
      </trkpt>
      <trkpt lat="44.82097" lon="6.73524">
        <ele>2297</ele>
        <time>2021-12-21T12:56:30Z</time>
      </trkpt>
      <trkpt lat="44.821" lon="6.73534">
        <ele>2297</ele>
        <time>2021-12-21T12:56:32Z</time>
      </trkpt>
      <trkpt lat="44.82105" lon="6.73541">
        <ele>2297</ele>
        <time>2021-12-21T12:56:34Z</time>
      </trkpt>
      <trkpt lat="44.82114" lon="6.73563">
        <ele>2298</ele>
        <time>2021-12-21T12:56:40Z</time>
      </trkpt>
      <trkpt lat="44.82113" lon="6.73562">
        <ele>2296</ele>
        <time>2021-12-21T12:56:50Z</time>
      </trkpt>
      <trkpt lat="44.82114" lon="6.7356">
        <ele>2296</ele>
        <time>2021-12-21T12:57:12Z</time>
      </trkpt>
      <trkpt lat="44.82114" lon="6.73559">
        <ele>2297</ele>
        <time>2021-12-21T12:57:18Z</time>
      </trkpt>
      <trkpt lat="44.82124" lon="6.73561">
        <ele>2298</ele>
        <time>2021-12-21T12:57:49Z</time>
      </trkpt>
      <trkpt lat="44.82126" lon="6.7356">
        <ele>2298</ele>
        <time>2021-12-21T12:57:50Z</time>
      </trkpt>
      <trkpt lat="44.82133" lon="6.73564">
        <ele>2299</ele>
        <time>2021-12-21T12:57:57Z</time>
      </trkpt>
      <trkpt lat="44.82136" lon="6.73566">
        <ele>2299</ele>
        <time>2021-12-21T12:58:01Z</time>
      </trkpt>
      <trkpt lat="44.82145" lon="6.73574">
        <ele>2299</ele>
        <time>2021-12-21T12:58:09Z</time>
      </trkpt>
      <trkpt lat="44.82181" lon="6.73597">
        <ele>2295</ele>
        <time>2021-12-21T12:58:23Z</time>
      </trkpt>
      <trkpt lat="44.82225" lon="6.73613">
        <ele>2292</ele>
        <time>2021-12-21T12:58:35Z</time>
      </trkpt>
      <trkpt lat="44.82238" lon="6.73613">
        <ele>2291</ele>
        <time>2021-12-21T12:58:38Z</time>
      </trkpt>
      <trkpt lat="44.82254" lon="6.7361">
        <ele>2288</ele>
        <time>2021-12-21T12:58:42Z</time>
      </trkpt>
      <trkpt lat="44.82257" lon="6.73611">
        <ele>2287</ele>
        <time>2021-12-21T12:58:43Z</time>
      </trkpt>
      <trkpt lat="44.82262" lon="6.73608">
        <ele>2284</ele>
        <time>2021-12-21T12:58:45Z</time>
      </trkpt>
      <trkpt lat="44.82267" lon="6.73605">
        <ele>2283</ele>
        <time>2021-12-21T12:58:47Z</time>
      </trkpt>
      <trkpt lat="44.82266" lon="6.73601">
        <ele>2282</ele>
        <time>2021-12-21T12:58:49Z</time>
      </trkpt>
      <trkpt lat="44.82265" lon="6.73598">
        <ele>2281</ele>
        <time>2021-12-21T12:58:50Z</time>
      </trkpt>
      <trkpt lat="44.82229" lon="6.73553">
        <ele>2280</ele>
        <time>2021-12-21T12:59:02Z</time>
      </trkpt>
      <trkpt lat="44.82227" lon="6.73549">
        <ele>2280</ele>
        <time>2021-12-21T12:59:03Z</time>
      </trkpt>
      <trkpt lat="44.8222" lon="6.73537">
        <ele>2279</ele>
        <time>2021-12-21T12:59:06Z</time>
      </trkpt>
      <trkpt lat="44.82219" lon="6.73534">
        <ele>2279</ele>
        <time>2021-12-21T12:59:07Z</time>
      </trkpt>
      <trkpt lat="44.82218" lon="6.73532">
        <ele>2278</ele>
        <time>2021-12-21T12:59:10Z</time>
      </trkpt>
      <trkpt lat="44.82228" lon="6.73509">
        <ele>2279</ele>
        <time>2021-12-21T12:59:25Z</time>
      </trkpt>
      <trkpt lat="44.82231" lon="6.73505">
        <ele>2278</ele>
        <time>2021-12-21T12:59:26Z</time>
      </trkpt>
      <trkpt lat="44.82237" lon="6.73493">
        <ele>2277</ele>
        <time>2021-12-21T12:59:29Z</time>
      </trkpt>
      <trkpt lat="44.82237" lon="6.73498">
        <ele>2275</ele>
        <time>2021-12-21T12:59:32Z</time>
      </trkpt>
      <trkpt lat="44.82234" lon="6.73503">
        <ele>2275</ele>
        <time>2021-12-21T12:59:34Z</time>
      </trkpt>
      <trkpt lat="44.82229" lon="6.73505">
        <ele>2276</ele>
        <time>2021-12-21T12:59:36Z</time>
      </trkpt>
      <trkpt lat="44.82224" lon="6.73512">
        <ele>2277</ele>
        <time>2021-12-21T12:59:39Z</time>
      </trkpt>
      <trkpt lat="44.82221" lon="6.73513">
        <ele>2278</ele>
        <time>2021-12-21T12:59:42Z</time>
      </trkpt>
      <trkpt lat="44.82221" lon="6.7352">
        <ele>2280</ele>
        <time>2021-12-21T12:59:47Z</time>
      </trkpt>
      <trkpt lat="44.82222" lon="6.73523">
        <ele>2280</ele>
        <time>2021-12-21T12:59:49Z</time>
      </trkpt>
      <trkpt lat="44.82223" lon="6.73526">
        <ele>2279</ele>
        <time>2021-12-21T12:59:51Z</time>
      </trkpt>
      <trkpt lat="44.82223" lon="6.7353">
        <ele>2279</ele>
        <time>2021-12-21T12:59:53Z</time>
      </trkpt>
      <trkpt lat="44.82224" lon="6.73541">
        <ele>2277</ele>
        <time>2021-12-21T12:59:59Z</time>
      </trkpt>
      <trkpt lat="44.82223" lon="6.73553">
        <ele>2276</ele>
        <time>2021-12-21T13:00:21Z</time>
      </trkpt>
      <trkpt lat="44.82222" lon="6.73552">
        <ele>2276</ele>
        <time>2021-12-21T13:00:34Z</time>
      </trkpt>
      <trkpt lat="44.8222" lon="6.73548">
        <ele>2276</ele>
        <time>2021-12-21T13:00:54Z</time>
      </trkpt>
      <trkpt lat="44.82219" lon="6.73546">
        <ele>2276</ele>
        <time>2021-12-21T13:00:56Z</time>
      </trkpt>
      <trkpt lat="44.82188" lon="6.73484">
        <ele>2277</ele>
        <time>2021-12-21T13:01:19Z</time>
      </trkpt>
      <trkpt lat="44.82186" lon="6.73476">
        <ele>2277</ele>
        <time>2021-12-21T13:01:21Z</time>
      </trkpt>
      <trkpt lat="44.82184" lon="6.73464">
        <ele>2277</ele>
        <time>2021-12-21T13:01:23Z</time>
      </trkpt>
      <trkpt lat="44.82192" lon="6.73426">
        <ele>2272</ele>
        <time>2021-12-21T13:01:31Z</time>
      </trkpt>
      <trkpt lat="44.8219" lon="6.73388">
        <ele>2270</ele>
        <time>2021-12-21T13:01:36Z</time>
      </trkpt>
      <trkpt lat="44.82185" lon="6.73337">
        <ele>2266</ele>
        <time>2021-12-21T13:01:43Z</time>
      </trkpt>
      <trkpt lat="44.82184" lon="6.73333">
        <ele>2265</ele>
        <time>2021-12-21T13:01:45Z</time>
      </trkpt>
      <trkpt lat="44.82182" lon="6.7333">
        <ele>2262</ele>
        <time>2021-12-21T13:01:47Z</time>
      </trkpt>
      <trkpt lat="44.82183" lon="6.73324">
        <ele>2261</ele>
        <time>2021-12-21T13:01:48Z</time>
      </trkpt>
      <trkpt lat="44.82185" lon="6.73313">
        <ele>2259</ele>
        <time>2021-12-21T13:01:52Z</time>
      </trkpt>
      <trkpt lat="44.82185" lon="6.73305">
        <ele>2258</ele>
        <time>2021-12-21T13:01:58Z</time>
      </trkpt>
      <trkpt lat="44.82185" lon="6.73302">
        <ele>2258</ele>
        <time>2021-12-21T13:02:06Z</time>
      </trkpt>
      <trkpt lat="44.82188" lon="6.73304">
        <ele>2259</ele>
        <time>2021-12-21T13:02:30Z</time>
      </trkpt>
      <trkpt lat="44.8219" lon="6.73303">
        <ele>2260</ele>
        <time>2021-12-21T13:02:31Z</time>
      </trkpt>
      <trkpt lat="44.82195" lon="6.73306">
        <ele>2261</ele>
        <time>2021-12-21T13:02:37Z</time>
      </trkpt>
      <trkpt lat="44.82197" lon="6.73308">
        <ele>2261</ele>
        <time>2021-12-21T13:02:40Z</time>
      </trkpt>
      <trkpt lat="44.82198" lon="6.73306">
        <ele>2260</ele>
        <time>2021-12-21T13:02:46Z</time>
      </trkpt>
      <trkpt lat="44.82201" lon="6.73307">
        <ele>2261</ele>
        <time>2021-12-21T13:03:05Z</time>
      </trkpt>
      <trkpt lat="44.82203" lon="6.73315">
        <ele>2261</ele>
        <time>2021-12-21T13:03:28Z</time>
      </trkpt>
      <trkpt lat="44.82204" lon="6.73325">
        <ele>2261</ele>
        <time>2021-12-21T13:03:33Z</time>
      </trkpt>
      <trkpt lat="44.82208" lon="6.73337">
        <ele>2261</ele>
        <time>2021-12-21T13:03:37Z</time>
      </trkpt>
      <trkpt lat="44.8221" lon="6.73342">
        <ele>2261</ele>
        <time>2021-12-21T13:03:39Z</time>
      </trkpt>
      <trkpt lat="44.82214" lon="6.73349">
        <ele>2262</ele>
        <time>2021-12-21T13:03:42Z</time>
      </trkpt>
      <trkpt lat="44.82219" lon="6.7335">
        <ele>2262</ele>
        <time>2021-12-21T13:03:44Z</time>
      </trkpt>
      <trkpt lat="44.82222" lon="6.73349">
        <ele>2262</ele>
        <time>2021-12-21T13:03:45Z</time>
      </trkpt>
      <trkpt lat="44.82224" lon="6.73345">
        <ele>2261</ele>
        <time>2021-12-21T13:03:47Z</time>
      </trkpt>
      <trkpt lat="44.82226" lon="6.73343">
        <ele>2260</ele>
        <time>2021-12-21T13:03:49Z</time>
      </trkpt>
      <trkpt lat="44.82228" lon="6.73335">
        <ele>2256</ele>
        <time>2021-12-21T13:03:53Z</time>
      </trkpt>
      <trkpt lat="44.82228" lon="6.73319">
        <ele>2251</ele>
        <time>2021-12-21T13:03:58Z</time>
      </trkpt>
      <trkpt lat="44.82228" lon="6.73315">
        <ele>2250</ele>
        <time>2021-12-21T13:03:59Z</time>
      </trkpt>
      <trkpt lat="44.8223" lon="6.73302">
        <ele>2248</ele>
        <time>2021-12-21T13:04:02Z</time>
      </trkpt>
      <trkpt lat="44.82231" lon="6.73299">
        <ele>2248</ele>
        <time>2021-12-21T13:04:03Z</time>
      </trkpt>
      <trkpt lat="44.82233" lon="6.73294">
        <ele>2247</ele>
        <time>2021-12-21T13:04:05Z</time>
      </trkpt>
      <trkpt lat="44.82232" lon="6.73291">
        <ele>2246</ele>
        <time>2021-12-21T13:04:08Z</time>
      </trkpt>
      <trkpt lat="44.82229" lon="6.73286">
        <ele>2244</ele>
        <time>2021-12-21T13:04:15Z</time>
      </trkpt>
      <trkpt lat="44.82229" lon="6.73281">
        <ele>2244</ele>
        <time>2021-12-21T13:04:40Z</time>
      </trkpt>
      <trkpt lat="44.82226" lon="6.73273">
        <ele>2244</ele>
        <time>2021-12-21T13:04:51Z</time>
      </trkpt>
      <trkpt lat="44.82225" lon="6.73267">
        <ele>2244</ele>
        <time>2021-12-21T13:05:18Z</time>
      </trkpt>
      <trkpt lat="44.82229" lon="6.73274">
        <ele>2244</ele>
        <time>2021-12-21T13:05:25Z</time>
      </trkpt>
      <trkpt lat="44.82231" lon="6.73276">
        <ele>2245</ele>
        <time>2021-12-21T13:05:33Z</time>
      </trkpt>
      <trkpt lat="44.82238" lon="6.73279">
        <ele>2245</ele>
        <time>2021-12-21T13:05:38Z</time>
      </trkpt>
      <trkpt lat="44.82248" lon="6.73277">
        <ele>2246</ele>
        <time>2021-12-21T13:05:47Z</time>
      </trkpt>
      <trkpt lat="44.82252" lon="6.73276">
        <ele>2246</ele>
        <time>2021-12-21T13:05:57Z</time>
      </trkpt>
      <trkpt lat="44.82251" lon="6.73275">
        <ele>2246</ele>
        <time>2021-12-21T13:06:26Z</time>
      </trkpt>
      <trkpt lat="44.82253" lon="6.73283">
        <ele>2246</ele>
        <time>2021-12-21T13:06:31Z</time>
      </trkpt>
      <trkpt lat="44.82253" lon="6.73284">
        <ele>2245</ele>
        <time>2021-12-21T13:08:29Z</time>
      </trkpt>
      <trkpt lat="44.82254" lon="6.73284">
        <ele>2243</ele>
        <time>2021-12-21T13:08:41Z</time>
      </trkpt>
      <trkpt lat="44.82251" lon="6.73281">
        <ele>2243</ele>
        <time>2021-12-21T13:09:44Z</time>
      </trkpt>
      <trkpt lat="44.82252" lon="6.73282">
        <ele>2243</ele>
        <time>2021-12-21T13:13:43Z</time>
      </trkpt>
      <trkpt lat="44.82249" lon="6.73282">
        <ele>2244</ele>
        <time>2021-12-21T13:15:28Z</time>
      </trkpt>
      <trkpt lat="44.8225" lon="6.73281">
        <ele>2245</ele>
        <time>2021-12-21T13:16:16Z</time>
      </trkpt>
      <trkpt lat="44.8225" lon="6.73284">
        <ele>2245</ele>
        <time>2021-12-21T13:16:20Z</time>
      </trkpt>
      <trkpt lat="44.82252" lon="6.73286">
        <ele>2245</ele>
        <time>2021-12-21T13:16:27Z</time>
      </trkpt>
      <trkpt lat="44.82245" lon="6.73285">
        <ele>2243</ele>
        <time>2021-12-21T13:16:41Z</time>
      </trkpt>
      <trkpt lat="44.82254" lon="6.73286">
        <ele>2239</ele>
        <time>2021-12-21T13:17:38Z</time>
      </trkpt>
      <trkpt lat="44.82251" lon="6.73284">
        <ele>2238</ele>
        <time>2021-12-21T13:18:36Z</time>
      </trkpt>
      <trkpt lat="44.82252" lon="6.73284">
        <ele>2238</ele>
        <time>2021-12-21T13:18:51Z</time>
      </trkpt>
      <trkpt lat="44.82253" lon="6.73286">
        <ele>2238</ele>
        <time>2021-12-21T13:19:38Z</time>
      </trkpt>
      <trkpt lat="44.82257" lon="6.73301">
        <ele>2239</ele>
        <time>2021-12-21T13:19:53Z</time>
      </trkpt>
      <trkpt lat="44.82257" lon="6.73301">
        <ele>2239</ele>
        <time>2021-12-21T13:20:03Z</time>
      </trkpt>
      <trkpt lat="44.82258" lon="6.73305">
        <ele>2237</ele>
        <time>2021-12-21T13:22:22Z</time>
      </trkpt>
      <trkpt lat="44.82258" lon="6.73308">
        <ele>2238</ele>
        <time>2021-12-21T13:22:28Z</time>
      </trkpt>
      <trkpt lat="44.8226" lon="6.73307">
        <ele>2238</ele>
        <time>2021-12-21T13:23:01Z</time>
      </trkpt>
      <trkpt lat="44.8226" lon="6.73304">
        <ele>2238</ele>
        <time>2021-12-21T13:23:02Z</time>
      </trkpt>
      <trkpt lat="44.8226" lon="6.73303">
        <ele>2238</ele>
        <time>2021-12-21T13:23:48Z</time>
      </trkpt>
      <trkpt lat="44.82262" lon="6.73303">
        <ele>2238</ele>
        <time>2021-12-21T13:23:54Z</time>
      </trkpt>
      <trkpt lat="44.8226" lon="6.73307">
        <ele>2238</ele>
        <time>2021-12-21T13:24:03Z</time>
      </trkpt>
      <trkpt lat="44.82259" lon="6.73306">
        <ele>2237</ele>
        <time>2021-12-21T13:24:22Z</time>
      </trkpt>
      <trkpt lat="44.82259" lon="6.73303">
        <ele>2237</ele>
        <time>2021-12-21T13:24:27Z</time>
      </trkpt>
      <trkpt lat="44.82259" lon="6.733">
        <ele>2238</ele>
        <time>2021-12-21T13:24:31Z</time>
      </trkpt>
      <trkpt lat="44.82258" lon="6.73293">
        <ele>2238</ele>
        <time>2021-12-21T13:24:35Z</time>
      </trkpt>
      <trkpt lat="44.82255" lon="6.73283">
        <ele>2239</ele>
        <time>2021-12-21T13:24:41Z</time>
      </trkpt>
      <trkpt lat="44.82253" lon="6.73281">
        <ele>2239</ele>
        <time>2021-12-21T13:24:45Z</time>
      </trkpt>
      <trkpt lat="44.82252" lon="6.73278">
        <ele>2239</ele>
        <time>2021-12-21T13:24:47Z</time>
      </trkpt>
      <trkpt lat="44.82251" lon="6.73277">
        <ele>2239</ele>
        <time>2021-12-21T13:24:50Z</time>
      </trkpt>
      <trkpt lat="44.82253" lon="6.73275">
        <ele>2239</ele>
        <time>2021-12-21T13:25:26Z</time>
      </trkpt>
      <trkpt lat="44.82252" lon="6.73276">
        <ele>2238</ele>
        <time>2021-12-21T13:25:56Z</time>
      </trkpt>
      <trkpt lat="44.8225" lon="6.73275">
        <ele>2238</ele>
        <time>2021-12-21T13:25:59Z</time>
      </trkpt>
      <trkpt lat="44.82248" lon="6.73278">
        <ele>2238</ele>
        <time>2021-12-21T13:26:02Z</time>
      </trkpt>
      <trkpt lat="44.82248" lon="6.73279">
        <ele>2238</ele>
        <time>2021-12-21T13:26:06Z</time>
      </trkpt>
      <trkpt lat="44.82229" lon="6.73276">
        <ele>2240</ele>
        <time>2021-12-21T13:26:35Z</time>
      </trkpt>
      <trkpt lat="44.82227" lon="6.73275">
        <ele>2240</ele>
        <time>2021-12-21T13:26:40Z</time>
      </trkpt>
      <trkpt lat="44.82225" lon="6.73263">
        <ele>2241</ele>
        <time>2021-12-21T13:26:50Z</time>
      </trkpt>
      <trkpt lat="44.82224" lon="6.73256">
        <ele>2241</ele>
        <time>2021-12-21T13:26:55Z</time>
      </trkpt>
      <trkpt lat="44.82224" lon="6.73251">
        <ele>2242</ele>
        <time>2021-12-21T13:26:58Z</time>
      </trkpt>
      <trkpt lat="44.82218" lon="6.73232">
        <ele>2242</ele>
        <time>2021-12-21T13:27:13Z</time>
      </trkpt>
      <trkpt lat="44.82217" lon="6.7323">
        <ele>2242</ele>
        <time>2021-12-21T13:27:15Z</time>
      </trkpt>
      <trkpt lat="44.82214" lon="6.73222">
        <ele>2243</ele>
        <time>2021-12-21T13:27:28Z</time>
      </trkpt>
      <trkpt lat="44.8221" lon="6.73206">
        <ele>2244</ele>
        <time>2021-12-21T13:27:45Z</time>
      </trkpt>
      <trkpt lat="44.8221" lon="6.73203">
        <ele>2244</ele>
        <time>2021-12-21T13:27:47Z</time>
      </trkpt>
      <trkpt lat="44.8221" lon="6.732">
        <ele>2244</ele>
        <time>2021-12-21T13:27:49Z</time>
      </trkpt>
      <trkpt lat="44.82209" lon="6.73198">
        <ele>2244</ele>
        <time>2021-12-21T13:27:51Z</time>
      </trkpt>
      <trkpt lat="44.82208" lon="6.73194">
        <ele>2244</ele>
        <time>2021-12-21T13:27:54Z</time>
      </trkpt>
      <trkpt lat="44.82206" lon="6.73192">
        <ele>2245</ele>
        <time>2021-12-21T13:27:56Z</time>
      </trkpt>
      <trkpt lat="44.82205" lon="6.7319">
        <ele>2245</ele>
        <time>2021-12-21T13:28:00Z</time>
      </trkpt>
      <trkpt lat="44.82203" lon="6.73188">
        <ele>2244</ele>
        <time>2021-12-21T13:28:03Z</time>
      </trkpt>
      <trkpt lat="44.82202" lon="6.73186">
        <ele>2244</ele>
        <time>2021-12-21T13:28:07Z</time>
      </trkpt>
      <trkpt lat="44.82186" lon="6.73167">
        <ele>2246</ele>
        <time>2021-12-21T13:28:37Z</time>
      </trkpt>
      <trkpt lat="44.82185" lon="6.73162">
        <ele>2247</ele>
        <time>2021-12-21T13:28:43Z</time>
      </trkpt>
      <trkpt lat="44.82183" lon="6.7316">
        <ele>2248</ele>
        <time>2021-12-21T13:28:46Z</time>
      </trkpt>
      <trkpt lat="44.8218" lon="6.73156">
        <ele>2249</ele>
        <time>2021-12-21T13:28:53Z</time>
      </trkpt>
      <trkpt lat="44.82174" lon="6.73148">
        <ele>2250</ele>
        <time>2021-12-21T13:29:22Z</time>
      </trkpt>
      <trkpt lat="44.82166" lon="6.73133">
        <ele>2250</ele>
        <time>2021-12-21T13:29:38Z</time>
      </trkpt>
      <trkpt lat="44.82158" lon="6.73121">
        <ele>2250</ele>
        <time>2021-12-21T13:29:54Z</time>
      </trkpt>
      <trkpt lat="44.82147" lon="6.73093">
        <ele>2249</ele>
        <time>2021-12-21T13:30:24Z</time>
      </trkpt>
      <trkpt lat="44.82147" lon="6.7309">
        <ele>2249</ele>
        <time>2021-12-21T13:30:29Z</time>
      </trkpt>
      <trkpt lat="44.82147" lon="6.73087">
        <ele>2249</ele>
        <time>2021-12-21T13:30:33Z</time>
      </trkpt>
      <trkpt lat="44.82146" lon="6.73084">
        <ele>2248</ele>
        <time>2021-12-21T13:30:37Z</time>
      </trkpt>
      <trkpt lat="44.82145" lon="6.73081">
        <ele>2248</ele>
        <time>2021-12-21T13:30:39Z</time>
      </trkpt>
      <trkpt lat="44.82143" lon="6.73072">
        <ele>2248</ele>
        <time>2021-12-21T13:30:48Z</time>
      </trkpt>
      <trkpt lat="44.82139" lon="6.73063">
        <ele>2248</ele>
        <time>2021-12-21T13:30:56Z</time>
      </trkpt>
      <trkpt lat="44.82138" lon="6.7306">
        <ele>2248</ele>
        <time>2021-12-21T13:31:00Z</time>
      </trkpt>
      <trkpt lat="44.8214" lon="6.73058">
        <ele>2248</ele>
        <time>2021-12-21T13:31:04Z</time>
      </trkpt>
      <trkpt lat="44.82139" lon="6.73055">
        <ele>2248</ele>
        <time>2021-12-21T13:31:07Z</time>
      </trkpt>
      <trkpt lat="44.82138" lon="6.73048">
        <ele>2248</ele>
        <time>2021-12-21T13:31:11Z</time>
      </trkpt>
      <trkpt lat="44.82139" lon="6.73042">
        <ele>2249</ele>
        <time>2021-12-21T13:31:16Z</time>
      </trkpt>
      <trkpt lat="44.82138" lon="6.73038">
        <ele>2249</ele>
        <time>2021-12-21T13:31:19Z</time>
      </trkpt>
      <trkpt lat="44.8214" lon="6.73031">
        <ele>2250</ele>
        <time>2021-12-21T13:31:26Z</time>
      </trkpt>
      <trkpt lat="44.82142" lon="6.73031">
        <ele>2251</ele>
        <time>2021-12-21T13:31:30Z</time>
      </trkpt>
      <trkpt lat="44.82144" lon="6.73031">
        <ele>2252</ele>
        <time>2021-12-21T13:31:36Z</time>
      </trkpt>
      <trkpt lat="44.82146" lon="6.73029">
        <ele>2252</ele>
        <time>2021-12-21T13:31:39Z</time>
      </trkpt>
      <trkpt lat="44.82147" lon="6.73025">
        <ele>2253</ele>
        <time>2021-12-21T13:31:55Z</time>
      </trkpt>
      <trkpt lat="44.82146" lon="6.73022">
        <ele>2253</ele>
        <time>2021-12-21T13:32:21Z</time>
      </trkpt>
      <trkpt lat="44.82147" lon="6.73019">
        <ele>2255</ele>
        <time>2021-12-21T13:32:32Z</time>
      </trkpt>
      <trkpt lat="44.82148" lon="6.73012">
        <ele>2254</ele>
        <time>2021-12-21T13:32:47Z</time>
      </trkpt>
      <trkpt lat="44.82149" lon="6.73008">
        <ele>2254</ele>
        <time>2021-12-21T13:32:57Z</time>
      </trkpt>
      <trkpt lat="44.82147" lon="6.73001">
        <ele>2254</ele>
        <time>2021-12-21T13:33:03Z</time>
      </trkpt>
      <trkpt lat="44.82146" lon="6.72999">
        <ele>2254</ele>
        <time>2021-12-21T13:33:05Z</time>
      </trkpt>
      <trkpt lat="44.82144" lon="6.72993">
        <ele>2254</ele>
        <time>2021-12-21T13:33:11Z</time>
      </trkpt>
      <trkpt lat="44.82144" lon="6.7299">
        <ele>2254</ele>
        <time>2021-12-21T13:33:13Z</time>
      </trkpt>
      <trkpt lat="44.82143" lon="6.72987">
        <ele>2254</ele>
        <time>2021-12-21T13:33:17Z</time>
      </trkpt>
      <trkpt lat="44.8214" lon="6.72975">
        <ele>2254</ele>
        <time>2021-12-21T13:33:30Z</time>
      </trkpt>
      <trkpt lat="44.82139" lon="6.72972">
        <ele>2254</ele>
        <time>2021-12-21T13:33:36Z</time>
      </trkpt>
      <trkpt lat="44.82139" lon="6.72968">
        <ele>2254</ele>
        <time>2021-12-21T13:33:40Z</time>
      </trkpt>
      <trkpt lat="44.82139" lon="6.72964">
        <ele>2254</ele>
        <time>2021-12-21T13:33:43Z</time>
      </trkpt>
      <trkpt lat="44.82138" lon="6.72958">
        <ele>2254</ele>
        <time>2021-12-21T13:33:48Z</time>
      </trkpt>
      <trkpt lat="44.82137" lon="6.72956">
        <ele>2255</ele>
        <time>2021-12-21T13:33:51Z</time>
      </trkpt>
      <trkpt lat="44.82137" lon="6.72952">
        <ele>2255</ele>
        <time>2021-12-21T13:33:55Z</time>
      </trkpt>
      <trkpt lat="44.82137" lon="6.72949">
        <ele>2255</ele>
        <time>2021-12-21T13:33:56Z</time>
      </trkpt>
      <trkpt lat="44.82138" lon="6.72948">
        <ele>2255</ele>
        <time>2021-12-21T13:33:59Z</time>
      </trkpt>
      <trkpt lat="44.82141" lon="6.72944">
        <ele>2256</ele>
        <time>2021-12-21T13:34:03Z</time>
      </trkpt>
      <trkpt lat="44.82143" lon="6.72942">
        <ele>2256</ele>
        <time>2021-12-21T13:34:06Z</time>
      </trkpt>
      <trkpt lat="44.82148" lon="6.7294">
        <ele>2257</ele>
        <time>2021-12-21T13:34:12Z</time>
      </trkpt>
      <trkpt lat="44.82157" lon="6.72938">
        <ele>2258</ele>
        <time>2021-12-21T13:34:24Z</time>
      </trkpt>
      <trkpt lat="44.82159" lon="6.72939">
        <ele>2258</ele>
        <time>2021-12-21T13:34:28Z</time>
      </trkpt>
      <trkpt lat="44.82159" lon="6.72936">
        <ele>2258</ele>
        <time>2021-12-21T13:34:31Z</time>
      </trkpt>
      <trkpt lat="44.82162" lon="6.72935">
        <ele>2258</ele>
        <time>2021-12-21T13:35:08Z</time>
      </trkpt>
      <trkpt lat="44.82168" lon="6.72924">
        <ele>2259</ele>
        <time>2021-12-21T13:35:18Z</time>
      </trkpt>
      <trkpt lat="44.82169" lon="6.72918">
        <ele>2259</ele>
        <time>2021-12-21T13:35:25Z</time>
      </trkpt>
      <trkpt lat="44.82174" lon="6.72898">
        <ele>2261</ele>
        <time>2021-12-21T13:35:46Z</time>
      </trkpt>
      <trkpt lat="44.82174" lon="6.72895">
        <ele>2261</ele>
        <time>2021-12-21T13:35:48Z</time>
      </trkpt>
      <trkpt lat="44.82173" lon="6.72892">
        <ele>2261</ele>
        <time>2021-12-21T13:35:51Z</time>
      </trkpt>
      <trkpt lat="44.82171" lon="6.72866">
        <ele>2261</ele>
        <time>2021-12-21T13:36:11Z</time>
      </trkpt>
      <trkpt lat="44.82171" lon="6.72856">
        <ele>2261</ele>
        <time>2021-12-21T13:36:20Z</time>
      </trkpt>
      <trkpt lat="44.8217" lon="6.72851">
        <ele>2261</ele>
        <time>2021-12-21T13:36:26Z</time>
      </trkpt>
      <trkpt lat="44.82172" lon="6.72816">
        <ele>2262</ele>
        <time>2021-12-21T13:36:57Z</time>
      </trkpt>
      <trkpt lat="44.82173" lon="6.72813">
        <ele>2262</ele>
        <time>2021-12-21T13:37:00Z</time>
      </trkpt>
      <trkpt lat="44.82174" lon="6.72801">
        <ele>2262</ele>
        <time>2021-12-21T13:37:12Z</time>
      </trkpt>
      <trkpt lat="44.82173" lon="6.72799">
        <ele>2262</ele>
        <time>2021-12-21T13:37:15Z</time>
      </trkpt>
      <trkpt lat="44.82171" lon="6.7279">
        <ele>2262</ele>
        <time>2021-12-21T13:37:24Z</time>
      </trkpt>
      <trkpt lat="44.8217" lon="6.72787">
        <ele>2261</ele>
        <time>2021-12-21T13:37:29Z</time>
      </trkpt>
      <trkpt lat="44.82168" lon="6.72787">
        <ele>2261</ele>
        <time>2021-12-21T13:37:33Z</time>
      </trkpt>
      <trkpt lat="44.82167" lon="6.72785">
        <ele>2261</ele>
        <time>2021-12-21T13:37:35Z</time>
      </trkpt>
      <trkpt lat="44.82164" lon="6.72776">
        <ele>2261</ele>
        <time>2021-12-21T13:37:43Z</time>
      </trkpt>
      <trkpt lat="44.82163" lon="6.72773">
        <ele>2261</ele>
        <time>2021-12-21T13:37:46Z</time>
      </trkpt>
      <trkpt lat="44.82163" lon="6.72767">
        <ele>2261</ele>
        <time>2021-12-21T13:38:08Z</time>
      </trkpt>
      <trkpt lat="44.82162" lon="6.72764">
        <ele>2261</ele>
        <time>2021-12-21T13:38:11Z</time>
      </trkpt>
      <trkpt lat="44.82163" lon="6.72761">
        <ele>2261</ele>
        <time>2021-12-21T13:38:23Z</time>
      </trkpt>
      <trkpt lat="44.82165" lon="6.72763">
        <ele>2262</ele>
        <time>2021-12-21T13:38:32Z</time>
      </trkpt>
      <trkpt lat="44.82165" lon="6.7276">
        <ele>2262</ele>
        <time>2021-12-21T13:38:34Z</time>
      </trkpt>
      <trkpt lat="44.82169" lon="6.72754">
        <ele>2262</ele>
        <time>2021-12-21T13:38:41Z</time>
      </trkpt>
      <trkpt lat="44.82172" lon="6.72754">
        <ele>2262</ele>
        <time>2021-12-21T13:38:44Z</time>
      </trkpt>
      <trkpt lat="44.82175" lon="6.72754">
        <ele>2262</ele>
        <time>2021-12-21T13:38:47Z</time>
      </trkpt>
      <trkpt lat="44.82179" lon="6.72753">
        <ele>2261</ele>
        <time>2021-12-21T13:38:53Z</time>
      </trkpt>
      <trkpt lat="44.82183" lon="6.72749">
        <ele>2261</ele>
        <time>2021-12-21T13:39:03Z</time>
      </trkpt>
      <trkpt lat="44.82185" lon="6.72749">
        <ele>2261</ele>
        <time>2021-12-21T13:39:10Z</time>
      </trkpt>
      <trkpt lat="44.82192" lon="6.72745">
        <ele>2263</ele>
        <time>2021-12-21T13:39:23Z</time>
      </trkpt>
      <trkpt lat="44.82204" lon="6.72741">
        <ele>2265</ele>
        <time>2021-12-21T13:39:41Z</time>
      </trkpt>
      <trkpt lat="44.8221" lon="6.72738">
        <ele>2266</ele>
        <time>2021-12-21T13:39:49Z</time>
      </trkpt>
      <trkpt lat="44.82212" lon="6.72738">
        <ele>2267</ele>
        <time>2021-12-21T13:39:55Z</time>
      </trkpt>
      <trkpt lat="44.82212" lon="6.72735">
        <ele>2267</ele>
        <time>2021-12-21T13:39:58Z</time>
      </trkpt>
      <trkpt lat="44.82212" lon="6.72732">
        <ele>2267</ele>
        <time>2021-12-21T13:40:00Z</time>
      </trkpt>
      <trkpt lat="44.82212" lon="6.72729">
        <ele>2267</ele>
        <time>2021-12-21T13:40:02Z</time>
      </trkpt>
      <trkpt lat="44.82211" lon="6.72726">
        <ele>2267</ele>
        <time>2021-12-21T13:40:05Z</time>
      </trkpt>
      <trkpt lat="44.8221" lon="6.72724">
        <ele>2267</ele>
        <time>2021-12-21T13:40:10Z</time>
      </trkpt>
      <trkpt lat="44.82208" lon="6.72722">
        <ele>2266</ele>
        <time>2021-12-21T13:40:12Z</time>
      </trkpt>
      <trkpt lat="44.82207" lon="6.72717">
        <ele>2266</ele>
        <time>2021-12-21T13:40:19Z</time>
      </trkpt>
      <trkpt lat="44.82206" lon="6.72715">
        <ele>2266</ele>
        <time>2021-12-21T13:40:23Z</time>
      </trkpt>
      <trkpt lat="44.82204" lon="6.72709">
        <ele>2266</ele>
        <time>2021-12-21T13:40:31Z</time>
      </trkpt>
      <trkpt lat="44.82204" lon="6.72691">
        <ele>2269</ele>
        <time>2021-12-21T13:41:01Z</time>
      </trkpt>
      <trkpt lat="44.82204" lon="6.72685">
        <ele>2269</ele>
        <time>2021-12-21T13:41:07Z</time>
      </trkpt>
      <trkpt lat="44.82204" lon="6.72683">
        <ele>2269</ele>
        <time>2021-12-21T13:41:12Z</time>
      </trkpt>
      <trkpt lat="44.82207" lon="6.72672">
        <ele>2270</ele>
        <time>2021-12-21T13:41:29Z</time>
      </trkpt>
      <trkpt lat="44.82207" lon="6.72669">
        <ele>2270</ele>
        <time>2021-12-21T13:41:33Z</time>
      </trkpt>
      <trkpt lat="44.82206" lon="6.72666">
        <ele>2271</ele>
        <time>2021-12-21T13:41:36Z</time>
      </trkpt>
      <trkpt lat="44.82207" lon="6.72663">
        <ele>2271</ele>
        <time>2021-12-21T13:41:39Z</time>
      </trkpt>
      <trkpt lat="44.82209" lon="6.72657">
        <ele>2272</ele>
        <time>2021-12-21T13:41:48Z</time>
      </trkpt>
      <trkpt lat="44.8221" lon="6.72646">
        <ele>2272</ele>
        <time>2021-12-21T13:41:55Z</time>
      </trkpt>
      <trkpt lat="44.82212" lon="6.72643">
        <ele>2272</ele>
        <time>2021-12-21T13:41:59Z</time>
      </trkpt>
      <trkpt lat="44.82213" lon="6.72637">
        <ele>2273</ele>
        <time>2021-12-21T13:42:08Z</time>
      </trkpt>
      <trkpt lat="44.82213" lon="6.72634">
        <ele>2273</ele>
        <time>2021-12-21T13:42:13Z</time>
      </trkpt>
      <trkpt lat="44.82214" lon="6.72632">
        <ele>2273</ele>
        <time>2021-12-21T13:42:17Z</time>
      </trkpt>
      <trkpt lat="44.82213" lon="6.7263">
        <ele>2273</ele>
        <time>2021-12-21T13:42:22Z</time>
      </trkpt>
      <trkpt lat="44.82212" lon="6.72628">
        <ele>2273</ele>
        <time>2021-12-21T13:42:30Z</time>
      </trkpt>
      <trkpt lat="44.8221" lon="6.72621">
        <ele>2273</ele>
        <time>2021-12-21T13:42:40Z</time>
      </trkpt>
      <trkpt lat="44.82209" lon="6.72618">
        <ele>2273</ele>
        <time>2021-12-21T13:42:42Z</time>
      </trkpt>
      <trkpt lat="44.82199" lon="6.72606">
        <ele>2273</ele>
        <time>2021-12-21T13:43:06Z</time>
      </trkpt>
      <trkpt lat="44.82197" lon="6.726">
        <ele>2273</ele>
        <time>2021-12-21T13:43:14Z</time>
      </trkpt>
      <trkpt lat="44.82195" lon="6.72598">
        <ele>2273</ele>
        <time>2021-12-21T13:43:20Z</time>
      </trkpt>
      <trkpt lat="44.82194" lon="6.72595">
        <ele>2273</ele>
        <time>2021-12-21T13:43:24Z</time>
      </trkpt>
      <trkpt lat="44.82192" lon="6.72592">
        <ele>2273</ele>
        <time>2021-12-21T13:43:27Z</time>
      </trkpt>
      <trkpt lat="44.82193" lon="6.72587">
        <ele>2273</ele>
        <time>2021-12-21T13:43:32Z</time>
      </trkpt>
      <trkpt lat="44.82194" lon="6.72584">
        <ele>2274</ele>
        <time>2021-12-21T13:43:38Z</time>
      </trkpt>
      <trkpt lat="44.82195" lon="6.72581">
        <ele>2274</ele>
        <time>2021-12-21T13:43:42Z</time>
      </trkpt>
      <trkpt lat="44.82195" lon="6.72578">
        <ele>2275</ele>
        <time>2021-12-21T13:43:45Z</time>
      </trkpt>
      <trkpt lat="44.82192" lon="6.72576">
        <ele>2275</ele>
        <time>2021-12-21T13:43:49Z</time>
      </trkpt>
      <trkpt lat="44.82192" lon="6.72572">
        <ele>2275</ele>
        <time>2021-12-21T13:43:53Z</time>
      </trkpt>
      <trkpt lat="44.82195" lon="6.72569">
        <ele>2274</ele>
        <time>2021-12-21T13:43:56Z</time>
      </trkpt>
      <trkpt lat="44.82198" lon="6.72568">
        <ele>2273</ele>
        <time>2021-12-21T13:44:01Z</time>
      </trkpt>
      <trkpt lat="44.82198" lon="6.72565">
        <ele>2273</ele>
        <time>2021-12-21T13:44:06Z</time>
      </trkpt>
      <trkpt lat="44.82199" lon="6.72563">
        <ele>2273</ele>
        <time>2021-12-21T13:44:24Z</time>
      </trkpt>
      <trkpt lat="44.82195" lon="6.7256">
        <ele>2274</ele>
        <time>2021-12-21T13:44:41Z</time>
      </trkpt>
      <trkpt lat="44.82193" lon="6.7256">
        <ele>2274</ele>
        <time>2021-12-21T13:44:50Z</time>
      </trkpt>
      <trkpt lat="44.82187" lon="6.72556">
        <ele>2274</ele>
        <time>2021-12-21T13:45:16Z</time>
      </trkpt>
      <trkpt lat="44.82185" lon="6.72554">
        <ele>2274</ele>
        <time>2021-12-21T13:45:19Z</time>
      </trkpt>
      <trkpt lat="44.82183" lon="6.72553">
        <ele>2274</ele>
        <time>2021-12-21T13:45:22Z</time>
      </trkpt>
      <trkpt lat="44.8218" lon="6.72554">
        <ele>2274</ele>
        <time>2021-12-21T13:45:26Z</time>
      </trkpt>
      <trkpt lat="44.82178" lon="6.72553">
        <ele>2273</ele>
        <time>2021-12-21T13:45:29Z</time>
      </trkpt>
      <trkpt lat="44.82173" lon="6.72549">
        <ele>2273</ele>
        <time>2021-12-21T13:45:36Z</time>
      </trkpt>
      <trkpt lat="44.82171" lon="6.72547">
        <ele>2273</ele>
        <time>2021-12-21T13:45:40Z</time>
      </trkpt>
      <trkpt lat="44.82169" lon="6.72545">
        <ele>2273</ele>
        <time>2021-12-21T13:45:44Z</time>
      </trkpt>
      <trkpt lat="44.82168" lon="6.72543">
        <ele>2273</ele>
        <time>2021-12-21T13:45:53Z</time>
      </trkpt>
      <trkpt lat="44.82165" lon="6.72541">
        <ele>2273</ele>
        <time>2021-12-21T13:45:56Z</time>
      </trkpt>
      <trkpt lat="44.82161" lon="6.72538">
        <ele>2274</ele>
        <time>2021-12-21T13:46:09Z</time>
      </trkpt>
      <trkpt lat="44.82159" lon="6.72535">
        <ele>2275</ele>
        <time>2021-12-21T13:46:11Z</time>
      </trkpt>
      <trkpt lat="44.82155" lon="6.72531">
        <ele>2276</ele>
        <time>2021-12-21T13:46:28Z</time>
      </trkpt>
      <trkpt lat="44.82153" lon="6.72531">
        <ele>2278</ele>
        <time>2021-12-21T13:46:39Z</time>
      </trkpt>
      <trkpt lat="44.8215" lon="6.7253">
        <ele>2279</ele>
        <time>2021-12-21T13:46:44Z</time>
      </trkpt>
      <trkpt lat="44.82149" lon="6.72528">
        <ele>2279</ele>
        <time>2021-12-21T13:46:48Z</time>
      </trkpt>
      <trkpt lat="44.82147" lon="6.72528">
        <ele>2280</ele>
        <time>2021-12-21T13:46:50Z</time>
      </trkpt>
      <trkpt lat="44.82145" lon="6.72526">
        <ele>2280</ele>
        <time>2021-12-21T13:47:03Z</time>
      </trkpt>
      <trkpt lat="44.82144" lon="6.72524">
        <ele>2280</ele>
        <time>2021-12-21T13:47:06Z</time>
      </trkpt>
      <trkpt lat="44.82142" lon="6.72517">
        <ele>2281</ele>
        <time>2021-12-21T13:47:12Z</time>
      </trkpt>
      <trkpt lat="44.82141" lon="6.72514">
        <ele>2281</ele>
        <time>2021-12-21T13:47:15Z</time>
      </trkpt>
      <trkpt lat="44.8214" lon="6.72508">
        <ele>2281</ele>
        <time>2021-12-21T13:47:22Z</time>
      </trkpt>
      <trkpt lat="44.8214" lon="6.72505">
        <ele>2282</ele>
        <time>2021-12-21T13:47:26Z</time>
      </trkpt>
      <trkpt lat="44.82141" lon="6.72506">
        <ele>2281</ele>
        <time>2021-12-21T13:48:16Z</time>
      </trkpt>
      <trkpt lat="44.82143" lon="6.72502">
        <ele>2279</ele>
        <time>2021-12-21T13:48:25Z</time>
      </trkpt>
      <trkpt lat="44.82141" lon="6.72498">
        <ele>2278</ele>
        <time>2021-12-21T13:48:36Z</time>
      </trkpt>
      <trkpt lat="44.82141" lon="6.72493">
        <ele>2278</ele>
        <time>2021-12-21T13:48:47Z</time>
      </trkpt>
      <trkpt lat="44.82142" lon="6.72489">
        <ele>2279</ele>
        <time>2021-12-21T13:48:53Z</time>
      </trkpt>
      <trkpt lat="44.82141" lon="6.72485">
        <ele>2280</ele>
        <time>2021-12-21T13:48:58Z</time>
      </trkpt>
      <trkpt lat="44.82142" lon="6.7248">
        <ele>2281</ele>
        <time>2021-12-21T13:49:02Z</time>
      </trkpt>
      <trkpt lat="44.82144" lon="6.72471">
        <ele>2281</ele>
        <time>2021-12-21T13:49:08Z</time>
      </trkpt>
      <trkpt lat="44.82145" lon="6.72466">
        <ele>2282</ele>
        <time>2021-12-21T13:49:12Z</time>
      </trkpt>
      <trkpt lat="44.8215" lon="6.72449">
        <ele>2283</ele>
        <time>2021-12-21T13:49:30Z</time>
      </trkpt>
      <trkpt lat="44.82151" lon="6.72444">
        <ele>2283</ele>
        <time>2021-12-21T13:49:33Z</time>
      </trkpt>
      <trkpt lat="44.82151" lon="6.72434">
        <ele>2284</ele>
        <time>2021-12-21T13:49:41Z</time>
      </trkpt>
      <trkpt lat="44.82153" lon="6.72423">
        <ele>2285</ele>
        <time>2021-12-21T13:49:52Z</time>
      </trkpt>
      <trkpt lat="44.82154" lon="6.72419">
        <ele>2286</ele>
        <time>2021-12-21T13:49:55Z</time>
      </trkpt>
      <trkpt lat="44.82154" lon="6.72415">
        <ele>2287</ele>
        <time>2021-12-21T13:50:01Z</time>
      </trkpt>
      <trkpt lat="44.82154" lon="6.72412">
        <ele>2288</ele>
        <time>2021-12-21T13:50:07Z</time>
      </trkpt>
      <trkpt lat="44.82155" lon="6.72411">
        <ele>2289</ele>
        <time>2021-12-21T13:50:16Z</time>
      </trkpt>
      <trkpt lat="44.82154" lon="6.72407">
        <ele>2289</ele>
        <time>2021-12-21T13:50:26Z</time>
      </trkpt>
      <trkpt lat="44.82157" lon="6.72407">
        <ele>2289</ele>
        <time>2021-12-21T13:50:30Z</time>
      </trkpt>
      <trkpt lat="44.82155" lon="6.72407">
        <ele>2289</ele>
        <time>2021-12-21T13:50:39Z</time>
      </trkpt>
      <trkpt lat="44.82154" lon="6.72402">
        <ele>2287</ele>
        <time>2021-12-21T13:50:42Z</time>
      </trkpt>
      <trkpt lat="44.82153" lon="6.72398">
        <ele>2286</ele>
        <time>2021-12-21T13:50:45Z</time>
      </trkpt>
      <trkpt lat="44.82152" lon="6.72394">
        <ele>2285</ele>
        <time>2021-12-21T13:50:49Z</time>
      </trkpt>
      <trkpt lat="44.82155" lon="6.72393">
        <ele>2284</ele>
        <time>2021-12-21T13:50:58Z</time>
      </trkpt>
      <trkpt lat="44.82155" lon="6.72389">
        <ele>2284</ele>
        <time>2021-12-21T13:51:02Z</time>
      </trkpt>
      <trkpt lat="44.82154" lon="6.72385">
        <ele>2283</ele>
        <time>2021-12-21T13:51:06Z</time>
      </trkpt>
      <trkpt lat="44.82152" lon="6.72381">
        <ele>2283</ele>
        <time>2021-12-21T13:51:11Z</time>
      </trkpt>
      <trkpt lat="44.82152" lon="6.72376">
        <ele>2283</ele>
        <time>2021-12-21T13:51:14Z</time>
      </trkpt>
      <trkpt lat="44.82151" lon="6.72373">
        <ele>2283</ele>
        <time>2021-12-21T13:51:17Z</time>
      </trkpt>
      <trkpt lat="44.8215" lon="6.72369">
        <ele>2283</ele>
        <time>2021-12-21T13:51:21Z</time>
      </trkpt>
      <trkpt lat="44.82149" lon="6.72364">
        <ele>2283</ele>
        <time>2021-12-21T13:51:27Z</time>
      </trkpt>
      <trkpt lat="44.82149" lon="6.72361">
        <ele>2284</ele>
        <time>2021-12-21T13:51:37Z</time>
      </trkpt>
      <trkpt lat="44.8215" lon="6.72357">
        <ele>2284</ele>
        <time>2021-12-21T13:51:40Z</time>
      </trkpt>
      <trkpt lat="44.82151" lon="6.7235">
        <ele>2284</ele>
        <time>2021-12-21T13:51:54Z</time>
      </trkpt>
      <trkpt lat="44.82153" lon="6.72345">
        <ele>2285</ele>
        <time>2021-12-21T13:52:04Z</time>
      </trkpt>
      <trkpt lat="44.82153" lon="6.7234">
        <ele>2285</ele>
        <time>2021-12-21T13:52:09Z</time>
      </trkpt>
      <trkpt lat="44.82154" lon="6.72336">
        <ele>2285</ele>
        <time>2021-12-21T13:52:13Z</time>
      </trkpt>
      <trkpt lat="44.82157" lon="6.72327">
        <ele>2285</ele>
        <time>2021-12-21T13:52:23Z</time>
      </trkpt>
      <trkpt lat="44.82159" lon="6.72324">
        <ele>2286</ele>
        <time>2021-12-21T13:52:31Z</time>
      </trkpt>
      <trkpt lat="44.82161" lon="6.72321">
        <ele>2286</ele>
        <time>2021-12-21T13:52:36Z</time>
      </trkpt>
      <trkpt lat="44.82169" lon="6.72326">
        <ele>2285</ele>
        <time>2021-12-21T13:52:52Z</time>
      </trkpt>
      <trkpt lat="44.82171" lon="6.72323">
        <ele>2284</ele>
        <time>2021-12-21T13:52:59Z</time>
      </trkpt>
      <trkpt lat="44.82173" lon="6.72319">
        <ele>2284</ele>
        <time>2021-12-21T13:53:05Z</time>
      </trkpt>
      <trkpt lat="44.82176" lon="6.72319">
        <ele>2284</ele>
        <time>2021-12-21T13:53:07Z</time>
      </trkpt>
      <trkpt lat="44.82179" lon="6.72313">
        <ele>2285</ele>
        <time>2021-12-21T13:53:15Z</time>
      </trkpt>
      <trkpt lat="44.82181" lon="6.72307">
        <ele>2286</ele>
        <time>2021-12-21T13:53:21Z</time>
      </trkpt>
      <trkpt lat="44.82186" lon="6.72308">
        <ele>2285</ele>
        <time>2021-12-21T13:53:29Z</time>
      </trkpt>
      <trkpt lat="44.82188" lon="6.72305">
        <ele>2285</ele>
        <time>2021-12-21T13:53:35Z</time>
      </trkpt>
      <trkpt lat="44.8219" lon="6.72305">
        <ele>2285</ele>
        <time>2021-12-21T13:53:41Z</time>
      </trkpt>
      <trkpt lat="44.82194" lon="6.72297">
        <ele>2286</ele>
        <time>2021-12-21T13:54:00Z</time>
      </trkpt>
      <trkpt lat="44.82193" lon="6.7228">
        <ele>2286</ele>
        <time>2021-12-21T13:54:15Z</time>
      </trkpt>
      <trkpt lat="44.82194" lon="6.72279">
        <ele>2286</ele>
        <time>2021-12-21T13:54:18Z</time>
      </trkpt>
      <trkpt lat="44.82197" lon="6.72274">
        <ele>2286</ele>
        <time>2021-12-21T13:54:33Z</time>
      </trkpt>
      <trkpt lat="44.82198" lon="6.7227">
        <ele>2286</ele>
        <time>2021-12-21T13:54:39Z</time>
      </trkpt>
      <trkpt lat="44.82199" lon="6.72264">
        <ele>2287</ele>
        <time>2021-12-21T13:54:47Z</time>
      </trkpt>
      <trkpt lat="44.822" lon="6.7226">
        <ele>2287</ele>
        <time>2021-12-21T13:54:56Z</time>
      </trkpt>
      <trkpt lat="44.82199" lon="6.72252">
        <ele>2287</ele>
        <time>2021-12-21T13:55:04Z</time>
      </trkpt>
      <trkpt lat="44.82199" lon="6.7224">
        <ele>2288</ele>
        <time>2021-12-21T13:55:25Z</time>
      </trkpt>
      <trkpt lat="44.82197" lon="6.72235">
        <ele>2288</ele>
        <time>2021-12-21T13:55:30Z</time>
      </trkpt>
      <trkpt lat="44.82197" lon="6.72231">
        <ele>2289</ele>
        <time>2021-12-21T13:55:33Z</time>
      </trkpt>
      <trkpt lat="44.822" lon="6.72228">
        <ele>2290</ele>
        <time>2021-12-21T13:55:46Z</time>
      </trkpt>
      <trkpt lat="44.82198" lon="6.72225">
        <ele>2290</ele>
        <time>2021-12-21T13:55:51Z</time>
      </trkpt>
      <trkpt lat="44.82197" lon="6.72222">
        <ele>2290</ele>
        <time>2021-12-21T13:55:55Z</time>
      </trkpt>
      <trkpt lat="44.82194" lon="6.7222">
        <ele>2290</ele>
        <time>2021-12-21T13:55:59Z</time>
      </trkpt>
      <trkpt lat="44.82192" lon="6.72217">
        <ele>2291</ele>
        <time>2021-12-21T13:56:02Z</time>
      </trkpt>
      <trkpt lat="44.82188" lon="6.72214">
        <ele>2291</ele>
        <time>2021-12-21T13:57:44Z</time>
      </trkpt>
      <trkpt lat="44.82188" lon="6.72205">
        <ele>2291</ele>
        <time>2021-12-21T13:57:52Z</time>
      </trkpt>
      <trkpt lat="44.82188" lon="6.72202">
        <ele>2291</ele>
        <time>2021-12-21T13:57:54Z</time>
      </trkpt>
      <trkpt lat="44.82187" lon="6.72181">
        <ele>2293</ele>
        <time>2021-12-21T13:58:02Z</time>
      </trkpt>
      <trkpt lat="44.82188" lon="6.72185">
        <ele>2299</ele>
        <time>2021-12-21T13:58:22Z</time>
      </trkpt>
      <trkpt lat="44.82188" lon="6.72189">
        <ele>2308</ele>
        <time>2021-12-21T13:58:35Z</time>
      </trkpt>
      <trkpt lat="44.82188" lon="6.72191">
        <ele>2307</ele>
        <time>2021-12-21T13:58:39Z</time>
      </trkpt>
      <trkpt lat="44.82189" lon="6.7219">
        <ele>2307</ele>
        <time>2021-12-21T13:59:13Z</time>
      </trkpt>
      <trkpt lat="44.82188" lon="6.72186">
        <ele>2307</ele>
        <time>2021-12-21T13:59:16Z</time>
      </trkpt>
      <trkpt lat="44.82187" lon="6.72187">
        <ele>2309</ele>
        <time>2021-12-21T13:59:23Z</time>
      </trkpt>
      <trkpt lat="44.82185" lon="6.72186">
        <ele>2309</ele>
        <time>2021-12-21T13:59:26Z</time>
      </trkpt>
      <trkpt lat="44.82185" lon="6.72182">
        <ele>2309</ele>
        <time>2021-12-21T13:59:28Z</time>
      </trkpt>
      <trkpt lat="44.82185" lon="6.72178">
        <ele>2310</ele>
        <time>2021-12-21T13:59:32Z</time>
      </trkpt>
      <trkpt lat="44.82185" lon="6.72174">
        <ele>2310</ele>
        <time>2021-12-21T13:59:35Z</time>
      </trkpt>
      <trkpt lat="44.82185" lon="6.72171">
        <ele>2310</ele>
        <time>2021-12-21T13:59:38Z</time>
      </trkpt>
      <trkpt lat="44.82183" lon="6.72168">
        <ele>2311</ele>
        <time>2021-12-21T13:59:41Z</time>
      </trkpt>
      <trkpt lat="44.82184" lon="6.72165">
        <ele>2310</ele>
        <time>2021-12-21T13:59:55Z</time>
      </trkpt>
      <trkpt lat="44.82187" lon="6.72158">
        <ele>2311</ele>
        <time>2021-12-21T14:00:03Z</time>
      </trkpt>
      <trkpt lat="44.82175" lon="6.72145">
        <ele>2310</ele>
        <time>2021-12-21T14:00:24Z</time>
      </trkpt>
      <trkpt lat="44.82175" lon="6.7214">
        <ele>2310</ele>
        <time>2021-12-21T14:00:39Z</time>
      </trkpt>
      <trkpt lat="44.82176" lon="6.72138">
        <ele>2309</ele>
        <time>2021-12-21T14:00:41Z</time>
      </trkpt>
      <trkpt lat="44.82177" lon="6.72135">
        <ele>2309</ele>
        <time>2021-12-21T14:00:46Z</time>
      </trkpt>
      <trkpt lat="44.82178" lon="6.72133">
        <ele>2308</ele>
        <time>2021-12-21T14:00:50Z</time>
      </trkpt>
      <trkpt lat="44.82179" lon="6.7213">
        <ele>2307</ele>
        <time>2021-12-21T14:00:55Z</time>
      </trkpt>
      <trkpt lat="44.82181" lon="6.72131">
        <ele>2307</ele>
        <time>2021-12-21T14:01:11Z</time>
      </trkpt>
      <trkpt lat="44.82187" lon="6.72125">
        <ele>2306</ele>
        <time>2021-12-21T14:01:20Z</time>
      </trkpt>
      <trkpt lat="44.82208" lon="6.72107">
        <ele>2306</ele>
        <time>2021-12-21T14:01:38Z</time>
      </trkpt>
      <trkpt lat="44.82221" lon="6.72083">
        <ele>2304</ele>
        <time>2021-12-21T14:01:52Z</time>
      </trkpt>
      <trkpt lat="44.82223" lon="6.7208">
        <ele>2304</ele>
        <time>2021-12-21T14:01:55Z</time>
      </trkpt>
      <trkpt lat="44.82225" lon="6.72078">
        <ele>2304</ele>
        <time>2021-12-21T14:01:57Z</time>
      </trkpt>
      <trkpt lat="44.82226" lon="6.72074">
        <ele>2304</ele>
        <time>2021-12-21T14:02:00Z</time>
      </trkpt>
      <trkpt lat="44.82226" lon="6.72072">
        <ele>2304</ele>
        <time>2021-12-21T14:02:02Z</time>
      </trkpt>
      <trkpt lat="44.82228" lon="6.7207">
        <ele>2303</ele>
        <time>2021-12-21T14:02:05Z</time>
      </trkpt>
      <trkpt lat="44.82231" lon="6.7207">
        <ele>2303</ele>
        <time>2021-12-21T14:02:08Z</time>
      </trkpt>
      <trkpt lat="44.82231" lon="6.72067">
        <ele>2302</ele>
        <time>2021-12-21T14:02:14Z</time>
      </trkpt>
      <trkpt lat="44.82232" lon="6.72064">
        <ele>2302</ele>
        <time>2021-12-21T14:02:19Z</time>
      </trkpt>
      <trkpt lat="44.82236" lon="6.72063">
        <ele>2302</ele>
        <time>2021-12-21T14:02:35Z</time>
      </trkpt>
      <trkpt lat="44.82238" lon="6.72064">
        <ele>2302</ele>
        <time>2021-12-21T14:02:40Z</time>
      </trkpt>
      <trkpt lat="44.8224" lon="6.72066">
        <ele>2302</ele>
        <time>2021-12-21T14:02:43Z</time>
      </trkpt>
      <trkpt lat="44.82245" lon="6.72067">
        <ele>2301</ele>
        <time>2021-12-21T14:03:01Z</time>
      </trkpt>
      <trkpt lat="44.82251" lon="6.72063">
        <ele>2300</ele>
        <time>2021-12-21T14:03:10Z</time>
      </trkpt>
      <trkpt lat="44.82255" lon="6.72056">
        <ele>2299</ele>
        <time>2021-12-21T14:03:19Z</time>
      </trkpt>
      <trkpt lat="44.82255" lon="6.72054">
        <ele>2299</ele>
        <time>2021-12-21T14:03:22Z</time>
      </trkpt>
      <trkpt lat="44.82256" lon="6.72048">
        <ele>2299</ele>
        <time>2021-12-21T14:03:28Z</time>
      </trkpt>
      <trkpt lat="44.82256" lon="6.72037">
        <ele>2297</ele>
        <time>2021-12-21T14:03:37Z</time>
      </trkpt>
      <trkpt lat="44.82257" lon="6.72031">
        <ele>2297</ele>
        <time>2021-12-21T14:03:43Z</time>
      </trkpt>
      <trkpt lat="44.82257" lon="6.72029">
        <ele>2297</ele>
        <time>2021-12-21T14:03:45Z</time>
      </trkpt>
      <trkpt lat="44.82258" lon="6.72025">
        <ele>2297</ele>
        <time>2021-12-21T14:03:49Z</time>
      </trkpt>
      <trkpt lat="44.82263" lon="6.7202">
        <ele>2296</ele>
        <time>2021-12-21T14:03:57Z</time>
      </trkpt>
      <trkpt lat="44.82264" lon="6.72018">
        <ele>2296</ele>
        <time>2021-12-21T14:04:00Z</time>
      </trkpt>
      <trkpt lat="44.82267" lon="6.72003">
        <ele>2296</ele>
        <time>2021-12-21T14:04:13Z</time>
      </trkpt>
      <trkpt lat="44.82272" lon="6.72">
        <ele>2296</ele>
        <time>2021-12-21T14:04:19Z</time>
      </trkpt>
      <trkpt lat="44.82274" lon="6.71997">
        <ele>2296</ele>
        <time>2021-12-21T14:04:22Z</time>
      </trkpt>
      <trkpt lat="44.82275" lon="6.71991">
        <ele>2296</ele>
        <time>2021-12-21T14:04:24Z</time>
      </trkpt>
      <trkpt lat="44.82276" lon="6.71987">
        <ele>2296</ele>
        <time>2021-12-21T14:04:26Z</time>
      </trkpt>
      <trkpt lat="44.82278" lon="6.71985">
        <ele>2296</ele>
        <time>2021-12-21T14:04:28Z</time>
      </trkpt>
      <trkpt lat="44.82283" lon="6.71984">
        <ele>2295</ele>
        <time>2021-12-21T14:04:45Z</time>
      </trkpt>
      <trkpt lat="44.82284" lon="6.71984">
        <ele>2295</ele>
        <time>2021-12-21T14:04:49Z</time>
      </trkpt>
      <trkpt lat="44.82289" lon="6.71978">
        <ele>2295</ele>
        <time>2021-12-21T14:04:56Z</time>
      </trkpt>
      <trkpt lat="44.8229" lon="6.71978">
        <ele>2295</ele>
        <time>2021-12-21T14:05:10Z</time>
      </trkpt>
      <trkpt lat="44.82298" lon="6.71972">
        <ele>2295</ele>
        <time>2021-12-21T14:05:22Z</time>
      </trkpt>
      <trkpt lat="44.82298" lon="6.71957">
        <ele>2294</ele>
        <time>2021-12-21T14:05:40Z</time>
      </trkpt>
      <trkpt lat="44.82297" lon="6.71956">
        <ele>2293</ele>
        <time>2021-12-21T14:05:44Z</time>
      </trkpt>
      <trkpt lat="44.82294" lon="6.71951">
        <ele>2293</ele>
        <time>2021-12-21T14:06:08Z</time>
      </trkpt>
      <trkpt lat="44.82293" lon="6.71949">
        <ele>2293</ele>
        <time>2021-12-21T14:06:10Z</time>
      </trkpt>
      <trkpt lat="44.82291" lon="6.71947">
        <ele>2292</ele>
        <time>2021-12-21T14:06:12Z</time>
      </trkpt>
      <trkpt lat="44.82289" lon="6.71945">
        <ele>2292</ele>
        <time>2021-12-21T14:06:15Z</time>
      </trkpt>
      <trkpt lat="44.82289" lon="6.71943">
        <ele>2289</ele>
        <time>2021-12-21T14:06:53Z</time>
      </trkpt>
      <trkpt lat="44.82292" lon="6.71936">
        <ele>2287</ele>
        <time>2021-12-21T14:07:03Z</time>
      </trkpt>
      <trkpt lat="44.82297" lon="6.71932">
        <ele>2285</ele>
        <time>2021-12-21T14:07:08Z</time>
      </trkpt>
      <trkpt lat="44.82302" lon="6.71929">
        <ele>2285</ele>
        <time>2021-12-21T14:07:16Z</time>
      </trkpt>
      <trkpt lat="44.82305" lon="6.71928">
        <ele>2284</ele>
        <time>2021-12-21T14:07:22Z</time>
      </trkpt>
      <trkpt lat="44.82305" lon="6.71924">
        <ele>2284</ele>
        <time>2021-12-21T14:07:24Z</time>
      </trkpt>
      <trkpt lat="44.82305" lon="6.71922">
        <ele>2283</ele>
        <time>2021-12-21T14:07:39Z</time>
      </trkpt>
      <trkpt lat="44.82307" lon="6.71923">
        <ele>2283</ele>
        <time>2021-12-21T14:08:54Z</time>
      </trkpt>
      <trkpt lat="44.8231" lon="6.71924">
        <ele>2282</ele>
        <time>2021-12-21T14:08:57Z</time>
      </trkpt>
      <trkpt lat="44.82321" lon="6.71915">
        <ele>2280</ele>
        <time>2021-12-21T14:09:11Z</time>
      </trkpt>
      <trkpt lat="44.82322" lon="6.71909">
        <ele>2279</ele>
        <time>2021-12-21T14:09:14Z</time>
      </trkpt>
      <trkpt lat="44.82323" lon="6.71906">
        <ele>2279</ele>
        <time>2021-12-21T14:09:16Z</time>
      </trkpt>
      <trkpt lat="44.82326" lon="6.71906">
        <ele>2279</ele>
        <time>2021-12-21T14:09:23Z</time>
      </trkpt>
      <trkpt lat="44.82331" lon="6.71911">
        <ele>2278</ele>
        <time>2021-12-21T14:09:29Z</time>
      </trkpt>
      <trkpt lat="44.82331" lon="6.71915">
        <ele>2278</ele>
        <time>2021-12-21T14:09:34Z</time>
      </trkpt>
      <trkpt lat="44.82335" lon="6.71917">
        <ele>2277</ele>
        <time>2021-12-21T14:09:38Z</time>
      </trkpt>
      <trkpt lat="44.8234" lon="6.71917">
        <ele>2277</ele>
        <time>2021-12-21T14:09:41Z</time>
      </trkpt>
      <trkpt lat="44.82351" lon="6.71916">
        <ele>2277</ele>
        <time>2021-12-21T14:09:48Z</time>
      </trkpt>
      <trkpt lat="44.82357" lon="6.71911">
        <ele>2276</ele>
        <time>2021-12-21T14:10:07Z</time>
      </trkpt>
      <trkpt lat="44.82359" lon="6.71911">
        <ele>2276</ele>
        <time>2021-12-21T14:10:18Z</time>
      </trkpt>
      <trkpt lat="44.82359" lon="6.71906">
        <ele>2276</ele>
        <time>2021-12-21T14:10:20Z</time>
      </trkpt>
      <trkpt lat="44.82361" lon="6.71904">
        <ele>2276</ele>
        <time>2021-12-21T14:10:30Z</time>
      </trkpt>
      <trkpt lat="44.82362" lon="6.71906">
        <ele>2276</ele>
        <time>2021-12-21T14:10:35Z</time>
      </trkpt>
      <trkpt lat="44.82365" lon="6.71909">
        <ele>2275</ele>
        <time>2021-12-21T14:10:39Z</time>
      </trkpt>
      <trkpt lat="44.82367" lon="6.7191">
        <ele>2275</ele>
        <time>2021-12-21T14:10:41Z</time>
      </trkpt>
      <trkpt lat="44.82369" lon="6.71912">
        <ele>2274</ele>
        <time>2021-12-21T14:10:48Z</time>
      </trkpt>
      <trkpt lat="44.82377" lon="6.71921">
        <ele>2272</ele>
        <time>2021-12-21T14:11:18Z</time>
      </trkpt>
      <trkpt lat="44.82381" lon="6.71923">
        <ele>2271</ele>
        <time>2021-12-21T14:11:31Z</time>
      </trkpt>
      <trkpt lat="44.82386" lon="6.71923">
        <ele>2270</ele>
        <time>2021-12-21T14:11:38Z</time>
      </trkpt>
      <trkpt lat="44.82387" lon="6.71926">
        <ele>2270</ele>
        <time>2021-12-21T14:11:41Z</time>
      </trkpt>
      <trkpt lat="44.8239" lon="6.71925">
        <ele>2269</ele>
        <time>2021-12-21T14:11:46Z</time>
      </trkpt>
      <trkpt lat="44.82392" lon="6.71922">
        <ele>2269</ele>
        <time>2021-12-21T14:11:50Z</time>
      </trkpt>
      <trkpt lat="44.82394" lon="6.71924">
        <ele>2268</ele>
        <time>2021-12-21T14:11:52Z</time>
      </trkpt>
      <trkpt lat="44.82397" lon="6.71924">
        <ele>2268</ele>
        <time>2021-12-21T14:11:54Z</time>
      </trkpt>
      <trkpt lat="44.82398" lon="6.71923">
        <ele>2267</ele>
        <time>2021-12-21T14:12:02Z</time>
      </trkpt>
      <trkpt lat="44.82407" lon="6.71921">
        <ele>2266</ele>
        <time>2021-12-21T14:12:40Z</time>
      </trkpt>
      <trkpt lat="44.82407" lon="6.71924">
        <ele>2265</ele>
        <time>2021-12-21T14:12:59Z</time>
      </trkpt>
      <trkpt lat="44.82407" lon="6.71924">
        <ele>2258</ele>
        <time>2021-12-21T14:13:07Z</time>
      </trkpt>
      <trkpt lat="44.82408" lon="6.71927">
        <ele>2257</ele>
        <time>2021-12-21T14:13:10Z</time>
      </trkpt>
      <trkpt lat="44.82408" lon="6.71929">
        <ele>2255</ele>
        <time>2021-12-21T14:13:28Z</time>
      </trkpt>
      <trkpt lat="44.82408" lon="6.71917">
        <ele>2252</ele>
        <time>2021-12-21T14:14:11Z</time>
      </trkpt>
      <trkpt lat="44.8241" lon="6.71915">
        <ele>2248</ele>
        <time>2021-12-21T14:14:25Z</time>
      </trkpt>
      <trkpt lat="44.82411" lon="6.71916">
        <ele>2245</ele>
        <time>2021-12-21T14:14:35Z</time>
      </trkpt>
      <trkpt lat="44.82412" lon="6.7192">
        <ele>2242</ele>
        <time>2021-12-21T14:14:44Z</time>
      </trkpt>
      <trkpt lat="44.82413" lon="6.71931">
        <ele>2231</ele>
        <time>2021-12-21T14:14:52Z</time>
      </trkpt>
      <trkpt lat="44.82413" lon="6.71935">
        <ele>2228</ele>
        <time>2021-12-21T14:14:55Z</time>
      </trkpt>
      <trkpt lat="44.82413" lon="6.71937">
        <ele>2227</ele>
        <time>2021-12-21T14:15:00Z</time>
      </trkpt>
      <trkpt lat="44.82409" lon="6.7193">
        <ele>2226</ele>
        <time>2021-12-21T14:15:33Z</time>
      </trkpt>
      <trkpt lat="44.82409" lon="6.71935">
        <ele>2226</ele>
        <time>2021-12-21T14:15:40Z</time>
      </trkpt>
      <trkpt lat="44.82409" lon="6.71924">
        <ele>2225</ele>
        <time>2021-12-21T14:15:53Z</time>
      </trkpt>
      <trkpt lat="44.82409" lon="6.71918">
        <ele>2226</ele>
        <time>2021-12-21T14:15:55Z</time>
      </trkpt>
      <trkpt lat="44.82408" lon="6.71911">
        <ele>2226</ele>
        <time>2021-12-21T14:16:04Z</time>
      </trkpt>
      <trkpt lat="44.82407" lon="6.71907">
        <ele>2227</ele>
        <time>2021-12-21T14:16:07Z</time>
      </trkpt>
      <trkpt lat="44.82409" lon="6.71919">
        <ele>2225</ele>
        <time>2021-12-21T14:16:15Z</time>
      </trkpt>
      <trkpt lat="44.82412" lon="6.71932">
        <ele>2223</ele>
        <time>2021-12-21T14:16:20Z</time>
      </trkpt>
      <trkpt lat="44.82416" lon="6.71948">
        <ele>2221</ele>
        <time>2021-12-21T14:16:24Z</time>
      </trkpt>
      <trkpt lat="44.82418" lon="6.71941">
        <ele>2221</ele>
        <time>2021-12-21T14:16:28Z</time>
      </trkpt>
      <trkpt lat="44.82419" lon="6.71933">
        <ele>2220</ele>
        <time>2021-12-21T14:16:30Z</time>
      </trkpt>
      <trkpt lat="44.82419" lon="6.71927">
        <ele>2220</ele>
        <time>2021-12-21T14:16:31Z</time>
      </trkpt>
      <trkpt lat="44.82419" lon="6.71917">
        <ele>2219</ele>
        <time>2021-12-21T14:16:33Z</time>
      </trkpt>
      <trkpt lat="44.82419" lon="6.71911">
        <ele>2219</ele>
        <time>2021-12-21T14:16:35Z</time>
      </trkpt>
      <trkpt lat="44.82418" lon="6.71902">
        <ele>2219</ele>
        <time>2021-12-21T14:16:37Z</time>
      </trkpt>
      <trkpt lat="44.82418" lon="6.71898">
        <ele>2219</ele>
        <time>2021-12-21T14:16:40Z</time>
      </trkpt>
      <trkpt lat="44.8241" lon="6.71892">
        <ele>2219</ele>
        <time>2021-12-21T14:17:10Z</time>
      </trkpt>
      <trkpt lat="44.82401" lon="6.71879">
        <ele>2219</ele>
        <time>2021-12-21T14:17:25Z</time>
      </trkpt>
      <trkpt lat="44.824" lon="6.71877">
        <ele>2219</ele>
        <time>2021-12-21T14:17:31Z</time>
      </trkpt>
      <trkpt lat="44.82394" lon="6.71868">
        <ele>2219</ele>
        <time>2021-12-21T14:18:24Z</time>
      </trkpt>
      <trkpt lat="44.82376" lon="6.71855">
        <ele>2219</ele>
        <time>2021-12-21T14:18:44Z</time>
      </trkpt>
      <trkpt lat="44.82375" lon="6.71852">
        <ele>2219</ele>
        <time>2021-12-21T14:18:49Z</time>
      </trkpt>
      <trkpt lat="44.82378" lon="6.71849">
        <ele>2220</ele>
        <time>2021-12-21T14:19:13Z</time>
      </trkpt>
      <trkpt lat="44.82378" lon="6.71842">
        <ele>2218</ele>
        <time>2021-12-21T14:19:30Z</time>
      </trkpt>
      <trkpt lat="44.82376" lon="6.71836">
        <ele>2218</ele>
        <time>2021-12-21T14:19:37Z</time>
      </trkpt>
      <trkpt lat="44.82374" lon="6.71833">
        <ele>2218</ele>
        <time>2021-12-21T14:19:40Z</time>
      </trkpt>
      <trkpt lat="44.82374" lon="6.71829">
        <ele>2218</ele>
        <time>2021-12-21T14:19:46Z</time>
      </trkpt>
      <trkpt lat="44.82371" lon="6.71825">
        <ele>2218</ele>
        <time>2021-12-21T14:19:50Z</time>
      </trkpt>
      <trkpt lat="44.82369" lon="6.71822">
        <ele>2218</ele>
        <time>2021-12-21T14:19:52Z</time>
      </trkpt>
      <trkpt lat="44.82369" lon="6.71818">
        <ele>2218</ele>
        <time>2021-12-21T14:19:53Z</time>
      </trkpt>
      <trkpt lat="44.82368" lon="6.71814">
        <ele>2219</ele>
        <time>2021-12-21T14:19:55Z</time>
      </trkpt>
      <trkpt lat="44.82367" lon="6.71811">
        <ele>2218</ele>
        <time>2021-12-21T14:20:04Z</time>
      </trkpt>
      <trkpt lat="44.82367" lon="6.71807">
        <ele>2217</ele>
        <time>2021-12-21T14:20:08Z</time>
      </trkpt>
      <trkpt lat="44.82368" lon="6.71798">
        <ele>2217</ele>
        <time>2021-12-21T14:20:12Z</time>
      </trkpt>
      <trkpt lat="44.82369" lon="6.71794">
        <ele>2217</ele>
        <time>2021-12-21T14:20:15Z</time>
      </trkpt>
      <trkpt lat="44.82368" lon="6.7179">
        <ele>2218</ele>
        <time>2021-12-21T14:20:18Z</time>
      </trkpt>
      <trkpt lat="44.82366" lon="6.71789">
        <ele>2219</ele>
        <time>2021-12-21T14:20:20Z</time>
      </trkpt>
      <trkpt lat="44.82367" lon="6.71787">
        <ele>2220</ele>
        <time>2021-12-21T14:20:23Z</time>
      </trkpt>
      <trkpt lat="44.82368" lon="6.71786">
        <ele>2222</ele>
        <time>2021-12-21T14:20:26Z</time>
      </trkpt>
      <trkpt lat="44.82367" lon="6.71781">
        <ele>2222</ele>
        <time>2021-12-21T14:20:33Z</time>
      </trkpt>
      <trkpt lat="44.82367" lon="6.71778">
        <ele>2223</ele>
        <time>2021-12-21T14:20:37Z</time>
      </trkpt>
      <trkpt lat="44.82367" lon="6.71775">
        <ele>2224</ele>
        <time>2021-12-21T14:20:40Z</time>
      </trkpt>
      <trkpt lat="44.82365" lon="6.71773">
        <ele>2225</ele>
        <time>2021-12-21T14:20:44Z</time>
      </trkpt>
      <trkpt lat="44.82365" lon="6.7176">
        <ele>2228</ele>
        <time>2021-12-21T14:23:41Z</time>
      </trkpt>
      <trkpt lat="44.82365" lon="6.71756">
        <ele>2230</ele>
        <time>2021-12-21T14:24:16Z</time>
      </trkpt>
      <trkpt lat="44.82366" lon="6.71758">
        <ele>2231</ele>
        <time>2021-12-21T14:24:17Z</time>
      </trkpt>
      <trkpt lat="44.82366" lon="6.71772">
        <ele>2232</ele>
        <time>2021-12-21T14:24:21Z</time>
      </trkpt>
      <trkpt lat="44.82368" lon="6.7177">
        <ele>2231</ele>
        <time>2021-12-21T14:24:27Z</time>
      </trkpt>
      <trkpt lat="44.82365" lon="6.71766">
        <ele>2231</ele>
        <time>2021-12-21T14:24:29Z</time>
      </trkpt>
      <trkpt lat="44.82365" lon="6.71762">
        <ele>2230</ele>
        <time>2021-12-21T14:24:31Z</time>
      </trkpt>
      <trkpt lat="44.82365" lon="6.71755">
        <ele>2229</ele>
        <time>2021-12-21T14:24:36Z</time>
      </trkpt>
      <trkpt lat="44.82363" lon="6.71753">
        <ele>2230</ele>
        <time>2021-12-21T14:24:39Z</time>
      </trkpt>
      <trkpt lat="44.82364" lon="6.7175">
        <ele>2233</ele>
        <time>2021-12-21T14:24:43Z</time>
      </trkpt>
      <trkpt lat="44.82361" lon="6.71747">
        <ele>2235</ele>
        <time>2021-12-21T14:24:46Z</time>
      </trkpt>
      <trkpt lat="44.82361" lon="6.7175">
        <ele>2241</ele>
        <time>2021-12-21T14:24:55Z</time>
      </trkpt>
      <trkpt lat="44.82359" lon="6.71749">
        <ele>2241</ele>
        <time>2021-12-21T14:25:02Z</time>
      </trkpt>
      <trkpt lat="44.82357" lon="6.71749">
        <ele>2241</ele>
        <time>2021-12-21T14:25:04Z</time>
      </trkpt>
      <trkpt lat="44.82359" lon="6.71748">
        <ele>2241</ele>
        <time>2021-12-21T14:25:19Z</time>
      </trkpt>
      <trkpt lat="44.82361" lon="6.71747">
        <ele>2243</ele>
        <time>2021-12-21T14:25:22Z</time>
      </trkpt>
      <trkpt lat="44.82359" lon="6.71754">
        <ele>2243</ele>
        <time>2021-12-21T14:26:31Z</time>
      </trkpt>
      <trkpt lat="44.82358" lon="6.71758">
        <ele>2242</ele>
        <time>2021-12-21T14:26:36Z</time>
      </trkpt>
      <trkpt lat="44.82357" lon="6.71759">
        <ele>2242</ele>
        <time>2021-12-21T14:26:49Z</time>
      </trkpt>
      <trkpt lat="44.82363" lon="6.71759">
        <ele>2243</ele>
        <time>2021-12-21T14:30:57Z</time>
      </trkpt>
      <trkpt lat="44.82362" lon="6.7175">
        <ele>2244</ele>
        <time>2021-12-21T14:31:14Z</time>
      </trkpt>
      <trkpt lat="44.82364" lon="6.71752">
        <ele>2243</ele>
        <time>2021-12-21T14:31:18Z</time>
      </trkpt>
      <trkpt lat="44.82362" lon="6.71754">
        <ele>2243</ele>
        <time>2021-12-21T14:34:17Z</time>
      </trkpt>
      <trkpt lat="44.82363" lon="6.71756">
        <ele>2243</ele>
        <time>2021-12-21T14:34:18Z</time>
      </trkpt>
      <trkpt lat="44.82364" lon="6.71759">
        <ele>2244</ele>
        <time>2021-12-21T14:34:24Z</time>
      </trkpt>
      <trkpt lat="44.82365" lon="6.7176">
        <ele>2244</ele>
        <time>2021-12-21T14:34:53Z</time>
      </trkpt>
      <trkpt lat="44.8236" lon="6.71762">
        <ele>2242</ele>
        <time>2021-12-21T14:35:06Z</time>
      </trkpt>
      <trkpt lat="44.8236" lon="6.71759">
        <ele>2242</ele>
        <time>2021-12-21T14:35:12Z</time>
      </trkpt>
      <trkpt lat="44.82361" lon="6.71758">
        <ele>2242</ele>
        <time>2021-12-21T14:35:17Z</time>
      </trkpt>
      <trkpt lat="44.82363" lon="6.71751">
        <ele>2242</ele>
        <time>2021-12-21T14:36:58Z</time>
      </trkpt>
      <trkpt lat="44.82389" lon="6.7172">
        <ele>2242</ele>
        <time>2021-12-21T14:37:28Z</time>
      </trkpt>
      <trkpt lat="44.824" lon="6.71709">
        <ele>2242</ele>
        <time>2021-12-21T14:37:34Z</time>
      </trkpt>
      <trkpt lat="44.82404" lon="6.71706">
        <ele>2241</ele>
        <time>2021-12-21T14:37:38Z</time>
      </trkpt>
      <trkpt lat="44.82421" lon="6.71686">
        <ele>2237</ele>
        <time>2021-12-21T14:37:47Z</time>
      </trkpt>
      <trkpt lat="44.82423" lon="6.71685">
        <ele>2237</ele>
        <time>2021-12-21T14:37:48Z</time>
      </trkpt>
      <trkpt lat="44.82434" lon="6.71676">
        <ele>2234</ele>
        <time>2021-12-21T14:37:54Z</time>
      </trkpt>
      <trkpt lat="44.82459" lon="6.71661">
        <ele>2230</ele>
        <time>2021-12-21T14:38:02Z</time>
      </trkpt>
      <trkpt lat="44.82539" lon="6.71593">
        <ele>2214</ele>
        <time>2021-12-21T14:38:31Z</time>
      </trkpt>
      <trkpt lat="44.82544" lon="6.71591">
        <ele>2214</ele>
        <time>2021-12-21T14:38:34Z</time>
      </trkpt>
      <trkpt lat="44.82546" lon="6.7159">
        <ele>2214</ele>
        <time>2021-12-21T14:38:40Z</time>
      </trkpt>
      <trkpt lat="44.82546" lon="6.71593">
        <ele>2214</ele>
        <time>2021-12-21T14:38:46Z</time>
      </trkpt>
      <trkpt lat="44.82549" lon="6.71585">
        <ele>2214</ele>
        <time>2021-12-21T14:41:55Z</time>
      </trkpt>
      <trkpt lat="44.82557" lon="6.71579">
        <ele>2213</ele>
        <time>2021-12-21T14:42:01Z</time>
      </trkpt>
      <trkpt lat="44.82566" lon="6.71575">
        <ele>2211</ele>
        <time>2021-12-21T14:42:07Z</time>
      </trkpt>
      <trkpt lat="44.82568" lon="6.71573">
        <ele>2211</ele>
        <time>2021-12-21T14:42:08Z</time>
      </trkpt>
      <trkpt lat="44.82576" lon="6.71566">
        <ele>2210</ele>
        <time>2021-12-21T14:42:18Z</time>
      </trkpt>
      <trkpt lat="44.82584" lon="6.7156">
        <ele>2209</ele>
        <time>2021-12-21T14:42:22Z</time>
      </trkpt>
      <trkpt lat="44.82588" lon="6.71558">
        <ele>2207</ele>
        <time>2021-12-21T14:42:26Z</time>
      </trkpt>
      <trkpt lat="44.82596" lon="6.71551">
        <ele>2205</ele>
        <time>2021-12-21T14:42:32Z</time>
      </trkpt>
      <trkpt lat="44.82598" lon="6.71549">
        <ele>2205</ele>
        <time>2021-12-21T14:42:34Z</time>
      </trkpt>
      <trkpt lat="44.82636" lon="6.71526">
        <ele>2205</ele>
        <time>2021-12-21T14:43:06Z</time>
      </trkpt>
      <trkpt lat="44.82638" lon="6.71524">
        <ele>2205</ele>
        <time>2021-12-21T14:43:12Z</time>
      </trkpt>
      <trkpt lat="44.82654" lon="6.7152">
        <ele>2204</ele>
        <time>2021-12-21T14:43:27Z</time>
      </trkpt>
      <trkpt lat="44.82658" lon="6.71518">
        <ele>2203</ele>
        <time>2021-12-21T14:43:32Z</time>
      </trkpt>
      <trkpt lat="44.82703" lon="6.715">
        <ele>2201</ele>
        <time>2021-12-21T14:43:58Z</time>
      </trkpt>
      <trkpt lat="44.82711" lon="6.71499">
        <ele>2200</ele>
        <time>2021-12-21T14:44:02Z</time>
      </trkpt>
      <trkpt lat="44.82713" lon="6.715">
        <ele>2200</ele>
        <time>2021-12-21T14:44:04Z</time>
      </trkpt>
      <trkpt lat="44.82724" lon="6.71505">
        <ele>2197</ele>
        <time>2021-12-21T14:44:11Z</time>
      </trkpt>
      <trkpt lat="44.82732" lon="6.71506">
        <ele>2196</ele>
        <time>2021-12-21T14:44:15Z</time>
      </trkpt>
      <trkpt lat="44.82733" lon="6.71508">
        <ele>2196</ele>
        <time>2021-12-21T14:44:17Z</time>
      </trkpt>
      <trkpt lat="44.82736" lon="6.71514">
        <ele>2196</ele>
        <time>2021-12-21T14:44:21Z</time>
      </trkpt>
      <trkpt lat="44.82751" lon="6.71528">
        <ele>2195</ele>
        <time>2021-12-21T14:44:28Z</time>
      </trkpt>
      <trkpt lat="44.82759" lon="6.71538">
        <ele>2195</ele>
        <time>2021-12-21T14:44:31Z</time>
      </trkpt>
      <trkpt lat="44.82767" lon="6.71541">
        <ele>2195</ele>
        <time>2021-12-21T14:44:33Z</time>
      </trkpt>
      <trkpt lat="44.82792" lon="6.71549">
        <ele>2192</ele>
        <time>2021-12-21T14:44:39Z</time>
      </trkpt>
      <trkpt lat="44.82813" lon="6.7156">
        <ele>2188</ele>
        <time>2021-12-21T14:44:44Z</time>
      </trkpt>
      <trkpt lat="44.82879" lon="6.71574">
        <ele>2179</ele>
        <time>2021-12-21T14:45:00Z</time>
      </trkpt>
      <trkpt lat="44.8293" lon="6.71629">
        <ele>2163</ele>
        <time>2021-12-21T14:45:29Z</time>
      </trkpt>
      <trkpt lat="44.82926" lon="6.71633">
        <ele>2163</ele>
        <time>2021-12-21T14:45:32Z</time>
      </trkpt>
      <trkpt lat="44.82923" lon="6.71631">
        <ele>2163</ele>
        <time>2021-12-21T14:45:33Z</time>
      </trkpt>
      <trkpt lat="44.82919" lon="6.71633">
        <ele>2161</ele>
        <time>2021-12-21T14:45:36Z</time>
      </trkpt>
      <trkpt lat="44.82913" lon="6.7164">
        <ele>2157</ele>
        <time>2021-12-21T14:45:38Z</time>
      </trkpt>
      <trkpt lat="44.82915" lon="6.71643">
        <ele>2156</ele>
        <time>2021-12-21T14:45:39Z</time>
      </trkpt>
      <trkpt lat="44.82918" lon="6.71644">
        <ele>2154</ele>
        <time>2021-12-21T14:45:40Z</time>
      </trkpt>
      <trkpt lat="44.8292" lon="6.71649">
        <ele>2153</ele>
        <time>2021-12-21T14:45:42Z</time>
      </trkpt>
      <trkpt lat="44.82924" lon="6.7165">
        <ele>2151</ele>
        <time>2021-12-21T14:45:44Z</time>
      </trkpt>
      <trkpt lat="44.82932" lon="6.7165">
        <ele>2150</ele>
        <time>2021-12-21T14:45:47Z</time>
      </trkpt>
      <trkpt lat="44.82946" lon="6.71657">
        <ele>2147</ele>
        <time>2021-12-21T14:45:53Z</time>
      </trkpt>
      <trkpt lat="44.82972" lon="6.71667">
        <ele>2141</ele>
        <time>2021-12-21T14:46:04Z</time>
      </trkpt>
      <trkpt lat="44.82999" lon="6.71692">
        <ele>2137</ele>
        <time>2021-12-21T14:46:11Z</time>
      </trkpt>
      <trkpt lat="44.83003" lon="6.71694">
        <ele>2137</ele>
        <time>2021-12-21T14:46:12Z</time>
      </trkpt>
      <trkpt lat="44.83007" lon="6.71695">
        <ele>2137</ele>
        <time>2021-12-21T14:46:15Z</time>
      </trkpt>
      <trkpt lat="44.83008" lon="6.71696">
        <ele>2137</ele>
        <time>2021-12-21T14:46:22Z</time>
      </trkpt>
      <trkpt lat="44.8301" lon="6.71698">
        <ele>2137</ele>
        <time>2021-12-21T14:47:58Z</time>
      </trkpt>
      <trkpt lat="44.83035" lon="6.71778">
        <ele>2137</ele>
        <time>2021-12-21T14:48:28Z</time>
      </trkpt>
      <trkpt lat="44.83036" lon="6.71791">
        <ele>2137</ele>
        <time>2021-12-21T14:48:31Z</time>
      </trkpt>
      <trkpt lat="44.83038" lon="6.71804">
        <ele>2137</ele>
        <time>2021-12-21T14:48:35Z</time>
      </trkpt>
      <trkpt lat="44.83039" lon="6.71811">
        <ele>2137</ele>
        <time>2021-12-21T14:48:37Z</time>
      </trkpt>
      <trkpt lat="44.83043" lon="6.71837">
        <ele>2137</ele>
        <time>2021-12-21T14:48:44Z</time>
      </trkpt>
      <trkpt lat="44.83045" lon="6.71856">
        <ele>2136</ele>
        <time>2021-12-21T14:48:49Z</time>
      </trkpt>
      <trkpt lat="44.83046" lon="6.71863">
        <ele>2136</ele>
        <time>2021-12-21T14:48:51Z</time>
      </trkpt>
      <trkpt lat="44.8305" lon="6.71878">
        <ele>2135</ele>
        <time>2021-12-21T14:48:57Z</time>
      </trkpt>
      <trkpt lat="44.83053" lon="6.71881">
        <ele>2135</ele>
        <time>2021-12-21T14:48:59Z</time>
      </trkpt>
      <trkpt lat="44.83054" lon="6.71885">
        <ele>2135</ele>
        <time>2021-12-21T14:49:01Z</time>
      </trkpt>
      <trkpt lat="44.83058" lon="6.71894">
        <ele>2136</ele>
        <time>2021-12-21T14:49:05Z</time>
      </trkpt>
      <trkpt lat="44.83072" lon="6.71957">
        <ele>2132</ele>
        <time>2021-12-21T14:49:19Z</time>
      </trkpt>
      <trkpt lat="44.83078" lon="6.71976">
        <ele>2128</ele>
        <time>2021-12-21T14:49:24Z</time>
      </trkpt>
      <trkpt lat="44.83081" lon="6.71984">
        <ele>2126</ele>
        <time>2021-12-21T14:49:26Z</time>
      </trkpt>
      <trkpt lat="44.83096" lon="6.72018">
        <ele>2126</ele>
        <time>2021-12-21T14:49:35Z</time>
      </trkpt>
      <trkpt lat="44.83107" lon="6.72032">
        <ele>2122</ele>
        <time>2021-12-21T14:49:41Z</time>
      </trkpt>
      <trkpt lat="44.8312" lon="6.72048">
        <ele>2117</ele>
        <time>2021-12-21T14:49:47Z</time>
      </trkpt>
      <trkpt lat="44.83122" lon="6.72051">
        <ele>2116</ele>
        <time>2021-12-21T14:49:48Z</time>
      </trkpt>
      <trkpt lat="44.83124" lon="6.72055">
        <ele>2114</ele>
        <time>2021-12-21T14:49:50Z</time>
      </trkpt>
      <trkpt lat="44.83133" lon="6.72075">
        <ele>2104</ele>
        <time>2021-12-21T14:49:56Z</time>
      </trkpt>
      <trkpt lat="44.83134" lon="6.72079">
        <ele>2103</ele>
        <time>2021-12-21T14:49:57Z</time>
      </trkpt>
      <trkpt lat="44.83149" lon="6.72099">
        <ele>2098</ele>
        <time>2021-12-21T14:50:03Z</time>
      </trkpt>
      <trkpt lat="44.83154" lon="6.72102">
        <ele>2098</ele>
        <time>2021-12-21T14:50:05Z</time>
      </trkpt>
      <trkpt lat="44.83162" lon="6.72109">
        <ele>2099</ele>
        <time>2021-12-21T14:50:08Z</time>
      </trkpt>
      <trkpt lat="44.83165" lon="6.72112">
        <ele>2099</ele>
        <time>2021-12-21T14:50:09Z</time>
      </trkpt>
      <trkpt lat="44.83169" lon="6.72113">
        <ele>2100</ele>
        <time>2021-12-21T14:50:10Z</time>
      </trkpt>
      <trkpt lat="44.83172" lon="6.72114">
        <ele>2099</ele>
        <time>2021-12-21T14:50:13Z</time>
      </trkpt>
      <trkpt lat="44.83174" lon="6.72112">
        <ele>2095</ele>
        <time>2021-12-21T14:50:19Z</time>
      </trkpt>
      <trkpt lat="44.8314" lon="6.72133">
        <ele>2083</ele>
        <time>2021-12-21T14:50:33Z</time>
      </trkpt>
      <trkpt lat="44.83126" lon="6.72138">
        <ele>2080</ele>
        <time>2021-12-21T14:50:39Z</time>
      </trkpt>
      <trkpt lat="44.83123" lon="6.72139">
        <ele>2080</ele>
        <time>2021-12-21T14:50:41Z</time>
      </trkpt>
      <trkpt lat="44.83118" lon="6.72139">
        <ele>2077</ele>
        <time>2021-12-21T14:50:44Z</time>
      </trkpt>
      <trkpt lat="44.83115" lon="6.7214">
        <ele>2076</ele>
        <time>2021-12-21T14:50:48Z</time>
      </trkpt>
      <trkpt lat="44.83113" lon="6.72156">
        <ele>2072</ele>
        <time>2021-12-21T14:51:10Z</time>
      </trkpt>
      <trkpt lat="44.83113" lon="6.72159">
        <ele>2068</ele>
        <time>2021-12-21T14:51:25Z</time>
      </trkpt>
      <trkpt lat="44.83112" lon="6.72169">
        <ele>2067</ele>
        <time>2021-12-21T14:51:37Z</time>
      </trkpt>
      <trkpt lat="44.83115" lon="6.72178">
        <ele>2069</ele>
        <time>2021-12-21T14:51:41Z</time>
      </trkpt>
      <trkpt lat="44.83114" lon="6.72186">
        <ele>2069</ele>
        <time>2021-12-21T14:51:43Z</time>
      </trkpt>
      <trkpt lat="44.83111" lon="6.7219">
        <ele>2069</ele>
        <time>2021-12-21T14:51:44Z</time>
      </trkpt>
      <trkpt lat="44.831" lon="6.72207">
        <ele>2068</ele>
        <time>2021-12-21T14:51:48Z</time>
      </trkpt>
      <trkpt lat="44.83095" lon="6.72227">
        <ele>2067</ele>
        <time>2021-12-21T14:51:53Z</time>
      </trkpt>
      <trkpt lat="44.83094" lon="6.72236">
        <ele>2066</ele>
        <time>2021-12-21T14:51:56Z</time>
      </trkpt>
      <trkpt lat="44.83095" lon="6.7224">
        <ele>2065</ele>
        <time>2021-12-21T14:51:59Z</time>
      </trkpt>
      <trkpt lat="44.83097" lon="6.72244">
        <ele>2066</ele>
        <time>2021-12-21T14:52:02Z</time>
      </trkpt>
      <trkpt lat="44.83098" lon="6.72246">
        <ele>2067</ele>
        <time>2021-12-21T14:52:06Z</time>
      </trkpt>
      <trkpt lat="44.83094" lon="6.72257">
        <ele>2068</ele>
        <time>2021-12-21T14:52:11Z</time>
      </trkpt>
      <trkpt lat="44.83084" lon="6.7227">
        <ele>2068</ele>
        <time>2021-12-21T14:52:15Z</time>
      </trkpt>
      <trkpt lat="44.83077" lon="6.72282">
        <ele>2068</ele>
        <time>2021-12-21T14:52:18Z</time>
      </trkpt>
      <trkpt lat="44.83076" lon="6.72287">
        <ele>2068</ele>
        <time>2021-12-21T14:52:20Z</time>
      </trkpt>
      <trkpt lat="44.8305" lon="6.7232">
        <ele>2065</ele>
        <time>2021-12-21T14:52:37Z</time>
      </trkpt>
      <trkpt lat="44.83047" lon="6.72344">
        <ele>2065</ele>
        <time>2021-12-21T14:52:40Z</time>
      </trkpt>
      <trkpt lat="44.83058" lon="6.7236">
        <ele>2063</ele>
        <time>2021-12-21T14:52:43Z</time>
      </trkpt>
      <trkpt lat="44.83047" lon="6.72378">
        <ele>2062</ele>
        <time>2021-12-21T14:52:48Z</time>
      </trkpt>
      <trkpt lat="44.83044" lon="6.72381">
        <ele>2062</ele>
        <time>2021-12-21T14:52:50Z</time>
      </trkpt>
      <trkpt lat="44.83042" lon="6.72378">
        <ele>2061</ele>
        <time>2021-12-21T14:52:52Z</time>
      </trkpt>
      <trkpt lat="44.83038" lon="6.7238">
        <ele>2060</ele>
        <time>2021-12-21T14:52:54Z</time>
      </trkpt>
      <trkpt lat="44.83035" lon="6.72383">
        <ele>2059</ele>
        <time>2021-12-21T14:52:57Z</time>
      </trkpt>
      <trkpt lat="44.83029" lon="6.72409">
        <ele>2059</ele>
        <time>2021-12-21T14:53:05Z</time>
      </trkpt>
      <trkpt lat="44.83028" lon="6.72417">
        <ele>2059</ele>
        <time>2021-12-21T14:53:06Z</time>
      </trkpt>
      <trkpt lat="44.83026" lon="6.72427">
        <ele>2059</ele>
        <time>2021-12-21T14:53:08Z</time>
      </trkpt>
      <trkpt lat="44.83024" lon="6.72439">
        <ele>2060</ele>
        <time>2021-12-21T14:53:10Z</time>
      </trkpt>
      <trkpt lat="44.83025" lon="6.72444">
        <ele>2060</ele>
        <time>2021-12-21T14:53:12Z</time>
      </trkpt>
      <trkpt lat="44.83027" lon="6.72446">
        <ele>2061</ele>
        <time>2021-12-21T14:53:14Z</time>
      </trkpt>
      <trkpt lat="44.83056" lon="6.72426">
        <ele>2061</ele>
        <time>2021-12-21T14:53:24Z</time>
      </trkpt>
      <trkpt lat="44.83067" lon="6.72422">
        <ele>2059</ele>
        <time>2021-12-21T14:53:27Z</time>
      </trkpt>
      <trkpt lat="44.8308" lon="6.72424">
        <ele>2058</ele>
        <time>2021-12-21T14:53:30Z</time>
      </trkpt>
      <trkpt lat="44.83088" lon="6.72428">
        <ele>2056</ele>
        <time>2021-12-21T14:53:32Z</time>
      </trkpt>
      <trkpt lat="44.8309" lon="6.72432">
        <ele>2055</ele>
        <time>2021-12-21T14:53:33Z</time>
      </trkpt>
      <trkpt lat="44.83112" lon="6.72441">
        <ele>2051</ele>
        <time>2021-12-21T14:53:37Z</time>
      </trkpt>
      <trkpt lat="44.83117" lon="6.72443">
        <ele>2049</ele>
        <time>2021-12-21T14:53:38Z</time>
      </trkpt>
      <trkpt lat="44.83129" lon="6.72445">
        <ele>2046</ele>
        <time>2021-12-21T14:53:40Z</time>
      </trkpt>
      <trkpt lat="44.83146" lon="6.72432">
        <ele>2035</ele>
        <time>2021-12-21T14:53:43Z</time>
      </trkpt>
      <trkpt lat="44.83186" lon="6.72407">
        <ele>2025</ele>
        <time>2021-12-21T14:53:49Z</time>
      </trkpt>
      <trkpt lat="44.83185" lon="6.72399">
        <ele>2021</ele>
        <time>2021-12-21T14:53:51Z</time>
      </trkpt>
      <trkpt lat="44.83186" lon="6.72393">
        <ele>2019</ele>
        <time>2021-12-21T14:53:52Z</time>
      </trkpt>
      <trkpt lat="44.83188" lon="6.72387">
        <ele>2019</ele>
        <time>2021-12-21T14:53:53Z</time>
      </trkpt>
      <trkpt lat="44.8319" lon="6.72385">
        <ele>2018</ele>
        <time>2021-12-21T14:53:54Z</time>
      </trkpt>
      <trkpt lat="44.83194" lon="6.72385">
        <ele>2017</ele>
        <time>2021-12-21T14:53:56Z</time>
      </trkpt>
      <trkpt lat="44.83198" lon="6.72389">
        <ele>2013</ele>
        <time>2021-12-21T14:54:00Z</time>
      </trkpt>
      <trkpt lat="44.832" lon="6.72394">
        <ele>2009</ele>
        <time>2021-12-21T14:54:03Z</time>
      </trkpt>
      <trkpt lat="44.83205" lon="6.724">
        <ele>2005</ele>
        <time>2021-12-21T14:54:07Z</time>
      </trkpt>
      <trkpt lat="44.83207" lon="6.72402">
        <ele>2004</ele>
        <time>2021-12-21T14:54:08Z</time>
      </trkpt>
      <trkpt lat="44.83212" lon="6.72405">
        <ele>2001</ele>
        <time>2021-12-21T14:54:10Z</time>
      </trkpt>
      <trkpt lat="44.83215" lon="6.72407">
        <ele>2000</ele>
        <time>2021-12-21T14:54:13Z</time>
      </trkpt>
      <trkpt lat="44.83226" lon="6.72409">
        <ele>2002</ele>
        <time>2021-12-21T14:54:16Z</time>
      </trkpt>
      <trkpt lat="44.83228" lon="6.72406">
        <ele>2002</ele>
        <time>2021-12-21T14:54:17Z</time>
      </trkpt>
      <trkpt lat="44.83233" lon="6.72386">
        <ele>1999</ele>
        <time>2021-12-21T14:54:23Z</time>
      </trkpt>
      <trkpt lat="44.83229" lon="6.7236">
        <ele>1995</ele>
        <time>2021-12-21T14:54:28Z</time>
      </trkpt>
      <trkpt lat="44.83218" lon="6.72334">
        <ele>1988</ele>
        <time>2021-12-21T14:54:34Z</time>
      </trkpt>
      <trkpt lat="44.83219" lon="6.72323">
        <ele>1986</ele>
        <time>2021-12-21T14:54:36Z</time>
      </trkpt>
      <trkpt lat="44.83219" lon="6.72318">
        <ele>1985</ele>
        <time>2021-12-21T14:54:37Z</time>
      </trkpt>
      <trkpt lat="44.83215" lon="6.72313">
        <ele>1983</ele>
        <time>2021-12-21T14:54:39Z</time>
      </trkpt>
      <trkpt lat="44.83212" lon="6.72308">
        <ele>1982</ele>
        <time>2021-12-21T14:54:41Z</time>
      </trkpt>
      <trkpt lat="44.83218" lon="6.72301">
        <ele>1979</ele>
        <time>2021-12-21T14:54:44Z</time>
      </trkpt>
      <trkpt lat="44.83271" lon="6.72262">
        <ele>1970</ele>
        <time>2021-12-21T14:54:53Z</time>
      </trkpt>
      <trkpt lat="44.83294" lon="6.72242">
        <ele>1967</ele>
        <time>2021-12-21T14:54:56Z</time>
      </trkpt>
      <trkpt lat="44.83316" lon="6.72213">
        <ele>1965</ele>
        <time>2021-12-21T14:54:59Z</time>
      </trkpt>
      <trkpt lat="44.83324" lon="6.72209">
        <ele>1964</ele>
        <time>2021-12-21T14:55:00Z</time>
      </trkpt>
      <trkpt lat="44.83353" lon="6.72198">
        <ele>1962</ele>
        <time>2021-12-21T14:55:03Z</time>
      </trkpt>
      <trkpt lat="44.83361" lon="6.722">
        <ele>1961</ele>
        <time>2021-12-21T14:55:05Z</time>
      </trkpt>
      <trkpt lat="44.83365" lon="6.722">
        <ele>1960</ele>
        <time>2021-12-21T14:55:06Z</time>
      </trkpt>
      <trkpt lat="44.83364" lon="6.72201">
        <ele>1957</ele>
        <time>2021-12-21T14:55:12Z</time>
      </trkpt>
      <trkpt lat="44.83336" lon="6.72241">
        <ele>1943</ele>
        <time>2021-12-21T14:55:42Z</time>
      </trkpt>
      <trkpt lat="44.83312" lon="6.72263">
        <ele>1938</ele>
        <time>2021-12-21T14:55:54Z</time>
      </trkpt>
      <trkpt lat="44.83307" lon="6.72271">
        <ele>1938</ele>
        <time>2021-12-21T14:55:56Z</time>
      </trkpt>
      <trkpt lat="44.833" lon="6.72287">
        <ele>1937</ele>
        <time>2021-12-21T14:55:59Z</time>
      </trkpt>
      <trkpt lat="44.83299" lon="6.72292">
        <ele>1937</ele>
        <time>2021-12-21T14:56:00Z</time>
      </trkpt>
      <trkpt lat="44.83298" lon="6.72298">
        <ele>1937</ele>
        <time>2021-12-21T14:56:01Z</time>
      </trkpt>
      <trkpt lat="44.83297" lon="6.72304">
        <ele>1936</ele>
        <time>2021-12-21T14:56:02Z</time>
      </trkpt>
      <trkpt lat="44.83298" lon="6.72314">
        <ele>1935</ele>
        <time>2021-12-21T14:56:04Z</time>
      </trkpt>
      <trkpt lat="44.833" lon="6.72318">
        <ele>1934</ele>
        <time>2021-12-21T14:56:05Z</time>
      </trkpt>
      <trkpt lat="44.83301" lon="6.72325">
        <ele>1934</ele>
        <time>2021-12-21T14:56:07Z</time>
      </trkpt>
      <trkpt lat="44.83362" lon="6.72299">
        <ele>1922</ele>
        <time>2021-12-21T14:56:29Z</time>
      </trkpt>
      <trkpt lat="44.83368" lon="6.72293">
        <ele>1920</ele>
        <time>2021-12-21T14:56:31Z</time>
      </trkpt>
      <trkpt lat="44.83369" lon="6.72286">
        <ele>1918</ele>
        <time>2021-12-21T14:56:33Z</time>
      </trkpt>
      <trkpt lat="44.8337" lon="6.7228">
        <ele>1916</ele>
        <time>2021-12-21T14:56:34Z</time>
      </trkpt>
      <trkpt lat="44.83373" lon="6.72273">
        <ele>1914</ele>
        <time>2021-12-21T14:56:35Z</time>
      </trkpt>
      <trkpt lat="44.83376" lon="6.72269">
        <ele>1912</ele>
        <time>2021-12-21T14:56:37Z</time>
      </trkpt>
      <trkpt lat="44.83379" lon="6.72268">
        <ele>1908</ele>
        <time>2021-12-21T14:56:39Z</time>
      </trkpt>
      <trkpt lat="44.83384" lon="6.72268">
        <ele>1905</ele>
        <time>2021-12-21T14:56:41Z</time>
      </trkpt>
      <trkpt lat="44.83395" lon="6.72277">
        <ele>1898</ele>
        <time>2021-12-21T14:56:49Z</time>
      </trkpt>
      <trkpt lat="44.83397" lon="6.72281">
        <ele>1897</ele>
        <time>2021-12-21T14:56:51Z</time>
      </trkpt>
      <trkpt lat="44.83396" lon="6.72287">
        <ele>1895</ele>
        <time>2021-12-21T14:56:53Z</time>
      </trkpt>
      <trkpt lat="44.83397" lon="6.72293">
        <ele>1894</ele>
        <time>2021-12-21T14:56:55Z</time>
      </trkpt>
      <trkpt lat="44.83396" lon="6.72299">
        <ele>1893</ele>
        <time>2021-12-21T14:56:57Z</time>
      </trkpt>
      <trkpt lat="44.83398" lon="6.72308">
        <ele>1891</ele>
        <time>2021-12-21T14:56:59Z</time>
      </trkpt>
      <trkpt lat="44.83404" lon="6.72317">
        <ele>1891</ele>
        <time>2021-12-21T14:57:01Z</time>
      </trkpt>
      <trkpt lat="44.83406" lon="6.72322">
        <ele>1890</ele>
        <time>2021-12-21T14:57:02Z</time>
      </trkpt>
      <trkpt lat="44.83438" lon="6.72322">
        <ele>1889</ele>
        <time>2021-12-21T14:57:20Z</time>
      </trkpt>
      <trkpt lat="44.83453" lon="6.72316">
        <ele>1892</ele>
        <time>2021-12-21T14:57:28Z</time>
      </trkpt>
      <trkpt lat="44.83486" lon="6.72252">
        <ele>1890</ele>
        <time>2021-12-21T14:57:45Z</time>
      </trkpt>
      <trkpt lat="44.83476" lon="6.72219">
        <ele>1888</ele>
        <time>2021-12-21T14:57:49Z</time>
      </trkpt>
      <trkpt lat="44.83505" lon="6.72153">
        <ele>1888</ele>
        <time>2021-12-21T14:57:52Z</time>
      </trkpt>
      <trkpt lat="44.83493" lon="6.72207">
        <ele>1888</ele>
        <time>2021-12-21T14:57:53Z</time>
      </trkpt>
      <trkpt lat="44.83497" lon="6.7225">
        <ele>1889</ele>
        <time>2021-12-21T14:57:55Z</time>
      </trkpt>
      <trkpt lat="44.83499" lon="6.72278">
        <ele>1887</ele>
        <time>2021-12-21T14:58:12Z</time>
      </trkpt>
      <trkpt lat="44.83492" lon="6.72295">
        <ele>1887</ele>
        <time>2021-12-21T14:58:13Z</time>
      </trkpt>
      <trkpt lat="44.83491" lon="6.72322">
        <ele>1885</ele>
        <time>2021-12-21T14:58:18Z</time>
      </trkpt>
      <trkpt lat="44.83502" lon="6.72324">
        <ele>1886</ele>
        <time>2021-12-21T14:58:19Z</time>
      </trkpt>
      <trkpt lat="44.8351" lon="6.72317">
        <ele>1887</ele>
        <time>2021-12-21T14:58:20Z</time>
      </trkpt>
      <trkpt lat="44.83504" lon="6.72296">
        <ele>1889</ele>
        <time>2021-12-21T14:58:23Z</time>
      </trkpt>
      <trkpt lat="44.8352" lon="6.7226">
        <ele>1890</ele>
        <time>2021-12-21T14:58:34Z</time>
      </trkpt>
      <trkpt lat="44.83523" lon="6.72228">
        <ele>1889</ele>
        <time>2021-12-21T14:58:37Z</time>
      </trkpt>
      <trkpt lat="44.83535" lon="6.72206">
        <ele>1888</ele>
        <time>2021-12-21T14:58:39Z</time>
      </trkpt>
      <trkpt lat="44.83559" lon="6.72181">
        <ele>1885</ele>
        <time>2021-12-21T14:58:43Z</time>
      </trkpt>
      <trkpt lat="44.83582" lon="6.72177">
        <ele>1884</ele>
        <time>2021-12-21T14:58:45Z</time>
      </trkpt>
      <trkpt lat="44.83609" lon="6.72181">
        <ele>1884</ele>
        <time>2021-12-21T14:58:46Z</time>
      </trkpt>
      <trkpt lat="44.83695" lon="6.72219">
        <ele>1881</ele>
        <time>2021-12-21T14:59:01Z</time>
      </trkpt>
      <trkpt lat="44.83727" lon="6.72239">
        <ele>1881</ele>
        <time>2021-12-21T14:59:05Z</time>
      </trkpt>
      <trkpt lat="44.8375" lon="6.72247">
        <ele>1881</ele>
        <time>2021-12-21T14:59:08Z</time>
      </trkpt>
      <trkpt lat="44.83753" lon="6.72249">
        <ele>1882</ele>
        <time>2021-12-21T14:59:09Z</time>
      </trkpt>
      <trkpt lat="44.83747" lon="6.72259">
        <ele>1881</ele>
        <time>2021-12-21T14:59:14Z</time>
      </trkpt>
      <trkpt lat="44.83744" lon="6.7226">
        <ele>1881</ele>
        <time>2021-12-21T14:59:15Z</time>
      </trkpt>
      <trkpt lat="44.83742" lon="6.7226">
        <ele>1880</ele>
        <time>2021-12-21T14:59:16Z</time>
      </trkpt>
      <trkpt lat="44.83739" lon="6.72258">
        <ele>1879</ele>
        <time>2021-12-21T14:59:17Z</time>
      </trkpt>
      <trkpt lat="44.83726" lon="6.72258">
        <ele>1874</ele>
        <time>2021-12-21T14:59:22Z</time>
      </trkpt>
      <trkpt lat="44.83717" lon="6.72264">
        <ele>1867</ele>
        <time>2021-12-21T14:59:28Z</time>
      </trkpt>
      <trkpt lat="44.8368" lon="6.72257">
        <ele>1850</ele>
        <time>2021-12-21T14:59:45Z</time>
      </trkpt>
      <trkpt lat="44.83675" lon="6.72256">
        <ele>1848</ele>
        <time>2021-12-21T14:59:47Z</time>
      </trkpt>
      <trkpt lat="44.83641" lon="6.72256">
        <ele>1849</ele>
        <time>2021-12-21T15:00:05Z</time>
      </trkpt>
      <trkpt lat="44.8365" lon="6.72259">
        <ele>1851</ele>
        <time>2021-12-21T15:01:08Z</time>
      </trkpt>
      <trkpt lat="44.83652" lon="6.72257">
        <ele>1868</ele>
        <time>2021-12-21T15:01:50Z</time>
      </trkpt>
      <trkpt lat="44.83651" lon="6.7227">
        <ele>1869</ele>
        <time>2021-12-21T15:01:53Z</time>
      </trkpt>
      <trkpt lat="44.83655" lon="6.72272">
        <ele>1870</ele>
        <time>2021-12-21T15:02:38Z</time>
      </trkpt>
      <trkpt lat="44.83659" lon="6.72275">
        <ele>1870</ele>
        <time>2021-12-21T15:02:40Z</time>
      </trkpt>
      <trkpt lat="44.83666" lon="6.72277">
        <ele>1870</ele>
        <time>2021-12-21T15:02:43Z</time>
      </trkpt>
      <trkpt lat="44.83699" lon="6.7229">
        <ele>1870</ele>
        <time>2021-12-21T15:02:53Z</time>
      </trkpt>
      <trkpt lat="44.83848" lon="6.72345">
        <ele>1866</ele>
        <time>2021-12-21T15:03:17Z</time>
      </trkpt>
      <trkpt lat="44.84094" lon="6.72353">
        <ele>1857</ele>
        <time>2021-12-21T15:03:47Z</time>
      </trkpt>
      <trkpt lat="44.8433" lon="6.72369">
        <ele>1827</ele>
        <time>2021-12-21T15:04:17Z</time>
      </trkpt>
      <trkpt lat="44.84438" lon="6.72366">
        <ele>1812</ele>
        <time>2021-12-21T15:04:31Z</time>
      </trkpt>
      <trkpt lat="44.84525" lon="6.72415">
        <ele>1802</ele>
        <time>2021-12-21T15:04:44Z</time>
      </trkpt>
      <trkpt lat="44.84534" lon="6.72423">
        <ele>1799</ele>
        <time>2021-12-21T15:04:46Z</time>
      </trkpt>
      <trkpt lat="44.84537" lon="6.72427">
        <ele>1798</ele>
        <time>2021-12-21T15:04:47Z</time>
      </trkpt>
      <trkpt lat="44.84538" lon="6.72444">
        <ele>1794</ele>
        <time>2021-12-21T15:04:49Z</time>
      </trkpt>
      <trkpt lat="44.84535" lon="6.72449">
        <ele>1792</ele>
        <time>2021-12-21T15:04:50Z</time>
      </trkpt>
      <trkpt lat="44.84532" lon="6.72454">
        <ele>1791</ele>
        <time>2021-12-21T15:04:51Z</time>
      </trkpt>
      <trkpt lat="44.84519" lon="6.72452">
        <ele>1785</ele>
        <time>2021-12-21T15:04:58Z</time>
      </trkpt>
      <trkpt lat="44.84515" lon="6.72458">
        <ele>1782</ele>
        <time>2021-12-21T15:05:02Z</time>
      </trkpt>
      <trkpt lat="44.84513" lon="6.72456">
        <ele>1780</ele>
        <time>2021-12-21T15:05:04Z</time>
      </trkpt>
      <trkpt lat="44.84462" lon="6.72429">
        <ele>1759</ele>
        <time>2021-12-21T15:05:35Z</time>
      </trkpt>
      <trkpt lat="44.84444" lon="6.72416">
        <ele>1757</ele>
        <time>2021-12-21T15:05:46Z</time>
      </trkpt>
      <trkpt lat="44.84441" lon="6.72418">
        <ele>1757</ele>
        <time>2021-12-21T15:05:49Z</time>
      </trkpt>
      <trkpt lat="44.84442" lon="6.7243">
        <ele>1757</ele>
        <time>2021-12-21T15:06:02Z</time>
      </trkpt>
      <trkpt lat="44.8444" lon="6.72434">
        <ele>1757</ele>
        <time>2021-12-21T15:06:06Z</time>
      </trkpt>
      <trkpt lat="44.84443" lon="6.72435">
        <ele>1758</ele>
        <time>2021-12-21T15:06:09Z</time>
      </trkpt>
      <trkpt lat="44.84446" lon="6.72435">
        <ele>1758</ele>
        <time>2021-12-21T15:06:11Z</time>
      </trkpt>
      <trkpt lat="44.84453" lon="6.72443">
        <ele>1759</ele>
        <time>2021-12-21T15:06:16Z</time>
      </trkpt>
      <trkpt lat="44.84478" lon="6.7246">
        <ele>1758</ele>
        <time>2021-12-21T15:06:25Z</time>
      </trkpt>
      <trkpt lat="44.84549" lon="6.72513">
        <ele>1755</ele>
        <time>2021-12-21T15:06:41Z</time>
      </trkpt>
      <trkpt lat="44.84597" lon="6.7254">
        <ele>1750</ele>
        <time>2021-12-21T15:06:50Z</time>
      </trkpt>
      <trkpt lat="44.8461" lon="6.72547">
        <ele>1748</ele>
        <time>2021-12-21T15:06:53Z</time>
      </trkpt>
      <trkpt lat="44.84631" lon="6.72551">
        <ele>1745</ele>
        <time>2021-12-21T15:06:57Z</time>
      </trkpt>
      <trkpt lat="44.84666" lon="6.72537">
        <ele>1740</ele>
        <time>2021-12-21T15:07:04Z</time>
      </trkpt>
      <trkpt lat="44.84755" lon="6.72474">
        <ele>1733</ele>
        <time>2021-12-21T15:07:17Z</time>
      </trkpt>
      <trkpt lat="44.84849" lon="6.72447">
        <ele>1732</ele>
        <time>2021-12-21T15:07:28Z</time>
      </trkpt>
      <trkpt lat="44.84932" lon="6.72451">
        <ele>1726</ele>
        <time>2021-12-21T15:07:41Z</time>
      </trkpt>
      <trkpt lat="44.84967" lon="6.72465">
        <ele>1725</ele>
        <time>2021-12-21T15:07:46Z</time>
      </trkpt>
      <trkpt lat="44.85008" lon="6.72484">
        <ele>1723</ele>
        <time>2021-12-21T15:07:52Z</time>
      </trkpt>
      <trkpt lat="44.85045" lon="6.72489">
        <ele>1721</ele>
        <time>2021-12-21T15:07:58Z</time>
      </trkpt>
      <trkpt lat="44.85063" lon="6.72484">
        <ele>1717</ele>
        <time>2021-12-21T15:08:02Z</time>
      </trkpt>
      <trkpt lat="44.85167" lon="6.7245">
        <ele>1701</ele>
        <time>2021-12-21T15:08:19Z</time>
      </trkpt>
      <trkpt lat="44.85261" lon="6.72446">
        <ele>1697</ele>
        <time>2021-12-21T15:08:32Z</time>
      </trkpt>
      <trkpt lat="44.85291" lon="6.72449">
        <ele>1695</ele>
        <time>2021-12-21T15:08:36Z</time>
      </trkpt>
      <trkpt lat="44.85311" lon="6.72464">
        <ele>1694</ele>
        <time>2021-12-21T15:08:39Z</time>
      </trkpt>
      <trkpt lat="44.85362" lon="6.72521">
        <ele>1689</ele>
        <time>2021-12-21T15:08:50Z</time>
      </trkpt>
      <trkpt lat="44.8537" lon="6.72527">
        <ele>1689</ele>
        <time>2021-12-21T15:08:55Z</time>
      </trkpt>
      <trkpt lat="44.85376" lon="6.7253">
        <ele>1687</ele>
        <time>2021-12-21T15:09:36Z</time>
      </trkpt>
      <trkpt lat="44.85376" lon="6.72534">
        <ele>1686</ele>
        <time>2021-12-21T15:09:37Z</time>
      </trkpt>
      <trkpt lat="44.85376" lon="6.72538">
        <ele>1686</ele>
        <time>2021-12-21T15:09:38Z</time>
      </trkpt>
      <trkpt lat="44.85369" lon="6.72556">
        <ele>1686</ele>
        <time>2021-12-21T15:09:41Z</time>
      </trkpt>
      <trkpt lat="44.85366" lon="6.72571">
        <ele>1687</ele>
        <time>2021-12-21T15:09:43Z</time>
      </trkpt>
      <trkpt lat="44.85366" lon="6.7258">
        <ele>1688</ele>
        <time>2021-12-21T15:09:44Z</time>
      </trkpt>
      <trkpt lat="44.85372" lon="6.726">
        <ele>1685</ele>
        <time>2021-12-21T15:09:48Z</time>
      </trkpt>
      <trkpt lat="44.85375" lon="6.72608">
        <ele>1683</ele>
        <time>2021-12-21T15:09:50Z</time>
      </trkpt>
      <trkpt lat="44.85376" lon="6.72612">
        <ele>1683</ele>
        <time>2021-12-21T15:09:51Z</time>
      </trkpt>
      <trkpt lat="44.85382" lon="6.72625">
        <ele>1680</ele>
        <time>2021-12-21T15:09:55Z</time>
      </trkpt>
      <trkpt lat="44.85387" lon="6.72625">
        <ele>1679</ele>
        <time>2021-12-21T15:09:57Z</time>
      </trkpt>
      <trkpt lat="44.85392" lon="6.72633">
        <ele>1678</ele>
        <time>2021-12-21T15:10:00Z</time>
      </trkpt>
      <trkpt lat="44.85396" lon="6.72637">
        <ele>1677</ele>
        <time>2021-12-21T15:10:02Z</time>
      </trkpt>
      <trkpt lat="44.85398" lon="6.72634">
        <ele>1677</ele>
        <time>2021-12-21T15:10:03Z</time>
      </trkpt>
      <trkpt lat="44.85406" lon="6.72638">
        <ele>1675</ele>
        <time>2021-12-21T15:10:07Z</time>
      </trkpt>
      <trkpt lat="44.85416" lon="6.72636">
        <ele>1674</ele>
        <time>2021-12-21T15:10:42Z</time>
      </trkpt>
    </trkseg>
  </trk>
</gpx>